GFSNW_925_temp_003.txt.gz
Temp
11 12 11 12 12 13 14 17 20 18 19 21 21 20 20 17 18 19 19 20 21 21 21 21 21 21 20 20 20 21 21 23 22 22 20 21 23 24 24 24 23 23 22 24
10 11 12 12 12 11 12 18 18 19 18 21 19 18 17 18 19 18 20 19 20 20 20 20 20 20 19 19 20 20 21 22 23 21 20 20 21 22 23 24 22 22 22 24
11 11 12 12 12 12 12 19 20 21 20 19 20 20 19 18 17 18 19 19 20 21 20 20 19 19 18 18 19 15 19 21 21 22 21 22 21 21 21 22 21 22 23 24
11 11 11 12 12 12 12 17 16 15 20 19 19 19 19 19 19 18 19 19 20 21 20 20 19 20 19 19 17 19 20 21 21 21 21 21 21 21 21 21 21 21 23 23
11 11 11 11 12 13 15 18 18 18 17 17 19 18 19 19 18 18 19 19 19 20 20 21 20 20 20 20 19 20 19 20 20 20 21 21 20 20 20 21 21 22 22 22
12 11 11 11 12 13 16 14 14 18 14 17 19 19 18 18 18 17 17 19 20 19 18 19 19 20 20 20 20 20 19 20 20 19 21 19 19 20 21 21 22 22 22 24
12 12 11 11 11 12 13 13 16 19 17 18 18 17 17 17 17 18 17 18 19 16 17 17 18 18 18 19 19 20 19 19 18 18 19 17 21 22 21 22 22 23 23 23
10 11 12 11 11 11 11 11 14 17 18 18 16 16 17 16 16 17 17 16 15 17 17 17 18 19 17 17 16 17 18 18 18 17 18 20 21 22 22 20 20 22 22 22
10 10 11 12 11 11 11 11 11 12 16 16 16 16 16 18 17 14 13 11 12 15 17 17 16 18 18 19 16 15 16 17 18 17 15 17 21 20 20 20 19 21 21 20
9 9 9 11 11 10 10 10 11 12 13 14 14 16 16 15 15 14 11 12 12 13 15 15 14 16 15 17 17 16 15 15 16 17 16 18 21 22 20 18 20 18 19 18
8 9 9 9 10 10 10 9 10 11 12 13 12 13 13 11 12 15 12 12 13 13 15 16 14 15 16 15 18 17 17 16 15 16 16 15 21 20 18 21 19 17 17 17
8 8 9 9 9 9 9 9 10 9 9 12 10 12 12 12 13 12 10 12 14 15 13 12 12 12 11 14 14 17 16 19 19 16 17 20 21 20 20 19 19 18 17 16
7 8 8 8 8 9 9 8 8 8 8 9 9 12 12 12 12 13 13 13 15 14 14 12 11 11 12 13 15 16 18 19 18 18 19 20 21 21 20 18 17 16 13 13
7 7 8 8 8 8 9 9 8 8 9 10 13 11 11 11 11 12 13 12 11 12 11 11 10 11 12 13 15 14 17 17 17 17 19 19 20 19 15 13 11 10 9 9
6 7 7 7 8 8 8 8 8 9 9 11 12 12 12 11 12 11 12 13 13 10 9 9 10 10 10 10 11 12 15 16 16 17 18 17 17 16 14 14 11 10 9 5
6 6 7 7 7 8 8 9 8 8 8 9 9 12 11 10 10 11 12 12 12 10 9 9 9 10 11 10 10 14 16 16 16 15 16 16 16 11 10 11 10 8 7 5
6 6 7 7 7 8 8 9 7 7 8 9 9 11 10 9 10 9 9 9 9 9 9 8 9 9 9 10 11 14 16 16 16 16 15 14 14 10 7 6 4 2 0 0
6 6 7 7 7 7 7 7 7 8 8 8 8 9 10 8 9 10 10 9 9 8 9 9 9 9 8 8 12 13 14 15 15 15 14 8 6 5 2 1 0 0 -0 3
6 6 6 7 7 6 5 6 7 7 7 8 7 9 9 8 9 9 9 9 9 9 9 9 9 10 8 10 12 13 14 13 13 6 4 3 3 2 0 -0 -1 0 3 2
6 7 7 6 4 4 5 6 6 5 5 4 7 9 9 10 10 8 9 7 8 7 8 8 7 9 11 12 13 13 13 9 8 4 3 2 2 1 0 1 2 3 3 2
6 7 5 3 4 5 6 6 7 6 6 6 6 7 7 7 8 8 7 7 6 7 9 8 8 9 10 11 10 7 6 6 7 7 7 5 4 2 2 3 3 2 2 1
6 5 4 4 4 4 6 6 5 5 7 6 6 6 7 5 5 7 5 7 6 7 7 6 7 10 10 8 8 7 6 6 6 5 4 2 3 3 4 3 2 1 1 1
5 4 4 5 4 6 6 7 6 6 5 3 4 5 5 4 5 6 6 6 7 7 6 7 9 10 9 8 6 4 4 4 4 3 2 3 3 3 2 2 1 1 1 0
5 5 5 5 5 6 7 8 8 4 4 3 5 4 5 6 5 6 6 8 6 6 6 7 11 11 9 6 5 4 3 3 3 3 3 2 2 2 1 1 1 0 0 -0
5 4 6 5 6 5 2 2 3 2 3 4 4 4 6 4 5 5 6 6 6 7 8 10 11 9 7 6 4 4 4 4 4 3 3 2 2 1 1 0 -0 -1 -1 -2
4 4 5 4 4 4 2 2 3 2 4 4 5 5 5 5 5 6 6 7 7 8 8 8 7 6 6 5 4 4 4 4 4 3 2 2 1 1 1 0 -1 -2 -2 -3
4 4 5 6 5 6 5 4 5 4 5 5 5 5 6 5 5 5 7 6 9 8 8 7 6 5 5 5 4 4 3 3 3 3 2 1 0 -0 -1 -1 -1 -3 -3 -4

GFSNW_925_temp_006.txt.gz
Temp
12 12 12 12 13 14 15 15 19 20 19 19 19 17 19 18 19 20 20 20 21 21 21 21 21 19 19 19 21 21 19 20 19 20 20 20 21 22 22 20 21 20 18 18
11 12 12 12 12 12 11 17 18 21 20 18 17 18 17 18 19 18 20 19 20 21 20 19 20 18 19 19 18 18 19 21 19 19 19 20 20 22 22 20 20 19 19 19
11 11 12 12 13 13 12 16 19 19 18 19 19 19 19 17 18 18 19 19 20 20 19 20 19 18 17 18 18 16 18 20 20 19 19 21 20 20 21 20 18 19 20 20
11 11 12 12 13 13 13 16 16 16 18 17 18 19 20 19 18 19 19 19 20 21 19 19 19 18 18 18 17 19 19 20 20 20 20 20 20 20 20 19 19 18 21 21
10 11 12 12 13 14 14 15 17 16 17 18 20 19 18 18 18 18 19 18 20 20 18 19 19 19 20 19 19 20 17 18 19 19 20 20 19 19 19 20 20 20 20 20
10 11 11 12 13 13 16 15 16 16 14 18 19 17 17 17 18 17 17 18 19 17 16 17 17 18 18 19 19 18 18 18 17 17 19 19 17 19 18 19 19 19 18 20
11 10 10 11 12 12 13 13 14 16 17 18 18 18 18 17 16 17 17 17 18 16 17 17 17 18 18 18 19 18 17 17 17 15 17 14 18 21 20 19 20 20 20 20
11 10 10 10 12 12 12 12 14 14 17 17 17 17 17 16 16 15 16 14 14 15 17 16 17 16 17 17 15 16 17 16 16 15 15 17 19 20 20 20 19 20 19 19
10 10 10 10 10 11 11 11 11 13 16 16 17 17 17 16 16 13 13 12 12 14 16 16 15 16 18 16 14 15 15 15 15 11 13 14 20 18 18 19 15 18 18 18
9 10 10 10 10 10 11 11 12 13 14 14 16 15 15 15 15 14 12 12 12 13 14 14 13 15 15 16 17 14 13 14 13 13 13 15 18 17 18 16 16 18 17 18
9 9 10 10 10 10 10 10 11 11 12 13 12 13 12 12 12 14 11 12 12 12 13 14 14 13 14 14 17 16 14 12 12 14 14 13 20 17 17 17 18 18 16 16
8 8 9 9 10 9 9 9 10 10 10 11 10 12 13 13 13 12 11 12 13 14 13 13 12 12 12 14 14 17 14 16 15 14 13 17 20 18 16 15 17 16 15 15
8 8 8 9 9 9 9 9 8 9 9 10 10 12 12 12 12 13 12 12 13 13 13 12 11 12 12 12 13 15 15 16 15 15 18 17 17 17 13 12 12 11 11 11
7 7 8 8 8 9 9 9 9 9 9 10 12 12 12 12 12 12 13 11 12 11 11 11 10 11 12 12 13 12 14 13 14 14 15 15 16 15 12 12 10 9 9 9
6 7 7 7 8 8 9 9 9 9 9 10 10 11 12 11 12 11 12 12 11 10 9 9 10 10 10 10 10 11 13 13 12 13 14 14 14 13 10 10 10 10 8 5
6 7 7 7 8 8 8 8 8 8 8 9 9 11 11 10 10 12 12 11 11 10 9 9 9 10 10 10 10 11 13 14 13 13 13 12 12 12 9 9 8 6 5 5
6 6 7 7 8 8 8 8 7 7 8 8 8 10 9 10 10 9 9 9 8 9 8 8 9 8 9 9 11 13 13 13 12 12 12 11 9 7 5 4 3 2 1 0
6 6 7 7 7 7 7 7 7 8 8 8 7 8 8 8 8 8 8 8 8 8 9 8 9 8 9 8 10 12 12 12 12 11 7 6 4 2 2 1 1 0 1 1
6 6 7 7 7 6 5 7 7 8 8 7 6 8 9 8 9 8 8 9 8 8 8 9 8 9 8 9 10 10 11 11 9 3 2 3 3 2 1 0 0 1 0 1
6 6 7 6 4 5 6 6 6 5 5 5 7 8 8 8 9 8 7 7 7 7 8 7 7 8 9 10 10 9 9 6 5 4 4 3 3 2 1 0 -0 0 2 2
6 6 4 4 4 5 6 5 6 6 6 6 6 6 7 6 7 7 6 6 6 7 7 7 7 7 7 8 8 6 4 6 6 5 6 3 3 1 2 1 2 2 2 0
7 5 4 4 4 5 5 6 5 5 7 6 6 5 6 5 5 6 5 7 6 7 5 6 7 6 9 8 8 6 4 4 5 4 4 3 3 3 3 2 1 1 1 1
6 4 3 4 4 5 5 5 6 6 5 3 4 5 5 4 5 5 6 7 7 5 5 6 6 6 7 7 6 5 4 4 4 3 3 3 2 3 3 1 2 2 1 1
4 4 4 4 4 4 5 6 6 3 3 3 5 4 5 4 5 5 6 6 5 6 5 5 6 6 6 5 4 4 2 2 2 1 1 1 1 1 2 2 1 1 -0 -0
4 4 5 5 4 3 1 2 2 2 3 3 4 4 5 4 5 5 6 5 5 6 5 4 5 6 5 4 3 2 2 1 1 1 0 0 1 0 0 1 0 -0 -1 -1
3 3 5 2 3 3 1 2 3 1 3 2 3 4 4 5 5 5 5 6 5 5 3 2 1 4 4 3 2 1 2 1 1 2 2 1 1 -0 0 1 -0 -1 -1 -2
3 4 3 3 2 3 3 2 2 3 3 3 4 4 4 3 5 5 4 4 5 4 2 1 0 0 0 2 2 1 1 1 2 2 2 1 1 0 -1 -4 -1 -2 -2 -3

GFSNW_925_temp_009.txt.gz
Temp
11 11 12 12 12 13 14 11 15 20 16 16 13 14 18 18 17 18 19 19 19 18 18 19 17 17 17 18 19 19 19 17 17 19 19 19 20 20 19 18 20 17 16 18
11 11 12 12 12 11 11 11 13 21 20 14 14 16 16 16 17 17 18 18 19 19 19 18 17 17 17 17 17 18 19 18 16 18 19 19 19 20 20 18 17 18 18 18
11 11 11 12 12 11 11 11 15 14 12 13 15 17 17 16 17 17 18 19 19 19 18 18 17 16 17 17 17 16 18 18 18 17 19 18 19 20 20 18 16 17 17 20
10 11 11 12 13 13 11 11 13 14 14 15 15 16 17 17 17 18 18 18 19 19 18 18 17 16 17 18 17 18 17 18 18 19 20 20 20 19 19 18 17 18 20 19
10 11 11 11 12 14 13 12 12 12 13 16 15 14 16 16 16 16 18 17 16 16 15 17 18 17 18 18 18 18 16 17 18 18 19 18 18 18 17 18 18 17 17 18
10 10 11 11 12 13 11 13 13 12 13 15 14 15 16 16 15 16 16 17 16 15 15 15 16 16 16 16 17 16 16 16 15 16 16 17 17 18 17 17 18 18 17 19
10 10 11 11 11 12 11 12 11 12 14 14 14 16 15 15 15 15 15 14 15 15 15 16 16 15 15 15 14 15 15 15 14 14 15 14 18 18 19 17 18 18 18 17
10 10 10 11 11 11 12 11 10 10 13 13 14 15 14 14 12 13 13 12 11 11 15 14 15 14 16 14 13 13 14 14 14 13 13 15 17 16 18 19 18 17 17 16
9 10 10 11 11 11 11 11 11 9 11 13 15 14 15 12 11 12 11 11 11 13 13 14 13 13 15 14 14 13 13 12 13 8 11 13 16 17 18 17 16 16 17 17
9 9 10 10 11 11 11 11 11 10 10 11 13 12 13 12 11 10 11 12 13 13 13 13 12 14 14 14 14 13 12 11 12 11 12 13 15 17 18 16 15 16 17 17
9 9 9 10 10 11 11 9 11 11 10 11 12 12 11 11 11 11 10 12 11 12 13 12 11 12 12 14 14 13 12 10 11 11 11 12 16 17 17 14 14 14 14 14
8 8 8 9 9 10 10 9 10 11 9 10 10 11 12 13 12 10 10 12 11 12 10 10 9 11 10 11 13 14 14 13 13 12 12 14 14 13 13 13 13 12 13 13
8 8 9 9 9 9 10 10 10 10 9 9 9 11 12 12 13 13 11 10 12 11 11 11 11 13 10 11 11 14 14 14 13 14 15 15 14 10 11 11 11 10 11 11
7 8 9 8 8 9 9 9 9 10 9 10 11 11 12 12 12 12 13 11 11 10 10 10 10 12 12 11 11 11 11 13 12 12 13 13 14 13 12 11 10 9 8 8
7 8 9 8 8 9 9 9 9 9 10 10 10 10 10 11 11 12 12 12 11 10 10 10 9 9 10 10 8 8 10 11 10 10 12 11 11 11 10 9 9 7 6 5
7 7 8 8 8 8 9 8 8 9 9 9 8 10 9 10 11 11 10 11 10 9 9 9 9 9 10 9 10 10 9 11 11 11 12 11 10 8 8 7 6 4 4 3
6 7 8 7 8 8 8 8 7 8 9 8 8 9 8 9 9 8 9 9 8 9 9 9 9 8 9 9 9 10 10 11 11 11 11 11 7 7 4 3 2 2 2 2
6 7 7 7 7 7 7 7 7 8 8 8 7 8 8 8 8 8 8 8 8 8 8 8 9 8 8 9 8 10 11 10 10 6 6 7 4 2 2 1 1 0 -0 0
6 6 7 7 7 6 6 7 7 7 8 7 6 8 8 7 8 8 8 8 8 7 8 8 9 9 8 9 8 9 9 10 10 3 2 2 2 2 1 1 0 -0 0 1
6 6 6 5 4 5 6 7 6 5 5 5 7 7 7 7 8 7 7 6 7 7 8 7 7 8 9 8 8 8 8 6 4 4 3 2 2 3 2 -0 1 2 1 1
6 5 4 4 5 5 5 5 6 6 6 6 6 6 6 5 7 7 6 6 6 7 7 8 7 6 7 8 7 4 2 4 4 4 4 3 3 2 2 1 1 0 1 -0
7 5 4 5 4 4 5 6 5 6 7 5 6 5 6 4 4 6 5 7 5 6 5 6 6 5 7 7 6 5 4 4 4 4 3 2 2 1 1 0 0 1 1 1
6 4 3 3 4 4 5 5 6 6 4 4 4 5 5 4 5 5 6 6 6 4 5 6 5 6 6 5 4 4 2 3 3 2 2 2 2 2 2 1 1 1 0 0
4 4 5 3 2 3 1 2 3 2 2 3 4 3 5 3 5 5 6 6 4 5 5 4 5 5 5 4 4 4 5 3 3 2 1 1 1 1 1 1 1 1 -0 0
4 3 3 2 1 1 -2 -2 -0 -1 0 2 2 4 3 4 5 5 4 4 5 4 4 4 3 5 4 4 3 2 2 1 0 0 -0 -0 0 -0 -0 1 1 0 -0 -1
3 3 3 2 3 2 -1 -1 -1 -1 -0 -1 0 4 4 5 5 5 5 6 4 4 2 0 -3 4 3 2 2 1 1 0 -0 -0 0 0 -1 -1 -1 0 -0 -0 -1 -1
3 4 1 -1 1 2 1 0 -0 1 1 1 2 3 2 1 4 3 2 3 3 1 -0 -2 -2 -0 1 1 1 1 1 0 0 0 0 0 1 0 -1 -4 -1 -1 -1 -2

GFSNW_925_temp_012.txt.gz
Temp
11 11 11 11 11 12 12 10 15 14 14 14 13 14 15 15 14 15 16 18 18 17 18 18 16 16 17 17 18 19 18 15 15 18 19 19 19 18 18 17 19 15 15 18
11 11 11 11 10 10 10 10 11 14 14 16 13 16 15 14 15 16 17 17 18 17 18 17 17 16 17 17 18 18 18 16 15 18 18 18 18 19 18 16 16 17 17 18
10 10 11 11 11 10 10 10 15 14 11 12 15 16 16 16 16 17 17 17 18 17 17 17 16 16 17 17 17 16 17 17 17 18 19 17 18 18 18 17 16 17 16 19
10 10 11 11 11 11 10 9 13 13 16 16 15 16 17 16 17 17 17 17 18 18 17 17 16 16 17 17 17 17 17 17 18 18 19 19 18 18 17 17 17 18 18 18
9 10 11 11 12 12 11 11 12 11 12 14 15 14 15 16 15 16 17 15 15 16 16 16 17 17 17 18 18 17 16 17 18 17 17 18 18 18 17 17 18 17 17 18
9 10 11 11 11 12 9 10 10 11 12 13 14 14 15 16 15 15 14 15 15 15 15 15 15 15 15 16 17 16 16 16 16 17 15 17 17 17 16 16 16 17 17 18
9 10 10 11 11 11 11 10 9 11 13 13 14 15 15 15 15 15 13 14 15 15 13 15 15 14 13 14 13 14 15 14 13 14 15 15 18 17 17 17 17 18 17 16
9 9 10 11 11 11 12 10 10 10 11 12 13 13 13 12 12 12 12 11 11 10 15 13 14 13 16 14 12 12 13 13 13 14 13 15 17 17 17 18 16 15 15 16
9 9 10 10 11 11 11 10 10 8 11 12 14 13 13 11 11 11 11 12 10 13 13 13 13 13 15 14 14 12 12 11 13 9 12 14 16 17 17 17 14 15 16 16
9 9 9 10 11 11 11 10 11 10 9 10 12 12 12 10 10 9 11 12 13 12 12 11 11 13 14 14 13 13 11 11 12 11 11 12 14 15 16 16 14 13 13 13
8 9 9 9 10 10 11 10 10 11 9 9 11 12 11 10 10 11 10 12 11 11 12 12 12 12 12 13 12 12 12 9 10 10 11 12 15 16 17 13 13 13 12 12
8 8 9 9 10 10 10 10 11 11 9 9 9 11 11 12 12 8 8 11 10 11 11 10 9 11 9 10 13 12 13 12 12 11 11 13 12 12 13 12 12 13 13 13
8 8 9 9 10 10 10 10 10 11 8 9 9 10 11 12 12 12 10 9 11 11 10 9 10 12 9 10 10 13 13 12 13 14 14 11 12 12 12 11 11 11 11 11
8 8 9 9 9 9 10 10 9 10 8 9 10 11 10 11 12 13 12 11 11 10 10 10 11 12 10 10 11 10 11 12 12 11 12 13 10 11 10 10 10 9 9 8
7 8 8 8 9 9 9 9 9 9 9 10 10 10 10 11 11 12 12 12 11 10 10 10 10 9 10 7 7 8 8 11 11 11 11 11 10 11 10 9 9 8 7 6
7 8 8 8 8 9 9 9 9 9 9 9 7 9 8 10 11 11 10 10 9 9 9 9 9 9 9 8 10 10 8 9 11 11 11 10 10 7 8 8 6 4 4 4
7 8 8 8 8 9 8 8 7 9 9 8 7 8 8 9 9 8 9 8 8 9 8 9 9 9 9 8 9 9 9 9 11 10 10 10 8 9 4 3 3 3 3 3
7 7 8 7 8 8 7 7 7 8 8 8 7 8 8 8 8 8 8 8 8 8 8 8 9 8 8 8 8 10 10 10 9 7 6 6 4 2 2 2 2 1 0 -0
6 7 7 7 8 6 6 7 7 8 8 7 6 8 8 7 8 8 8 8 8 7 8 9 8 8 8 9 8 9 8 10 9 4 3 2 1 2 2 2 2 0 0 -0
6 7 7 5 5 6 7 7 6 5 5 5 7 7 8 7 8 7 7 6 7 8 8 7 8 8 8 7 7 8 8 8 4 3 2 2 0 2 3 2 1 -1 -0 -0
6 5 4 4 5 6 4 5 5 6 6 6 6 7 7 6 7 7 6 6 6 6 6 7 7 6 6 6 6 4 2 4 3 5 4 3 3 3 2 3 0 1 0 -0
6 5 4 5 4 4 5 6 4 6 5 5 6 6 6 5 4 6 5 7 6 6 6 6 6 6 7 6 4 3 3 3 3 4 4 3 2 2 1 1 -0 0 1 1
6 4 3 4 4 5 5 5 5 5 4 4 4 5 5 4 5 5 6 6 6 5 5 5 4 5 5 5 4 4 3 3 3 2 2 2 2 2 1 0 1 1 0 1
4 4 5 4 4 4 3 2 2 2 3 4 4 4 5 4 5 5 6 5 5 5 5 4 5 5 4 3 3 3 3 1 1 1 1 1 0 0 1 1 1 0 -1 -0
4 3 4 3 -0 0 -2 -3 0 0 3 4 3 3 3 4 5 5 5 5 5 5 4 3 2 4 4 3 2 2 2 1 0 0 -1 -0 -0 -1 -1 0 0 0 -0 -1
3 2 1 1 4 2 -2 -5 2 -0 2 -1 0 4 4 4 4 5 4 4 4 4 1 -0 -4 2 3 3 2 2 1 0 -0 0 0 0 -1 -1 -1 0 -1 -0 -0 -1
3 3 1 -1 0 2 0 -1 -1 1 0 1 0 0 1 3 3 1 2 4 4 1 -1 -3 -1 1 2 2 2 1 1 0 0 0 0 -0 0 -0 -2 -4 -1 -1 -1 -2

GFSNW_925_temp_015.txt.gz
Temp
11 11 10 10 10 11 12 8 13 10 11 13 13 14 15 15 14 14 15 17 16 17 16 16 16 16 17 17 17 18 17 15 15 17 17 17 18 17 16 16 17 14 14 17
11 10 10 10 10 10 10 9 11 10 11 15 14 13 14 14 14 16 17 17 18 18 17 16 15 16 16 17 18 18 17 15 14 17 17 17 18 17 17 15 15 15 16 17
10 10 10 10 10 9 10 9 14 11 10 11 16 14 14 14 15 15 16 16 17 17 16 16 15 16 16 17 17 16 17 15 16 17 17 16 17 17 16 17 15 16 15 19
10 10 9 10 10 10 10 8 12 12 14 15 16 16 15 15 16 15 15 16 16 17 16 16 15 16 16 17 17 17 17 17 17 16 17 17 17 17 16 16 16 17 18 16
10 9 9 10 10 11 10 10 11 10 11 13 15 14 15 15 15 15 15 15 15 16 16 16 16 16 17 18 17 17 15 16 17 16 17 17 18 18 16 16 17 16 17 17
10 9 9 10 10 11 8 8 9 11 11 12 14 14 15 15 15 15 14 15 15 14 14 14 14 14 14 15 16 16 16 15 15 17 15 17 17 16 15 16 16 17 17 18
9 9 9 10 10 11 11 9 8 11 13 12 13 14 14 14 15 15 13 14 15 14 14 14 15 14 14 14 13 14 15 14 14 15 16 16 18 16 17 16 15 16 15 15
9 9 9 10 10 11 11 10 9 9 11 11 13 13 11 12 11 12 12 11 10 10 14 14 15 14 16 14 12 12 13 13 13 14 14 16 17 17 15 16 15 14 15 15
9 9 9 9 10 11 11 10 10 8 10 12 13 12 12 12 11 12 11 11 10 12 12 13 13 13 15 14 13 12 12 12 14 10 13 15 17 17 16 16 13 13 14 13
9 9 9 9 10 10 11 10 10 9 9 9 12 12 12 10 9 9 11 12 13 12 11 11 11 14 14 13 13 13 12 12 13 13 13 13 14 15 16 16 14 13 13 12
9 9 9 9 10 10 11 10 10 10 8 9 10 11 11 9 9 11 10 12 11 10 12 11 11 12 12 12 12 12 12 10 11 10 11 14 14 15 15 12 11 12 12 12
8 8 9 9 10 10 11 10 10 10 8 9 9 10 10 11 11 8 8 11 10 10 9 9 9 10 9 10 13 11 13 12 12 12 12 12 12 12 11 11 11 12 13 13
8 8 8 9 9 10 11 11 10 11 8 8 9 9 11 11 11 12 10 8 10 10 9 9 9 12 8 10 10 12 12 11 12 12 11 12 12 11 12 12 12 12 11 11
8 8 9 9 9 9 10 10 10 10 7 9 10 10 10 10 11 12 12 10 10 9 9 10 10 11 9 9 11 10 10 11 11 11 11 10 11 11 11 11 10 9 8 8
7 8 9 9 9 9 10 10 9 10 9 10 10 9 10 10 11 12 12 11 10 9 9 10 11 10 10 7 8 9 8 10 11 11 10 10 10 9 9 9 9 9 8 6
7 8 9 9 9 9 10 8 9 10 10 9 7 8 8 9 10 10 9 9 8 8 9 9 9 9 10 8 7 9 8 8 10 10 9 9 9 7 8 7 5 3 3 4
7 8 8 8 8 9 8 8 7 9 10 8 8 9 8 8 9 8 9 8 8 9 8 9 9 9 8 8 9 9 9 8 10 9 8 9 8 7 3 3 2 3 2 2
7 7 7 8 8 8 7 7 8 9 9 7 7 8 8 8 8 8 7 8 8 8 8 8 9 8 8 7 8 9 8 7 7 5 4 5 2 2 1 2 2 2 1 1
7 7 8 8 8 7 6 7 8 9 8 7 6 8 8 7 7 7 8 8 8 7 9 9 8 8 8 8 7 8 8 9 7 3 2 2 1 1 2 2 2 1 1 -1
7 7 7 5 5 6 7 7 6 4 5 6 7 7 8 8 8 7 7 6 7 8 8 8 8 8 8 6 7 7 7 7 3 3 4 1 1 -0 1 2 2 2 1 -1
6 5 4 4 5 6 5 5 6 6 7 6 7 7 7 6 7 7 6 6 5 7 7 8 7 5 4 5 4 4 2 4 4 5 4 4 4 2 1 1 2 1 -1 -1
6 5 4 5 4 4 6 6 5 6 5 5 6 6 6 5 5 6 5 6 5 7 5 7 5 3 6 5 5 3 2 3 3 4 4 3 3 2 1 1 0 0 1 1
5 4 4 5 4 5 5 5 5 5 3 4 5 5 5 4 5 5 6 6 7 4 6 6 4 3 5 3 3 3 3 3 3 3 3 2 2 2 1 1 1 1 0 0
3 4 4 5 4 4 4 2 2 2 4 5 5 4 5 5 5 6 7 4 5 4 1 3 3 4 3 2 2 3 3 1 2 1 1 1 1 1 1 1 1 0 -1 0
3 4 6 4 -1 -1 -2 -1 2 2 4 4 4 4 3 4 5 4 5 5 5 5 2 1 2 3 3 3 3 3 3 1 1 0 -0 -0 0 -1 -0 1 1 0 -0 -0
2 2 1 1 -0 1 0 -0 2 1 3 2 2 2 4 4 4 5 6 4 3 3 1 -1 -4 2 3 4 3 2 1 1 0 0 0 0 -1 -1 -1 0 -0 -0 -1 -1
3 3 1 -2 -3 1 1 1 3 2 5 3 1 1 2 3 3 2 1 2 2 -0 -2 -4 -1 0 1 2 2 2 2 1 0 0 0 0 0 -0 -2 -4 -1 -1 -1 -1

GFSNW_925_temp_021.txt.gz
Temp
11 10 10 10 10 9 9 7 10 9 8 11 10 11 11 12 13 12 12 14 14 12 13 13 14 13 15 14 15 14 15 15 14 16 16 16 16 16 16 17 15 13 15 18
11 10 10 10 10 9 9 7 10 9 9 12 11 11 12 13 13 13 14 15 16 14 14 13 13 14 16 15 15 15 15 14 14 14 15 15 16 15 15 14 14 14 16 18
11 10 10 10 10 9 9 7 10 10 10 10 12 13 14 13 13 14 14 15 15 14 14 14 14 14 15 14 16 16 16 14 15 15 15 15 15 15 14 17 15 15 15 18
11 10 10 10 9 9 9 6 9 10 10 11 12 13 13 14 14 13 15 16 15 15 14 14 14 14 14 16 16 16 16 16 16 15 16 16 16 16 14 16 17 18 18 15
11 10 10 9 9 9 8 8 8 8 11 13 13 12 13 14 14 14 16 16 16 15 14 15 14 14 16 16 15 16 15 15 16 16 15 16 16 15 15 15 14 16 16 16
11 10 9 9 9 9 7 7 7 9 12 13 13 14 13 14 13 13 13 15 15 14 14 14 14 15 14 16 15 15 15 14 15 15 15 16 17 15 14 15 14 17 16 18
11 10 9 9 9 9 9 8 7 9 13 12 14 14 12 13 12 14 11 12 14 14 13 14 15 15 14 16 12 14 15 15 14 14 15 15 17 15 15 15 14 14 15 14
10 10 9 9 9 9 9 9 8 8 12 12 12 13 12 11 11 10 11 10 9 11 13 15 15 14 15 13 12 12 12 15 14 14 14 15 16 14 13 15 15 14 13 12
10 9 9 9 9 9 9 9 9 7 11 12 12 12 12 11 10 10 8 8 8 10 13 13 13 14 14 13 13 12 12 13 15 11 15 16 17 15 15 15 15 13 13 12
10 9 9 9 9 9 9 9 9 7 10 9 10 11 12 11 10 9 10 10 11 10 13 13 13 13 12 13 13 13 13 12 13 13 14 14 15 14 14 16 16 12 12 11
10 9 9 9 9 9 9 9 9 8 8 8 9 10 10 10 11 11 10 12 12 11 14 13 12 13 12 12 12 12 13 12 12 11 13 15 13 14 15 13 10 11 11 11
9 9 9 9 9 9 9 9 8 9 8 8 8 9 9 9 10 8 8 11 10 10 10 9 9 10 9 11 13 11 14 13 13 13 13 11 11 12 10 10 10 10 10 10
9 9 9 9 9 9 9 9 9 8 7 9 8 9 10 10 10 10 11 8 9 9 8 7 8 12 8 11 11 11 11 10 11 12 12 11 10 10 10 11 10 9 9 9
9 8 9 9 9 9 9 9 9 9 7 10 10 9 9 10 11 11 10 9 8 7 8 9 9 11 7 9 10 11 10 10 10 9 10 10 11 11 9 8 7 7 6 7
9 8 8 9 9 9 9 9 9 10 10 10 9 9 9 9 10 10 10 9 8 8 9 10 10 8 8 6 7 9 8 10 11 11 10 10 10 9 8 7 7 6 5 4
8 8 8 8 9 9 9 9 9 9 9 9 9 8 8 9 10 8 8 7 7 7 8 7 7 8 9 8 8 9 7 8 9 10 7 6 6 6 7 5 4 5 4 4
8 8 8 8 8 8 8 8 8 9 10 9 8 8 8 8 9 8 9 8 8 8 7 7 8 8 8 8 7 10 7 8 7 6 7 7 7 7 4 3 3 3 2 2
8 8 8 8 8 8 7 8 8 9 8 7 7 7 8 8 8 9 7 9 9 8 8 8 9 8 9 9 9 7 6 5 5 5 4 6 2 1 1 2 3 3 3 3
7 8 8 7 8 7 7 9 9 9 9 6 6 8 8 8 8 8 8 8 9 7 9 9 9 9 7 9 7 6 5 7 4 2 2 2 3 2 1 2 2 1 1 1
7 7 7 6 5 7 9 9 7 5 5 6 6 6 8 7 8 7 7 6 7 8 8 8 8 9 8 7 7 7 6 4 3 3 3 3 2 2 2 1 0 0 0 1
7 5 5 4 6 7 4 5 5 6 5 7 6 6 7 6 7 7 6 6 5 8 8 8 7 7 5 4 4 4 3 4 4 5 4 3 3 1 1 0 0 0 0 1
7 5 5 5 4 4 4 3 5 6 5 6 7 6 5 5 3 6 5 4 1 5 6 7 6 4 4 3 3 2 2 3 3 3 2 2 2 1 1 1 0 0 1 0
7 5 4 5 4 5 4 6 6 6 4 5 5 6 5 4 3 2 2 2 2 4 6 8 5 3 3 2 1 0 1 2 1 1 2 2 1 2 2 0 1 1 0 0
4 4 6 6 5 5 4 3 3 2 4 5 5 5 6 5 3 5 7 3 5 5 5 3 2 2 2 1 0 1 1 1 1 1 1 1 1 1 1 1 1 0 -0 -0
3 4 6 4 0 -0 -3 -2 2 3 5 5 4 2 4 4 5 5 5 5 5 6 3 1 0 2 1 1 1 1 1 1 1 -0 -0 0 0 -0 0 1 0 -0 -0 -1
2 2 2 1 0 0 1 1 4 2 5 3 3 1 1 3 3 5 1 4 4 3 1 -2 -2 1 2 1 1 1 0 0 0 0 0 1 -0 -0 -0 -0 -0 -1 -1 -1
3 3 1 -2 -4 -0 2 1 3 3 4 3 1 4 4 1 1 4 0 1 2 -0 -1 -2 -1 1 1 1 1 0 0 -0 -0 0 0 0 -0 -1 -1 -4 -2 -2 -2 -2

GFSNW_925_temp_027.txt.gz
Temp
7 10 10 11 11 10 9 8 10 9 8 9 9 10 11 10 10 11 11 11 11 12 16 17 17 16 18 19 18 14 14 16 13 14 16 19 20 19 22 23 22 23 24 24
7 9 10 11 10 10 8 9 11 8 9 10 10 11 10 10 11 11 11 10 12 15 18 16 18 18 19 19 18 15 17 19 15 14 16 17 18 21 21 23 22 23 24 24
7 8 10 11 10 10 11 10 11 10 9 11 12 11 11 10 11 10 11 11 14 15 18 18 18 18 18 18 19 16 18 19 21 21 21 19 19 20 21 22 22 23 24 25
6 7 10 10 10 10 9 8 13 13 11 10 11 11 12 12 10 11 12 11 13 16 17 18 17 18 18 18 18 17 18 19 21 22 22 22 21 20 20 21 22 23 25 24
6 7 10 10 10 9 8 9 12 13 13 13 12 11 12 12 11 12 11 12 13 18 18 18 18 18 18 18 18 18 18 19 21 21 21 22 21 21 21 21 22 23 23 24
6 6 10 10 10 9 8 8 9 13 16 16 16 15 13 13 13 13 14 12 15 18 19 20 21 20 20 20 18 18 18 18 19 20 20 20 20 22 22 22 23 23 22 24
5 6 8 10 9 9 10 9 10 11 14 17 18 15 13 13 12 13 14 15 16 19 16 16 16 20 20 20 19 19 18 18 19 19 20 18 23 21 23 23 23 24 24 24
5 6 6 9 9 9 9 9 9 12 15 17 17 13 12 11 10 11 15 15 14 18 15 16 16 15 15 14 17 19 20 20 18 18 19 22 23 20 21 22 22 24 23 24
5 6 8 9 9 9 9 9 9 9 14 17 16 12 13 11 11 11 11 12 13 16 17 14 14 14 13 13 13 13 17 19 18 18 18 18 22 20 20 22 21 24 24 23
4 5 9 9 9 9 8 8 9 9 13 15 14 12 13 14 11 10 10 12 14 14 16 15 15 14 14 13 13 13 12 14 16 15 17 19 20 19 20 20 21 20 21 21
4 5 6 9 9 9 9 8 9 10 14 14 12 12 15 14 13 12 9 11 12 12 14 16 17 17 17 17 16 16 13 13 13 14 14 16 19 18 19 18 18 18 19 19
4 5 6 9 8 9 9 8 8 8 11 12 10 11 11 11 10 9 8 10 12 12 12 14 16 17 16 19 17 18 18 19 18 18 18 16 18 17 17 18 18 18 17 16
4 5 7 8 8 9 9 8 7 8 10 12 11 12 11 10 9 9 11 10 11 10 11 12 14 16 18 17 19 18 17 16 19 18 17 16 16 15 16 18 17 17 16 15
5 5 7 8 9 9 8 9 9 9 13 13 13 10 12 10 10 10 11 11 13 11 11 12 13 15 14 17 17 19 17 16 18 17 15 14 15 16 16 15 15 14 14 14
4 6 7 8 9 9 9 9 9 10 12 13 12 12 10 11 11 11 12 14 14 15 14 15 15 13 14 13 15 17 16 18 18 19 18 18 17 16 15 14 13 13 12 12
5 6 8 8 8 8 8 9 8 9 9 12 11 11 11 11 12 13 12 12 13 14 15 14 13 12 15 15 16 18 17 17 16 18 17 17 16 14 14 14 13 13 12 11
6 7 8 8 8 8 8 9 8 8 9 10 10 10 10 11 12 12 13 13 11 13 13 14 14 13 14 15 16 18 16 16 14 15 15 14 14 13 14 12 11 11 10 10
6 8 8 8 8 8 8 7 7 8 7 8 7 9 10 10 11 11 11 12 13 11 12 12 14 12 14 13 16 16 15 14 14 13 12 15 14 12 11 9 8 8 8 8
8 8 8 7 8 7 8 8 8 9 8 8 8 9 11 9 9 9 10 11 12 11 12 13 12 14 11 13 15 14 14 13 12 9 9 10 8 6 6 7 8 8 7 7
8 7 7 7 6 8 8 8 10 8 7 8 10 11 9 9 9 8 9 8 9 10 10 10 10 12 14 13 14 15 13 12 8 6 4 4 4 4 4 7 8 8 7 6
7 6 6 5 7 8 7 7 10 8 8 9 10 12 9 8 9 8 7 8 8 11 10 10 11 12 12 12 11 12 11 9 10 12 9 8 7 7 7 7 7 6 6 6
7 6 6 6 6 6 7 9 7 7 9 8 9 10 10 7 7 8 7 8 8 9 10 9 10 12 9 9 10 10 9 10 10 10 10 9 9 8 8 7 6 5 5 3
6 6 5 7 5 7 8 7 8 8 7 6 6 7 8 7 8 6 8 8 10 9 9 10 11 8 8 8 8 8 7 8 8 7 8 7 6 6 6 5 5 5 4 3
4 5 7 7 7 8 8 10 9 8 6 6 7 6 7 8 8 9 8 7 8 8 8 9 11 8 7 7 6 7 6 6 6 5 5 5 5 5 5 4 4 4 3 1
4 6 8 7 4 3 3 5 5 5 7 7 7 7 8 6 7 9 6 6 8 9 9 10 8 7 6 5 6 5 5 5 5 6 5 5 4 4 3 3 2 2 2 1
3 4 5 3 4 3 3 4 5 5 7 7 8 6 7 6 8 6 7 8 9 10 9 6 6 6 6 6 5 4 4 5 5 5 5 4 4 4 2 1 1 0 0 -0
4 4 5 4 5 4 4 5 5 7 8 8 8 8 8 6 6 7 8 8 9 7 6 6 6 5 5 5 4 3 4 4 4 3 3 2 2 1 1 0 -2 -2 -2 -2

GFSNW_925_temp_030.txt.gz
Temp
6 7 7 9 10 10 10 8 10 9 8 9 9 9 11 12 10 10 9 10 11 11 12 12 15 15 17 18 13 12 12 13 13 12 13 16 18 19 19 20 21 21 20 20
6 6 6 8 9 9 8 9 10 9 9 10 9 10 11 11 10 10 10 10 10 11 12 12 16 17 18 18 15 14 13 13 14 13 14 16 16 18 18 20 20 20 20 19
6 6 6 7 9 9 10 9 11 9 9 10 11 10 11 11 10 9 10 10 11 11 12 15 16 17 18 17 17 15 14 15 13 15 16 17 17 17 19 19 19 20 21 20
5 5 6 7 9 9 10 8 11 11 10 9 10 11 12 11 9 10 10 10 10 12 14 15 17 18 18 17 17 16 13 16 17 18 18 18 19 19 19 19 19 20 22 22
5 5 5 6 9 9 8 8 10 11 13 12 11 10 11 11 11 10 11 11 11 13 14 17 17 17 18 17 17 16 16 16 18 20 20 20 19 19 19 19 20 20 20 20
5 5 6 6 8 9 8 8 9 11 13 13 12 12 12 13 12 11 12 11 12 12 15 18 19 18 18 18 16 16 15 16 18 19 20 20 19 19 19 19 20 20 20 21
5 5 5 6 9 9 10 9 9 10 11 12 14 16 16 14 13 12 12 12 12 15 17 19 19 18 18 18 17 17 16 16 17 16 19 16 20 20 21 20 21 21 21 21
5 5 5 6 6 9 9 9 9 10 11 13 13 16 13 11 10 11 13 13 14 16 15 14 13 15 15 15 14 16 17 17 16 15 17 19 21 19 20 19 20 21 20 21
5 4 5 5 9 9 9 9 10 9 10 11 15 14 12 11 11 11 11 12 12 14 13 14 12 13 14 13 14 14 16 17 16 13 15 16 18 19 19 21 17 17 20 19
5 4 5 6 6 9 9 8 9 8 10 12 13 13 12 11 10 10 11 13 13 14 13 14 14 14 15 14 13 13 14 15 14 15 15 16 19 19 19 18 18 17 18 17
5 4 5 6 6 9 9 8 9 9 10 11 12 11 11 12 11 12 10 12 13 12 14 14 15 14 14 14 14 14 14 13 13 14 14 14 18 17 18 16 17 18 15 15
4 4 5 6 7 9 9 8 9 8 9 10 10 11 11 11 11 10 8 10 12 13 13 13 15 16 15 16 15 16 14 15 13 14 15 16 17 15 16 17 16 15 12 12
4 4 5 6 7 8 8 8 7 8 9 10 10 11 11 10 10 10 11 9 10 11 10 12 13 15 15 15 15 16 17 16 16 15 15 15 15 15 16 17 14 13 12 12
4 4 5 5 7 8 8 9 8 9 10 12 11 11 11 10 10 9 9 9 10 9 10 12 12 14 13 15 15 16 15 15 15 15 15 14 14 14 14 12 12 12 11 11
4 4 4 5 7 8 8 9 9 9 10 11 11 12 11 11 11 10 10 9 12 12 11 12 12 11 12 12 13 15 14 15 15 15 16 16 14 13 12 12 11 11 11 10
4 4 5 6 8 8 8 9 8 9 9 11 10 11 11 12 12 12 12 12 12 12 13 13 12 12 12 12 13 17 15 15 15 16 14 14 13 12 12 11 10 9 9 9
4 4 5 7 8 8 8 9 8 9 9 9 9 10 10 10 12 11 11 12 11 11 12 12 12 11 11 13 13 16 14 13 13 13 13 11 12 11 10 10 10 9 8 8
4 5 6 8 8 8 8 7 7 8 8 8 8 9 9 10 11 10 9 11 11 10 11 11 12 11 12 11 14 14 13 12 12 10 12 11 10 9 7 6 7 6 6 5
5 6 8 8 8 7 7 8 8 8 8 7 7 9 10 9 9 9 9 9 11 10 12 12 11 12 10 12 13 13 11 12 9 7 7 7 6 5 5 5 6 5 5 4
6 8 7 7 7 9 8 7 7 6 6 7 9 10 9 9 9 8 9 8 9 8 9 8 10 11 12 13 12 12 10 8 6 5 5 4 4 4 5 6 5 5 4 3
7 6 6 6 7 8 7 7 8 8 7 8 9 10 9 8 9 8 7 7 7 9 9 10 10 11 10 9 10 9 7 6 7 8 5 5 5 5 6 5 4 4 4 3
7 6 6 6 6 6 7 8 6 7 7 8 9 9 8 6 7 7 6 7 7 10 8 9 10 8 8 8 9 8 7 8 8 7 6 5 6 5 5 4 3 3 3 3
6 5 5 6 5 8 7 7 7 7 7 6 6 7 6 5 6 5 5 7 8 7 9 10 9 6 7 6 6 5 6 8 8 7 7 6 5 5 4 3 4 3 3 3
4 5 7 8 7 6 6 7 7 6 6 6 6 6 6 6 5 5 5 6 6 7 7 6 6 5 5 7 5 5 5 6 5 5 4 4 4 3 4 4 4 2 1 2
4 5 8 7 4 3 3 4 5 5 6 6 6 5 5 5 4 5 6 6 6 6 7 5 5 4 4 4 4 5 5 5 5 4 3 3 2 2 1 3 3 2 1 1
3 3 4 4 4 3 4 4 5 5 7 5 4 5 5 6 5 5 4 5 5 6 4 2 1 3 4 4 4 4 4 5 4 3 3 2 2 1 -0 0 1 1 0 -0
4 4 4 4 4 4 4 4 5 7 7 6 5 6 5 6 6 4 4 5 4 1 1 0 2 2 4 4 3 3 3 3 3 2 1 0 0 0 -1 -3 -2 -1 -2 -2

GFSNW_925_temp_033.txt.gz
Temp
5 5 6 6 7 9 9 9 10 8 7 9 8 9 10 12 11 11 10 9 10 10 11 11 10 12 14 15 14 13 12 12 12 12 13 14 14 15 16 17 19 17 16 18
5 5 5 6 7 7 8 10 9 8 9 10 9 9 10 11 11 11 9 9 10 10 11 11 11 13 15 14 14 13 12 11 13 14 14 13 13 15 17 16 17 18 16 17
5 5 5 5 6 7 10 9 10 9 9 9 10 10 10 10 11 11 9 9 9 10 11 11 12 13 15 14 14 14 14 14 13 14 14 16 15 16 17 17 17 17 17 17
5 5 5 5 6 7 10 9 10 10 10 10 10 10 10 10 11 10 10 9 10 10 12 11 11 13 15 15 15 13 13 12 13 12 13 14 17 17 17 18 18 18 18 18
5 5 5 5 6 8 9 9 9 10 10 10 10 10 11 11 12 10 9 9 10 10 11 13 13 14 15 15 14 13 13 14 14 15 16 18 18 18 18 18 19 19 19 20
5 5 5 5 5 6 9 8 8 11 11 11 10 10 10 11 12 12 11 10 10 11 11 13 14 16 15 16 15 14 14 14 14 16 15 17 17 18 18 18 19 19 18 20
5 5 5 5 5 7 8 9 9 9 11 12 12 12 12 12 12 12 12 10 11 13 13 13 14 15 17 16 16 15 14 14 15 15 16 15 18 19 18 18 19 18 20 21
5 5 5 5 5 6 7 9 10 10 11 12 12 11 11 12 11 11 12 11 13 12 13 12 13 14 16 13 13 14 14 14 15 14 14 16 19 19 18 18 18 18 18 19
5 5 5 5 5 6 8 9 10 9 10 11 12 11 12 11 11 11 11 11 12 13 13 12 10 13 12 12 13 14 14 14 15 13 13 15 18 18 18 19 17 16 17 16
5 5 5 4 5 6 7 9 10 9 9 10 11 10 11 11 11 10 10 12 13 13 11 12 12 13 13 13 14 13 14 14 14 14 14 13 17 18 17 18 17 15 16 15
5 5 5 4 5 6 8 8 9 10 9 10 11 10 10 10 10 11 10 12 12 12 13 13 12 13 14 13 13 13 13 13 14 14 14 14 17 17 18 16 15 13 11 11
4 4 5 4 5 6 9 8 9 9 9 10 9 11 11 11 9 10 9 10 11 12 13 12 13 14 12 12 14 13 14 14 13 14 15 15 15 16 16 15 15 12 10 10
4 5 5 4 5 6 9 8 8 8 8 9 9 9 11 10 9 10 10 9 10 11 9 11 12 14 12 13 13 14 15 13 14 14 15 14 14 15 15 14 12 10 10 10
4 5 5 4 5 6 8 8 8 9 9 10 10 11 10 10 10 9 9 9 9 10 9 11 12 13 11 13 13 14 14 13 14 14 14 14 14 14 12 10 10 9 9 9
4 4 4 4 5 6 8 8 9 10 9 11 10 10 11 11 10 9 8 9 9 10 12 12 12 11 12 11 12 13 13 14 14 14 14 15 14 11 11 11 10 9 9 8
4 4 4 4 5 7 8 8 8 9 9 10 9 10 11 11 10 9 8 9 9 11 12 12 11 11 12 12 13 15 14 14 15 16 13 12 11 10 11 10 9 9 8 8
4 4 4 4 6 7 9 9 9 9 8 9 8 9 9 10 10 9 10 10 10 10 11 11 11 11 11 12 12 15 13 12 11 11 12 11 11 10 9 9 8 7 6 6
3 3 4 5 6 8 8 8 8 8 8 8 7 9 9 10 10 9 8 9 9 9 10 10 11 10 10 10 13 12 11 10 10 10 11 10 8 7 7 7 6 6 5 5
3 4 5 6 8 7 7 7 8 8 9 8 7 9 10 9 8 9 8 8 10 8 11 10 10 11 10 12 12 11 10 11 8 6 7 8 7 6 5 5 5 5 3 3
5 5 7 7 7 8 8 8 7 6 6 7 8 9 9 8 9 8 8 7 8 8 9 8 9 10 11 10 11 11 9 7 7 7 5 5 5 5 5 5 4 5 4 4
6 6 6 6 7 8 7 7 8 8 7 8 9 9 8 8 9 8 7 7 7 9 9 10 9 10 9 8 9 7 6 6 7 6 5 6 6 6 5 4 3 3 3 2
7 6 6 6 6 5 7 7 6 7 8 7 8 8 8 7 6 7 6 7 6 9 7 8 9 9 7 7 7 5 5 6 5 5 5 5 5 5 4 3 2 2 2 2
7 6 6 6 5 7 7 8 6 7 6 5 5 6 6 5 4 3 4 6 6 6 8 8 8 6 6 5 5 5 5 5 5 5 5 5 4 4 4 2 1 2 1 2
4 4 7 7 7 7 7 5 4 4 5 6 6 5 5 4 5 4 3 7 5 5 6 5 5 4 4 5 4 4 4 6 5 5 4 3 3 2 2 1 1 1 0 1
3 4 7 6 3 3 3 3 5 4 6 6 5 4 4 2 3 4 5 6 6 5 6 5 3 3 4 4 3 4 4 4 4 4 3 3 2 1 -0 1 1 1 1 0
2 2 4 4 4 3 4 4 5 3 6 3 3 4 3 5 2 4 1 3 4 5 3 -0 -0 2 2 2 3 3 4 4 3 3 2 1 1 -0 -1 -0 -0 -0 0 -1
3 2 3 3 2 3 4 4 4 6 4 4 4 3 4 4 3 2 1 3 3 1 -1 -2 1 2 2 2 3 3 3 2 2 1 0 -1 -2 -2 -2 -4 -4 -2 -2 -2

GFSNW_925_temp_036.txt.gz
Temp
6 5 5 5 5 6 9 9 7 8 8 9 8 9 11 12 11 11 10 11 10 10 11 10 11 10 12 13 12 10 11 11 11 12 14 14 13 13 12 13 13 13 15 17
6 6 5 5 5 6 7 9 9 8 9 8 8 9 10 11 11 10 10 10 10 10 10 11 10 11 12 13 13 12 12 11 11 12 13 13 12 13 12 11 12 15 16 17
6 5 5 5 5 6 6 9 9 8 9 9 9 9 10 10 11 11 11 10 9 9 10 10 11 11 13 13 13 14 14 12 12 13 13 12 12 12 11 10 15 16 15 16
6 5 5 5 5 6 8 9 9 9 9 8 10 11 11 11 11 11 11 9 9 9 10 11 11 11 12 13 14 13 13 13 13 11 11 12 12 13 15 15 17 17 17 18
5 5 5 5 5 6 8 9 10 10 11 11 10 10 11 11 12 11 10 10 9 9 10 11 11 12 13 14 13 12 12 13 12 12 13 14 15 16 16 16 17 18 18 18
5 5 5 5 5 5 8 8 9 10 10 11 10 10 11 11 11 12 12 10 9 9 9 12 12 12 12 14 14 13 13 13 13 13 14 16 17 16 16 18 18 17 18 19
5 5 5 5 5 5 6 7 8 10 11 11 11 11 11 11 11 10 12 11 9 11 12 11 10 12 12 13 14 14 13 13 14 14 14 15 19 18 18 18 19 19 19 18
5 5 5 5 5 5 6 7 8 9 10 12 12 12 11 11 11 11 11 11 11 13 11 10 12 14 15 13 13 14 14 13 14 13 13 15 19 17 17 18 19 17 18 17
5 5 5 5 5 5 6 7 8 9 10 11 13 11 11 11 11 10 11 10 11 12 10 11 11 12 12 12 12 13 12 13 14 13 12 14 17 18 17 18 16 16 16 14
5 5 5 5 5 5 5 7 8 9 10 11 11 10 11 11 10 10 10 10 11 12 11 10 9 12 12 12 12 13 12 13 12 13 14 13 15 16 16 18 17 15 15 14
4 4 5 5 5 5 5 8 9 10 10 10 11 10 10 10 10 10 9 11 11 11 12 11 12 11 11 12 12 13 14 12 12 13 13 13 16 17 19 16 14 12 11 11
4 4 4 5 5 5 6 8 9 10 10 9 9 10 10 10 11 9 9 10 10 11 11 11 12 12 11 12 11 12 13 12 12 13 13 14 15 16 15 14 13 12 9 9
4 4 5 5 4 5 5 7 8 8 9 9 9 10 11 10 10 9 10 9 10 11 9 11 12 14 10 12 11 12 12 12 13 14 15 14 14 14 14 14 11 9 8 8
4 4 5 4 4 4 5 8 9 9 9 10 10 10 10 10 9 8 8 9 9 10 10 11 12 13 11 12 12 12 13 13 13 13 14 14 14 13 12 9 9 8 7 8
4 4 4 4 4 4 6 8 9 10 10 10 10 10 10 10 9 9 8 9 9 10 11 11 12 11 11 10 10 12 12 14 14 15 15 15 14 11 10 10 8 8 7 6
4 4 4 4 4 4 6 8 8 9 10 9 9 9 10 10 9 8 8 9 9 9 11 11 10 10 11 11 12 14 14 13 15 15 13 11 10 10 10 9 8 8 7 7
4 4 4 4 4 5 7 9 9 9 9 9 8 9 9 10 10 9 8 9 9 9 10 11 11 11 11 11 11 14 13 13 11 11 11 11 11 10 8 8 7 7 6 6
3 3 3 4 4 6 7 8 8 8 8 8 7 9 9 10 9 9 8 9 9 9 10 9 10 9 10 10 12 12 10 10 9 9 10 10 8 7 6 6 6 6 5 4
3 4 4 5 5 7 7 8 8 8 9 8 7 9 9 9 8 9 8 8 10 8 10 10 9 10 10 12 12 11 10 11 7 6 7 7 7 5 5 5 5 5 4 3
5 5 5 7 7 8 9 8 8 6 6 7 9 9 9 9 9 8 8 7 8 9 9 8 9 10 10 10 9 10 9 7 6 7 5 5 5 5 4 5 5 5 4 3
6 6 6 6 7 9 7 7 8 7 7 7 9 9 8 8 8 7 6 7 7 9 8 10 9 9 8 7 8 7 7 6 7 7 6 7 6 5 4 3 3 3 3 3
6 6 6 6 6 5 7 8 6 7 8 7 8 8 8 7 6 8 6 7 7 9 6 8 9 9 6 6 6 5 5 5 5 5 5 5 5 5 4 3 3 2 2 2
6 5 6 6 5 7 8 8 7 7 6 5 6 7 7 5 5 4 4 6 7 6 8 8 7 5 5 5 4 4 4 4 3 3 4 4 4 4 3 2 2 2 1 1
4 4 7 7 6 7 7 6 5 4 5 5 6 5 6 5 6 4 5 5 5 4 4 7 5 4 4 4 3 4 3 4 4 4 4 3 3 2 2 2 2 1 -0 0
3 4 7 6 4 3 3 2 5 4 5 5 5 5 4 2 3 3 5 6 6 5 7 5 2 3 3 3 2 3 3 3 4 4 3 2 1 1 -0 0 1 1 -0 -0
2 2 4 4 4 3 4 4 4 3 5 2 3 3 2 3 2 3 3 4 4 6 3 -1 -2 2 3 2 2 3 3 4 3 3 2 2 1 0 -2 -1 -1 -0 -0 -1
3 2 2 2 3 3 4 3 4 5 4 4 2 4 5 1 1 2 1 3 3 -0 -2 -3 -0 1 1 1 1 2 2 2 2 1 -1 -1 -2 -2 -2 -4 -4 -2 -2 -2

GFSNW_925_temp_042.txt.gz
Temp
5 5 6 6 6 5 5 7 7 8 8 8 5 8 10 11 10 10 10 11 10 10 10 10 11 10 10 10 9 9 11 10 9 9 12 12 12 12 12 11 11 12 12 13
5 5 5 6 6 6 5 7 8 8 8 7 7 9 10 10 10 10 11 10 11 11 10 10 11 12 12 11 9 9 11 10 8 9 11 11 11 12 13 11 11 11 11 14
5 5 5 5 5 5 5 6 8 6 8 8 9 9 10 9 10 10 10 10 10 10 10 10 10 11 12 11 11 12 12 11 9 9 11 12 11 11 11 10 11 12 12 13
5 5 5 5 5 5 5 6 7 7 7 7 10 11 11 9 10 11 11 10 10 10 10 10 10 10 10 11 11 12 11 10 10 11 12 13 11 11 11 11 11 11 14 13
5 5 5 5 5 5 5 8 8 8 9 8 9 10 9 10 10 10 10 9 11 11 10 11 11 11 10 10 10 10 10 10 12 12 13 11 11 11 11 11 11 11 12 12
4 4 5 5 5 5 5 6 6 9 9 9 9 9 10 11 11 11 12 11 11 10 11 11 11 10 10 10 11 10 10 10 12 12 12 11 13 13 14 11 11 11 12 13
4 4 5 5 5 5 5 5 6 9 9 10 10 11 11 10 10 11 11 11 11 11 10 9 9 9 10 9 9 10 11 11 11 12 12 14 14 13 14 14 15 12 14 16
4 4 5 4 5 5 5 5 6 9 10 11 11 11 11 11 11 11 11 11 11 9 9 9 10 10 10 10 11 10 10 12 12 12 13 13 16 15 14 14 16 15 16 14
4 4 4 4 5 5 5 5 6 8 10 10 11 10 11 11 10 10 10 10 9 9 10 9 11 11 11 11 12 11 10 12 12 12 13 13 16 16 15 15 14 14 14 15
4 4 4 4 5 5 5 5 6 7 9 10 11 10 10 11 10 10 9 9 9 10 10 9 9 12 11 11 12 12 11 12 12 11 13 12 13 13 13 17 16 14 14 15
4 4 4 4 5 5 4 5 7 7 8 9 11 10 10 9 10 10 9 9 10 10 11 11 9 10 11 11 12 12 11 11 10 11 13 11 13 14 17 14 13 12 12 12
4 4 4 5 4 5 4 5 6 7 8 9 9 10 11 12 10 10 8 9 9 11 10 9 9 10 9 10 11 11 12 11 11 11 12 13 13 14 14 12 12 11 10 8
4 4 4 4 4 5 4 4 6 8 9 9 9 10 10 10 9 9 9 9 9 9 8 8 9 12 9 10 10 11 11 10 11 12 13 12 12 13 12 10 10 7 6 6
4 4 4 4 4 4 4 4 5 6 8 9 9 9 9 9 8 8 9 8 9 9 8 9 10 11 10 11 10 10 10 10 11 11 12 12 12 12 10 7 7 6 6 5
3 3 4 4 4 4 4 4 6 7 8 10 10 9 8 8 8 8 8 8 9 10 10 10 10 10 11 10 10 9 9 11 12 12 13 14 14 11 8 8 7 6 6 5
3 3 3 4 4 4 4 7 8 9 8 9 9 9 8 8 8 8 8 8 9 9 10 11 11 10 11 11 10 12 10 11 12 14 13 11 9 9 9 7 7 6 6 5
3 3 3 4 4 4 4 7 6 7 9 9 8 8 9 9 8 8 8 8 9 9 10 10 10 10 10 10 9 13 11 11 11 11 10 12 10 10 7 7 6 6 4 4
3 3 4 4 4 4 5 7 8 8 8 8 7 8 9 9 9 9 8 9 9 9 10 9 10 10 9 9 11 11 11 9 8 9 9 10 7 6 5 5 5 5 4 3
4 4 4 4 4 5 7 8 8 8 9 8 7 9 8 9 8 8 8 8 10 8 10 10 9 10 10 11 11 11 9 10 8 6 6 6 6 5 5 5 5 4 3 3
6 5 5 6 6 7 8 8 8 7 7 7 9 9 9 8 8 8 8 7 8 9 9 7 9 10 10 10 9 9 9 7 6 7 5 4 4 5 4 5 4 4 3 2
5 5 6 6 7 7 7 7 8 7 7 8 8 9 9 7 8 8 6 7 7 9 8 9 8 8 7 6 7 6 7 6 7 8 8 7 7 5 4 3 3 3 3 2
4 4 4 6 6 6 8 8 6 8 8 7 8 8 8 6 6 7 6 8 7 9 5 8 9 7 6 5 5 5 5 6 7 6 5 5 5 4 3 3 2 1 1 1
5 4 6 6 5 8 8 9 8 7 4 5 6 7 7 6 6 6 6 7 8 5 7 8 6 5 5 4 3 3 4 4 4 3 3 3 3 4 3 2 2 2 1 0
3 4 7 6 7 7 7 5 4 3 4 5 6 5 6 6 6 5 7 5 5 7 5 5 4 4 4 3 2 3 3 2 2 2 2 3 2 2 2 2 2 1 0 -0
3 3 6 6 4 3 3 3 3 4 4 4 5 5 6 5 5 4 5 6 6 6 6 3 1 2 2 2 2 2 1 1 1 1 1 1 1 1 0 1 1 -0 -1 -1
2 3 3 3 3 4 4 4 4 3 4 3 4 5 6 6 5 3 4 4 5 6 2 -1 -5 1 1 1 1 1 0 0 1 1 1 1 1 0 -1 -1 -1 -1 -1 -2
1 -0 1 0 1 2 2 3 4 4 5 6 5 7 9 2 3 2 1 4 5 -0 -3 -4 -2 -1 0 -0 -0 -0 0 0 0 0 -1 -1 -1 -1 -1 -3 -4 -3 -2 -2

GFSNW_925_temp_045.txt.gz
Temp
5 5 5 5 6 6 5 5 7 8 9 8 6 8 8 10 10 10 10 10 10 10 10 10 10 10 10 10 9 10 11 10 10 10 11 11 11 11 11 10 10 11 12 12
5 5 5 5 5 6 5 5 7 7 8 7 8 8 8 10 10 10 11 10 10 10 10 10 11 12 11 10 9 9 11 10 9 9 10 10 11 11 12 12 11 11 11 14
5 5 5 5 5 5 5 4 7 6 7 7 8 9 9 9 10 10 10 9 10 10 10 11 10 11 12 11 10 11 12 10 8 10 11 11 10 10 11 10 11 12 12 13
5 5 5 5 5 5 5 6 7 7 7 8 9 9 9 9 10 10 10 9 10 10 9 10 11 11 11 11 11 11 10 10 10 11 11 11 11 12 11 10 11 11 14 14
5 4 4 5 5 5 4 5 7 7 8 9 9 9 9 9 9 10 10 9 10 10 10 10 11 11 10 11 10 11 10 10 10 11 13 13 11 11 11 11 11 11 11 11
4 4 4 5 5 5 4 4 5 7 8 8 9 9 9 10 10 10 10 10 10 9 11 11 11 10 10 10 10 9 10 10 11 11 13 12 12 12 13 12 12 12 12 12
4 4 4 5 4 5 5 5 5 7 9 9 9 10 10 10 10 11 11 10 10 10 10 9 9 9 10 10 10 10 11 10 11 12 12 14 14 13 13 14 14 12 12 13
5 4 4 4 4 5 5 5 5 7 9 10 10 10 11 10 10 10 11 11 11 10 9 9 9 9 9 9 9 10 10 10 11 12 12 14 15 12 14 14 15 13 14 14
4 4 4 4 4 5 5 4 5 7 9 9 11 10 11 10 10 10 11 9 9 9 9 9 9 9 10 9 10 9 8 10 11 11 12 13 15 15 14 12 15 14 14 14
4 4 4 4 4 5 5 5 5 6 8 9 10 9 10 11 10 10 10 9 9 9 9 10 10 11 10 10 11 11 10 10 11 12 12 12 13 14 13 15 16 14 13 13
4 4 4 4 4 4 5 5 6 6 8 9 10 10 9 10 10 10 9 9 8 9 9 10 10 9 9 11 11 11 11 11 11 11 12 11 14 14 16 14 13 13 12 11
3 4 4 4 4 4 5 5 5 5 7 8 9 10 11 11 11 10 8 9 9 9 9 8 9 9 9 10 11 10 11 11 10 10 11 12 12 13 13 12 11 11 9 9
3 4 4 4 4 4 4 4 4 6 8 8 8 9 9 10 11 11 9 8 9 9 8 9 9 12 9 10 9 10 10 9 11 12 13 11 12 12 11 9 9 7 7 6
3 4 4 4 4 4 4 4 4 4 7 8 9 9 9 9 9 9 9 9 9 9 8 9 9 11 9 9 10 10 10 10 11 10 11 11 12 10 11 8 6 6 5 5
3 3 3 3 4 4 4 4 5 5 7 10 10 9 8 8 8 8 8 8 9 9 10 10 10 9 9 9 9 8 8 10 11 12 13 13 13 11 8 8 7 6 5 5
3 3 3 3 3 4 4 6 7 7 6 9 9 9 8 7 8 8 8 8 9 9 10 11 10 9 10 11 11 11 9 9 11 14 12 10 9 9 8 7 6 6 5 5
3 3 3 3 4 4 4 6 6 6 7 9 8 9 9 8 8 8 8 8 8 9 10 10 9 9 10 10 9 13 11 10 11 11 10 11 9 10 7 6 6 5 4 4
3 3 3 4 4 4 4 7 8 7 7 8 7 8 9 9 9 9 8 9 9 9 9 9 10 9 9 10 10 10 11 10 9 9 9 9 6 6 5 5 5 4 4 3
5 4 5 5 4 5 6 7 8 8 8 8 7 8 9 8 8 8 8 8 10 8 10 10 9 10 10 11 10 11 9 9 9 6 6 6 6 5 5 5 4 4 3 3
5 5 4 5 5 7 7 8 8 7 7 7 8 8 9 8 8 8 8 7 8 8 9 8 9 10 9 9 9 8 8 8 6 7 5 5 4 5 5 5 5 4 4 3
5 5 5 6 7 7 7 7 8 7 7 8 9 7 9 6 8 8 6 7 7 9 8 9 9 8 7 5 6 6 6 6 7 8 8 6 6 5 4 3 3 3 3 2
3 4 4 5 6 6 7 7 6 7 8 7 8 8 8 6 6 5 6 8 7 8 5 8 9 8 6 5 5 5 5 5 6 6 5 4 4 4 3 3 2 1 1 1
5 4 5 6 5 8 8 8 8 7 6 5 6 7 7 6 6 6 6 8 8 6 7 8 6 5 5 4 3 4 4 4 3 3 3 3 3 3 3 2 2 1 1 0
3 4 7 7 7 7 7 5 3 2 4 5 6 5 6 6 6 6 8 6 6 7 6 5 5 4 4 3 2 3 3 3 2 2 2 2 2 2 2 2 1 1 0 -0
3 4 6 6 4 3 3 3 3 3 4 4 5 5 6 5 6 5 5 6 6 6 6 4 2 2 2 2 2 2 2 1 1 1 2 1 1 1 1 1 1 1 -0 -1
2 1 2 2 3 4 4 3 4 3 4 3 4 6 6 6 4 4 5 4 5 6 2 -1 -5 1 1 1 1 1 0 0 -0 -0 0 1 1 0 -1 -1 -1 -1 -1 -2
2 1 1 0 2 3 3 2 3 4 4 6 5 7 7 2 3 2 2 5 6 0 -2 -4 -3 -2 1 -0 -0 -0 -1 -1 -1 -0 -1 -2 -2 -1 -1 -3 -4 -3 -3 -3

GFSNW_925_temp_048.txt.gz
Temp
5 5 5 5 5 5 5 5 6 8 7 7 8 8 7 9 11 12 12 13 12 13 13 13 13 13 13 13 13 12 12 11 12 12 15 15 15 14 14 12 13 13 14 15
5 5 5 5 5 5 5 6 4 6 8 8 9 8 8 10 12 12 12 12 13 13 13 12 13 13 14 13 13 13 12 10 12 13 12 12 12 14 14 14 13 12 12 16
5 5 5 5 5 5 5 5 6 6 7 8 10 9 8 10 11 12 12 11 13 13 13 13 13 13 12 12 13 12 13 12 13 15 14 13 11 13 14 12 11 14 14 15
5 5 5 5 5 5 4 5 6 7 7 9 11 11 10 11 11 11 12 12 13 13 12 12 12 13 12 12 12 12 11 11 12 13 13 14 13 12 13 11 12 11 15 15
5 5 4 5 5 4 4 5 5 7 9 10 11 10 11 12 11 12 12 13 13 13 13 14 13 13 12 11 11 10 10 11 12 12 14 14 12 13 13 11 11 11 11 11
5 5 4 4 4 5 4 4 5 5 9 10 9 10 11 11 12 11 11 13 12 12 13 14 14 12 11 12 12 11 10 10 11 13 15 14 12 12 12 12 12 12 13 14
4 5 4 4 4 5 5 5 5 6 9 9 10 11 11 11 12 12 12 12 13 12 12 12 12 11 10 10 11 11 10 12 12 13 14 14 14 14 13 13 14 16 15 16
4 4 4 4 4 5 4 4 5 6 8 10 10 11 12 12 12 12 12 12 13 12 10 9 9 10 9 10 10 10 10 11 12 13 14 15 15 13 13 13 16 16 16 17
4 4 4 4 4 5 4 4 4 6 8 9 12 12 12 11 11 10 12 11 12 11 9 9 11 11 12 10 10 11 11 11 11 12 13 15 18 16 16 12 15 16 16 15
4 4 4 4 4 4 4 5 4 5 8 11 12 12 12 12 11 11 10 9 10 10 9 10 11 13 13 12 12 11 10 10 11 11 12 16 18 16 15 16 16 14 14 15
3 3 4 4 4 4 4 5 5 4 7 10 10 12 12 12 12 11 9 9 8 9 9 10 12 14 14 14 15 13 12 12 12 12 12 14 16 16 17 17 16 15 15 13
3 3 4 4 4 4 4 4 5 4 6 9 8 9 10 11 12 11 9 9 9 9 9 9 12 13 12 15 14 13 13 15 15 14 15 18 16 16 16 15 14 14 11 12
3 4 4 4 4 4 4 4 4 5 8 10 10 11 9 10 11 11 10 9 10 9 10 11 12 13 14 14 14 14 14 13 14 14 18 16 16 15 14 13 13 11 9 9
3 4 4 4 4 4 4 4 4 4 5 9 11 9 9 9 9 9 9 9 8 8 9 10 12 13 12 14 13 14 15 13 15 15 16 17 17 15 14 11 10 8 8 8
3 3 3 3 3 3 4 4 4 5 6 9 10 9 8 8 8 8 8 8 9 9 10 10 12 12 12 12 12 13 13 15 15 17 17 17 16 13 11 11 9 8 7 7
3 3 3 3 3 3 4 6 5 5 5 8 9 9 9 8 8 8 8 8 9 9 11 12 12 11 13 13 14 16 15 14 16 17 15 14 12 11 10 9 8 8 7 6
2 3 3 3 4 4 4 7 5 5 5 8 9 9 9 8 8 8 8 8 8 9 10 10 11 11 11 12 13 16 15 14 14 13 13 14 12 12 9 8 7 6 6 6
4 4 4 4 5 5 4 7 8 6 6 8 8 9 9 9 9 9 8 9 9 9 10 10 11 10 10 11 13 14 13 13 12 13 12 11 9 8 7 7 6 6 5 5
6 6 5 4 4 5 6 7 7 7 8 8 8 9 10 9 9 8 8 8 9 8 10 10 9 10 11 13 14 13 13 12 12 9 9 9 9 7 6 6 6 6 5 5
5 5 4 6 5 7 7 7 8 8 7 8 9 10 10 9 10 9 9 8 9 9 9 8 9 11 13 11 10 10 10 10 9 8 7 6 6 6 5 7 7 6 5 4
5 5 5 5 6 7 7 7 8 8 9 9 9 9 10 8 10 9 7 8 7 10 10 10 11 12 10 8 8 8 8 8 9 9 10 9 9 7 7 6 6 5 5 4
4 3 4 5 6 6 7 8 7 8 9 8 9 9 8 7 7 8 7 8 8 9 7 9 10 11 8 7 7 7 7 8 8 7 8 8 8 7 7 6 5 4 3 2
5 4 5 6 5 8 8 8 8 8 7 6 6 8 7 7 7 6 7 8 9 7 8 9 11 9 7 6 5 6 5 6 6 6 6 6 6 5 5 4 3 3 3 2
4 5 7 7 7 8 6 6 6 4 4 5 6 6 7 6 7 6 8 7 6 8 8 9 10 7 5 5 4 5 5 5 5 5 5 5 5 4 4 4 3 3 2 1
4 4 7 6 4 4 4 4 4 5 5 5 6 5 6 7 7 6 6 7 8 8 11 10 7 4 4 4 4 4 4 4 4 4 4 4 4 4 3 3 3 2 1 1
3 3 4 4 5 5 4 4 4 4 5 3 4 6 7 8 7 7 7 8 10 11 8 6 2 3 4 3 3 3 3 3 3 3 3 3 3 3 2 1 1 1 0 -0
3 3 2 3 3 4 4 3 4 4 4 6 5 7 9 4 5 6 6 8 8 5 5 2 1 1 3 2 2 2 2 2 2 2 2 1 1 1 0 -0 -1 -1 -1 -1

GFSNW_925_temp_054.txt.gz
Temp
5 5 5 5 5 5 5 5 6 6 7 6 7 9 10 9 9 11 13 15 15 13 13 13 14 14 15 16 16 14 14 15 11 11 14 14 13 13 13 10 10 10 9 11
5 5 5 5 5 5 5 5 5 7 7 7 8 9 9 9 9 11 14 14 15 15 14 13 14 15 15 16 15 14 14 12 12 14 14 15 14 14 14 13 12 9 10 12
5 5 5 5 5 5 5 5 6 6 6 6 8 10 8 9 10 12 14 14 16 14 14 14 13 13 14 15 14 14 14 14 12 12 14 13 11 13 14 12 10 11 12 13
5 5 5 5 5 5 5 5 6 6 6 8 8 11 9 10 10 12 14 15 15 15 14 15 13 13 13 14 13 14 13 12 13 13 14 14 14 13 13 12 12 12 13 13
5 5 5 5 5 5 5 5 5 5 8 10 11 11 10 9 11 11 14 14 16 16 15 16 14 14 14 12 12 12 13 12 13 12 14 14 12 13 13 13 13 13 13 13
4 4 4 4 4 5 5 6 5 5 8 12 11 12 12 11 12 12 14 15 15 14 14 14 14 15 15 15 13 12 10 10 12 11 14 14 12 14 14 14 15 14 13 14
4 4 4 4 4 4 5 5 5 6 9 11 12 13 14 11 12 13 14 15 14 13 14 14 13 12 12 13 13 13 11 10 12 9 12 12 15 15 14 13 14 14 13 13
4 4 4 4 4 4 4 5 5 6 7 8 12 12 13 13 13 12 14 14 13 13 11 11 11 10 10 11 12 12 12 12 12 10 11 14 16 15 14 13 15 15 14 14
4 4 4 4 4 4 4 5 4 5 6 10 10 12 13 12 12 12 12 12 12 12 10 11 12 12 13 10 10 11 11 11 10 11 11 13 17 17 16 14 14 15 14 15
4 4 4 4 4 4 4 5 4 4 6 7 11 12 12 13 13 12 12 11 11 12 10 10 11 13 16 11 12 10 10 10 10 10 11 12 16 16 14 14 15 15 13 14
4 4 4 4 4 4 4 4 4 4 5 6 10 12 12 12 12 12 10 10 10 10 10 10 11 11 14 14 14 10 11 10 10 11 11 10 16 15 15 15 16 16 15 13
4 4 4 4 4 4 4 5 4 4 4 6 8 9 11 11 11 11 11 11 11 11 10 9 11 12 14 13 14 13 11 12 11 11 11 14 17 17 16 16 15 15 14 13
4 4 4 4 4 4 4 4 4 4 5 8 9 11 11 11 11 11 10 9 10 9 10 10 11 12 12 13 13 13 14 14 13 14 14 15 16 15 16 15 13 11 11 11
4 4 3 3 3 3 4 4 4 4 4 8 11 11 11 10 10 10 10 11 9 9 9 9 10 11 12 13 14 14 14 14 14 13 14 15 15 14 13 11 11 10 10 10
3 3 3 3 3 3 3 4 4 4 5 8 9 10 10 9 9 9 9 9 9 9 9 9 10 11 12 12 12 12 13 13 13 14 16 15 14 13 13 11 10 9 9 9
3 3 3 3 3 3 3 5 5 5 4 6 9 10 10 9 8 8 8 8 9 9 9 9 11 12 13 11 12 15 15 14 15 15 15 14 13 12 11 9 9 8 8 7
2 2 3 4 3 3 4 5 4 4 4 7 8 9 9 8 8 8 8 8 8 9 9 10 10 11 11 11 11 15 15 15 16 15 15 14 12 11 9 8 7 7 7 7
3 5 5 5 4 4 4 6 6 5 4 7 8 9 10 8 9 9 7 8 8 9 9 10 10 10 11 10 12 13 15 14 14 13 14 11 9 8 7 6 6 6 5 5
4 5 5 5 4 5 6 6 6 5 6 8 8 8 9 8 9 8 8 8 9 8 9 10 10 11 10 11 13 12 12 12 12 10 10 11 9 7 6 6 5 5 5 5
5 5 5 5 6 6 5 5 6 5 7 7 8 10 10 9 10 8 8 8 8 8 9 8 9 10 11 10 9 10 10 10 11 10 10 9 6 6 6 6 6 6 6 5
4 5 5 5 6 6 7 7 8 8 8 9 9 9 9 8 9 9 7 7 7 9 8 9 9 10 10 8 8 8 8 8 9 10 10 9 8 7 7 7 7 6 5 4
3 3 3 4 5 6 7 7 7 7 8 8 8 8 8 8 7 8 7 7 7 9 7 9 9 10 8 7 6 6 6 7 8 8 8 9 9 8 7 6 6 5 4 3
4 4 4 6 6 7 8 8 8 8 6 5 5 7 7 8 7 6 7 8 8 7 8 9 9 7 6 6 5 5 5 6 7 7 7 9 8 7 6 5 5 4 3 3
4 5 7 6 7 7 7 7 6 5 5 5 6 6 6 6 7 6 8 7 6 9 9 8 6 4 4 5 5 5 5 5 5 6 6 6 6 5 6 5 4 4 3 3
4 4 7 6 5 5 4 4 5 4 4 5 5 5 6 6 7 6 6 8 9 8 8 5 3 3 3 3 3 3 4 4 4 5 5 5 5 4 4 4 4 3 2 1
3 3 5 4 5 4 4 4 4 4 5 4 4 6 6 7 7 7 8 8 7 6 3 2 1 2 2 2 2 3 3 3 3 4 4 4 4 3 3 3 2 2 1 0
3 4 3 4 4 5 4 4 4 4 4 6 5 7 6 4 7 7 6 5 3 1 0 0 1 1 1 1 1 2 2 2 2 3 3 3 4 3 2 -0 0 1 1 0

GFSNW_925_temp_057.txt.gz
Temp
5 5 5 5 5 5 5 5 5 6 6 6 6 6 9 10 8 7 9 11 13 12 12 12 12 12 13 13 14 13 14 12 10 11 13 13 12 11 11 7 8 6 6 10
5 5 5 5 5 5 5 5 5 7 7 5 6 8 8 9 7 9 12 13 14 13 13 11 14 13 15 14 14 12 13 11 11 12 12 13 12 12 13 12 11 6 7 10
5 5 5 5 5 5 5 5 6 5 5 6 7 8 8 9 8 10 13 14 14 12 12 12 12 13 14 14 14 14 14 13 10 9 11 12 11 12 13 12 9 9 8 12
5 4 4 5 4 5 5 5 6 6 5 7 7 7 8 8 10 11 13 14 13 12 11 12 13 12 12 12 13 13 12 10 12 11 12 12 12 12 12 10 11 11 12 12
4 4 4 4 4 5 5 5 6 5 6 8 9 9 9 8 10 11 13 13 14 14 12 14 13 13 12 11 12 12 11 11 11 11 12 12 11 12 12 12 12 11 12 12
4 4 4 4 4 4 5 5 5 5 7 9 9 10 8 9 11 12 13 13 12 12 12 12 13 13 13 11 10 10 10 10 11 7 12 11 10 12 12 12 12 13 12 14
4 4 4 4 4 4 4 5 4 6 8 8 10 12 11 10 11 11 13 12 12 12 12 12 11 11 10 11 12 11 10 10 11 8 10 10 13 14 14 13 14 14 14 15
4 4 4 4 4 4 4 4 4 5 7 8 10 12 11 11 12 12 11 12 11 11 11 10 10 10 11 11 12 11 12 11 10 8 9 12 13 13 13 13 14 15 14 15
4 4 4 4 4 4 4 4 4 4 6 7 7 11 12 10 11 11 11 11 10 10 9 11 11 11 11 10 11 11 11 10 10 10 10 11 15 16 14 13 13 14 14 14
4 4 4 4 4 4 4 4 5 4 5 6 8 10 10 12 12 10 10 10 10 11 10 10 11 12 13 9 10 9 10 10 10 9 10 10 13 14 14 14 14 15 13 14
4 4 4 4 4 4 4 4 4 4 5 5 6 9 11 10 10 10 9 9 9 10 10 10 11 10 13 11 10 9 10 10 10 10 9 9 14 14 14 15 15 16 13 13
4 4 4 4 4 4 4 4 4 4 4 5 6 7 9 9 11 9 10 10 9 10 9 9 9 10 11 11 11 10 11 10 9 9 10 12 14 14 15 14 13 14 14 11
4 4 4 4 3 4 4 4 4 4 4 6 6 9 10 11 11 11 9 9 10 9 9 10 10 9 10 10 10 11 12 11 11 11 13 12 13 13 13 11 12 10 10 11
4 4 4 3 3 3 3 4 4 4 4 6 10 10 10 10 10 10 11 10 9 9 9 9 9 10 10 11 11 12 12 11 11 11 12 13 13 13 12 11 10 9 9 10
3 3 3 3 3 3 3 3 4 4 4 7 8 8 9 9 9 9 9 9 9 8 9 9 10 10 11 9 10 10 12 12 11 11 13 13 14 12 12 10 9 9 9 8
3 2 3 3 3 3 3 4 5 4 4 5 8 9 8 8 8 8 8 8 9 8 9 9 10 11 11 11 12 12 12 11 12 13 14 14 12 11 10 9 8 8 7 7
3 3 3 4 3 3 3 5 4 5 4 6 8 8 9 8 8 8 8 8 8 8 9 9 10 10 11 11 10 13 12 14 14 14 14 13 11 11 8 7 7 7 6 6
3 4 6 5 4 3 3 5 5 4 4 6 7 8 8 8 9 8 7 8 8 8 9 10 10 10 10 11 10 10 11 12 10 10 10 10 7 6 6 5 5 5 4 4
4 4 5 4 4 3 5 5 6 5 5 7 7 8 8 8 9 8 8 8 9 8 8 10 10 10 10 10 10 10 9 10 10 10 9 8 8 6 5 5 4 4 4 4
5 4 5 5 5 5 5 5 5 5 5 6 8 9 9 8 9 8 8 8 7 8 8 7 9 10 9 8 7 6 6 7 8 9 10 9 6 5 5 4 4 4 4 4
4 4 5 4 5 5 6 7 7 7 8 8 8 8 9 8 8 9 7 7 6 8 7 8 8 9 8 5 5 5 5 5 6 6 8 9 7 6 5 5 5 5 5 3
2 2 3 4 5 6 7 7 6 7 8 8 8 8 8 7 7 8 7 7 6 9 7 8 9 7 5 5 5 5 4 5 5 6 7 8 9 7 7 6 5 5 3 3
3 4 4 5 5 7 8 8 8 7 6 5 5 7 6 7 6 6 6 8 8 6 8 9 7 5 4 4 4 4 4 5 4 5 6 8 6 6 6 5 4 3 3 3
4 4 6 6 7 6 7 6 6 3 4 5 5 6 6 6 7 6 8 7 6 8 8 7 4 3 3 3 3 3 3 3 4 4 5 6 6 5 5 3 3 3 2 2
4 3 6 6 4 4 3 3 4 4 4 5 5 5 5 6 7 6 6 8 8 8 8 4 2 1 1 1 2 2 2 2 3 3 4 4 4 4 3 3 3 3 2 1
2 3 4 4 5 4 4 3 4 3 4 3 4 6 6 7 6 7 8 8 8 5 2 0 -0 0 0 0 1 1 1 1 1 2 3 4 4 3 2 3 2 2 1 0
3 3 2 3 3 4 3 3 4 3 4 6 5 7 7 3 6 7 6 5 4 -0 -2 -2 -1 -1 -1 -0 -0 -0 -0 0 0 1 1 2 3 2 1 -0 -0 0 0 -0

GFSNW_925_temp_060.txt.gz
Temp
5 5 5 5 5 5 6 5 5 7 7 5 5 6 8 9 7 6 7 10 12 11 11 12 11 11 12 12 12 12 13 10 10 12 12 12 11 11 11 6 7 5 7 10
5 5 5 5 5 5 5 5 5 7 7 4 5 8 8 8 7 7 11 11 13 13 12 11 12 12 13 12 13 12 13 10 8 12 12 12 12 11 11 10 9 6 7 11
5 4 4 4 4 5 5 5 5 3 4 5 7 8 8 8 8 8 11 13 13 12 11 11 12 12 12 13 13 14 13 12 10 9 11 10 9 11 11 10 8 7 8 10
5 4 4 4 4 5 5 4 5 5 6 6 6 7 8 8 9 11 12 12 12 11 11 12 11 11 12 12 13 13 11 11 11 11 11 12 11 11 11 9 11 10 11 11
5 4 4 4 4 5 5 5 5 5 6 7 7 8 8 9 11 11 11 11 12 12 12 13 12 12 11 12 12 12 11 9 10 10 11 11 10 11 11 11 11 11 11 11
4 4 4 4 4 4 4 5 5 5 7 8 8 9 8 10 11 11 12 12 12 11 10 11 11 12 11 11 10 10 11 10 10 7 10 10 9 11 11 11 12 13 11 13
4 4 4 4 4 4 4 5 4 5 7 8 9 10 9 9 11 11 12 12 11 12 12 12 11 11 10 11 10 10 9 10 11 7 9 9 12 13 12 12 13 13 13 14
4 4 4 4 4 4 4 4 4 5 6 7 8 9 10 10 11 11 10 10 10 11 10 10 11 10 11 11 11 11 11 11 10 9 9 10 13 13 12 12 14 14 14 15
4 4 4 4 4 4 4 4 4 4 6 7 6 7 10 9 10 10 11 11 10 10 9 10 11 11 12 10 10 10 10 11 9 10 11 10 14 14 13 14 13 15 14 14
4 4 4 4 4 4 4 4 4 4 5 6 7 8 9 10 10 8 10 10 10 10 8 9 11 12 12 9 9 10 10 10 10 10 10 9 11 12 13 13 14 15 14 14
4 4 4 4 4 4 4 4 4 4 5 5 5 8 9 9 9 10 9 9 9 9 9 10 9 9 10 9 9 8 10 9 10 10 9 8 12 14 14 14 14 14 13 12
4 4 4 4 4 4 4 4 4 4 4 5 5 6 7 8 10 10 9 9 9 8 9 7 8 10 9 9 10 9 10 10 9 9 9 11 12 13 14 13 12 12 13 12
4 4 4 4 4 3 4 3 4 3 4 5 6 7 10 10 9 10 10 9 10 9 8 10 9 9 8 10 8 9 10 10 9 10 12 11 11 11 13 12 11 10 10 10
3 4 3 3 3 3 3 3 4 3 3 5 9 10 10 10 10 10 10 9 9 9 9 9 10 10 9 11 11 11 11 10 10 9 11 12 12 12 13 11 10 9 9 9
3 3 3 3 3 3 3 3 3 4 4 6 7 8 9 9 9 9 9 9 9 9 9 9 9 10 10 8 8 8 10 10 10 11 12 12 12 13 12 11 10 9 9 8
3 3 3 3 3 3 3 4 5 4 4 4 7 9 8 8 8 8 8 8 9 9 9 9 9 11 10 10 11 13 10 10 11 12 12 12 13 11 10 10 8 8 8 7
3 3 3 4 4 3 3 5 4 4 4 5 7 8 8 9 8 8 8 8 8 8 9 9 9 10 10 11 9 12 9 9 11 11 11 12 11 11 8 8 6 6 5 5
2 4 6 5 4 3 3 5 5 4 4 5 6 8 7 7 8 8 7 8 8 8 9 9 10 9 9 10 11 10 9 9 10 9 8 9 7 6 6 5 5 5 4 3
2 4 4 4 4 3 5 5 5 4 4 6 7 8 6 8 9 8 7 8 8 8 8 9 9 10 9 7 7 8 7 7 8 8 8 8 9 7 5 5 4 4 3 3
4 4 4 5 4 5 5 5 5 4 5 5 7 9 9 8 8 9 8 7 7 8 8 7 9 9 6 6 6 5 4 4 4 6 8 9 6 6 5 4 4 3 3 2
4 4 4 4 5 5 6 6 6 6 7 7 8 8 9 8 8 9 7 7 5 8 7 8 8 8 5 4 3 3 3 3 4 4 5 6 7 7 5 4 4 3 3 3
2 2 3 3 4 5 6 7 6 8 8 8 8 8 8 7 7 7 7 6 6 9 6 7 9 6 4 3 3 4 4 4 5 5 5 6 7 8 6 5 5 4 3 2
3 3 3 5 5 6 7 8 7 7 6 5 5 7 6 7 6 6 6 7 8 6 8 8 5 4 3 2 2 3 3 4 4 4 4 6 6 6 6 5 4 3 2 1
4 4 5 6 7 6 4 3 4 4 4 5 5 6 6 6 6 6 8 6 6 8 8 7 4 2 2 2 2 2 1 2 3 3 4 5 5 4 4 3 3 2 1 0
3 3 5 6 4 4 3 3 4 4 4 5 5 5 5 6 6 6 6 7 7 8 8 4 2 1 1 1 1 1 1 1 2 2 2 3 4 3 3 3 2 2 1 1
2 3 4 4 4 4 3 3 4 3 4 3 4 5 6 7 6 7 8 8 8 6 3 -0 -1 0 0 -0 -0 0 0 0 0 1 1 3 3 3 3 2 2 1 1 0
3 1 2 3 3 4 3 3 3 3 4 5 5 7 7 4 6 7 6 7 4 -1 -2 -2 -1 -1 -1 -2 -1 -1 -1 -0 -1 -1 -0 0 1 2 1 -0 0 1 0 0

GFSNW_925_temp_063.txt.gz
Temp
5 5 5 5 5 5 5 4 4 7 7 4 6 4 7 8 7 8 8 9 11 10 11 11 11 11 12 12 12 12 12 10 10 11 12 12 11 10 10 7 7 6 5 10
5 5 4 4 4 5 5 4 4 7 6 3 5 7 7 7 8 8 10 12 12 12 12 11 11 11 12 12 12 12 12 9 8 11 12 12 12 11 10 9 7 4 6 10
5 5 4 4 4 5 5 4 5 4 3 4 6 7 8 8 9 9 9 11 12 11 11 11 11 11 11 12 13 13 13 11 10 9 11 10 9 10 10 9 8 7 7 9
5 5 4 4 4 4 5 5 4 5 6 6 7 7 7 8 11 10 11 12 11 11 11 11 10 11 11 12 13 12 11 11 11 11 11 11 11 11 10 8 10 9 10 10
4 4 4 4 4 5 5 5 5 5 6 7 8 8 8 10 11 11 10 11 11 11 12 12 11 11 11 12 11 11 10 9 10 10 11 11 10 10 10 10 10 10 11 11
4 4 4 4 4 4 4 5 5 5 6 8 8 9 9 10 11 11 12 11 11 10 10 11 11 11 10 11 10 10 11 9 9 6 9 10 10 10 10 10 10 11 10 12
4 4 4 4 4 4 4 4 4 5 7 8 7 9 9 10 11 11 11 11 11 12 12 11 11 11 10 10 10 11 10 11 10 8 9 8 12 12 11 11 12 12 13 14
4 4 4 4 4 4 4 4 4 5 6 7 7 7 10 10 11 10 10 10 9 9 10 10 11 11 11 11 10 11 11 10 9 8 10 10 13 12 12 12 14 13 13 14
4 4 4 4 4 4 4 4 4 4 5 6 6 8 7 9 9 9 10 11 9 9 8 9 10 9 11 10 10 10 10 10 8 8 10 9 13 13 13 13 12 15 14 14
4 4 4 4 4 4 4 4 4 4 5 6 6 8 8 9 8 8 9 9 9 9 8 7 8 10 11 9 9 10 10 10 10 10 10 9 10 11 12 12 13 15 14 14
4 4 4 4 4 4 4 4 4 4 5 5 5 7 8 9 8 9 9 8 8 8 8 8 9 9 9 9 9 8 10 9 9 9 10 8 11 13 13 14 13 13 12 11
4 4 4 4 4 4 4 3 4 3 3 5 5 5 6 7 8 8 8 9 8 8 8 7 7 9 8 9 10 8 9 9 9 9 9 10 11 11 13 13 12 11 10 10
4 4 4 4 4 4 4 3 3 3 4 5 5 5 9 9 7 8 9 9 9 9 8 7 8 8 7 9 10 9 9 9 9 10 11 10 10 10 10 12 11 10 9 9
3 4 4 3 3 3 3 3 3 3 3 5 7 9 9 9 9 9 9 9 9 8 8 9 10 10 9 8 10 10 10 10 9 8 9 10 11 10 11 12 10 10 9 9
3 3 3 3 3 3 3 3 3 3 3 5 6 6 9 9 9 9 9 9 9 9 9 9 9 8 9 7 8 7 8 9 9 10 11 12 11 13 12 11 11 9 9 8
3 3 3 3 3 3 3 1 4 3 3 4 6 8 8 8 8 8 8 8 8 9 9 9 9 10 10 9 9 11 10 10 9 10 11 10 10 11 10 10 9 8 8 7
3 3 3 3 3 3 2 3 3 3 3 4 6 7 8 8 8 8 8 8 8 8 9 9 9 9 10 10 10 10 8 7 9 8 9 11 11 10 8 8 7 6 5 5
2 2 3 6 4 3 3 4 3 3 3 5 6 8 7 8 8 9 8 8 8 8 8 9 9 9 9 9 9 8 7 7 8 7 7 7 6 7 6 5 5 5 4 3
2 4 3 4 4 3 4 4 4 3 4 6 7 8 7 7 9 8 7 8 8 8 8 9 9 9 9 6 6 6 6 5 6 5 6 7 7 7 6 5 5 4 3 3
3 4 4 4 4 4 4 4 4 4 4 5 7 8 9 8 7 8 9 7 7 7 8 8 8 8 5 5 5 4 4 3 3 4 5 6 6 6 6 5 4 4 3 2
3 4 4 3 4 4 5 5 6 5 6 6 7 8 8 7 9 8 7 7 6 8 8 8 8 8 5 4 3 2 4 4 4 4 4 3 4 6 6 5 4 3 2 2
2 1 2 3 4 5 5 6 6 6 8 8 8 8 8 7 7 7 7 7 6 8 6 7 8 5 4 2 1 1 3 3 4 4 4 4 5 6 7 6 4 4 3 2
2 3 3 4 5 6 7 8 7 7 6 5 5 6 6 7 6 6 6 7 8 6 7 8 6 4 3 2 1 1 2 2 2 3 3 4 5 5 5 5 4 3 2 1
3 3 5 5 6 6 6 5 2 4 4 5 5 5 5 6 6 6 8 6 6 7 8 7 4 2 2 2 1 1 1 1 1 2 2 3 4 4 3 3 3 2 1 0
3 3 5 6 4 3 3 3 4 4 4 5 5 5 5 5 6 6 6 7 6 7 8 4 2 1 1 1 0 0 1 1 0 0 1 2 3 3 2 2 2 2 1 -0
2 3 3 2 4 4 3 3 4 3 4 3 4 5 6 7 6 7 8 7 7 5 2 -1 -2 0 0 -0 -1 -0 -0 -0 -0 -0 -0 0 1 1 2 2 1 1 1 0
2 2 2 2 2 4 3 3 3 3 4 5 5 6 7 4 6 6 6 7 5 -1 -3 -3 -1 -1 -2 -2 -2 -1 -1 -1 -1 -1 -1 -1 -0 1 1 0 0 1 0 -0

GFSNW_925_temp_066.txt.gz
Temp
5 5 5 4 5 5 5 4 2 7 6 3 5 6 7 7 8 8 8 9 10 10 11 11 10 11 12 12 12 11 11 10 11 11 12 11 11 10 9 7 7 5 4 9
5 5 5 4 4 5 4 4 3 6 6 3 5 7 8 8 9 9 9 11 11 11 11 11 11 11 11 12 12 12 11 9 10 11 11 11 11 10 10 8 7 4 7 11
5 4 4 4 4 5 5 4 4 3 3 4 6 7 8 9 10 9 10 11 11 11 10 10 11 11 11 12 13 13 12 9 10 8 10 9 9 10 9 9 7 7 6 10
5 4 4 4 4 5 6 5 5 5 5 7 7 7 7 9 11 10 10 11 11 11 11 11 10 11 11 11 12 11 11 10 11 11 11 11 10 10 9 8 9 9 10 8
4 4 4 4 4 5 5 5 5 5 6 7 8 9 10 11 11 10 10 10 10 11 11 11 11 10 11 12 11 11 9 9 10 10 10 10 10 10 10 10 10 9 10 10
4 4 4 4 4 4 3 5 5 5 7 8 7 8 10 10 11 11 11 11 10 10 9 10 10 9 9 10 10 9 10 9 9 7 9 10 9 9 9 9 9 10 9 11
4 4 4 4 4 4 4 4 4 5 7 6 7 7 9 10 11 11 10 10 10 11 11 11 11 10 9 9 10 10 10 10 9 8 9 9 12 11 11 10 11 10 12 13
4 4 4 4 4 4 4 4 4 5 6 6 7 7 9 10 10 10 9 10 10 8 10 10 11 11 11 10 10 10 11 9 9 7 7 10 13 11 11 12 14 12 12 13
4 4 4 4 4 4 4 4 4 4 5 6 6 7 7 7 8 9 10 10 9 9 8 9 11 9 11 10 10 10 9 8 7 6 8 9 12 12 12 13 12 14 13 14
4 4 4 4 4 4 4 4 3 3 5 6 6 7 8 8 8 8 8 8 9 9 7 7 8 9 10 9 9 10 9 9 9 8 7 9 10 11 11 12 12 13 13 12
4 4 4 4 4 4 4 3 4 3 4 5 5 6 7 8 8 8 8 8 8 8 7 7 8 9 8 8 8 9 9 9 9 10 9 8 11 12 13 13 14 13 12 11
3 4 4 4 4 4 4 3 4 3 3 4 5 5 5 6 8 8 8 8 8 7 7 6 7 8 7 8 9 8 8 8 8 8 8 10 11 11 12 12 12 12 10 10
3 3 4 4 4 4 4 4 3 3 1 3 5 5 7 7 6 7 8 8 9 8 6 6 7 9 6 9 10 8 8 8 9 10 11 9 10 9 9 10 10 11 9 9
3 3 4 3 3 3 3 3 3 3 2 4 5 8 8 8 8 7 7 8 8 8 8 8 9 10 7 8 8 8 8 8 9 8 9 10 11 11 10 12 11 10 9 8
3 3 3 3 3 3 3 3 3 3 3 4 5 5 8 8 8 8 8 8 8 8 9 9 9 8 9 6 7 6 7 8 8 9 11 11 10 11 11 11 11 10 9 8
3 3 3 3 3 3 2 3 3 3 3 3 5 7 7 7 8 8 8 8 8 9 9 10 9 9 9 8 9 8 9 8 8 9 8 8 8 8 10 10 9 8 7 7
3 3 3 2 3 3 3 2 3 2 3 3 5 7 8 8 8 8 8 8 8 8 9 9 9 9 10 9 9 8 7 7 7 7 8 10 8 8 5 6 6 6 5 4
3 3 3 3 5 3 3 3 3 2 2 3 5 7 7 8 8 8 7 8 7 8 8 8 9 9 9 9 8 6 6 5 6 6 6 5 5 5 6 5 5 6 5 4
2 2 4 4 3 3 3 3 2 2 3 5 6 8 8 7 8 8 7 7 8 7 8 9 9 9 9 7 6 6 4 4 5 4 5 6 6 7 6 6 5 5 4 3
3 4 4 4 3 3 3 4 3 3 4 4 6 8 8 8 8 7 8 7 8 7 8 8 8 8 5 5 4 4 3 4 4 4 4 4 4 5 5 5 4 3 4 3
3 3 3 3 3 3 4 4 5 5 6 6 7 6 8 7 8 8 7 7 6 8 8 8 8 8 5 4 3 2 2 3 3 4 4 4 4 3 4 5 5 3 3 2
2 1 1 1 4 4 4 5 6 6 7 7 8 8 7 7 7 7 7 7 6 7 6 7 8 5 3 2 1 1 1 2 2 3 3 4 4 3 4 5 5 4 4 3
2 2 2 3 4 5 7 7 7 7 6 5 5 6 6 6 6 6 6 7 8 6 7 8 6 3 2 2 1 1 0 1 1 2 2 3 3 4 4 5 4 4 3 2
3 3 5 5 6 6 6 5 4 4 4 5 5 6 6 6 6 7 7 7 6 6 6 6 4 2 2 1 1 1 1 1 1 1 1 2 2 3 3 3 3 3 2 1
3 3 5 5 4 4 3 3 4 4 4 5 5 4 5 6 6 6 6 7 6 7 7 4 2 1 0 0 -0 -0 0 -0 -0 -0 -0 -0 -0 1 2 1 2 2 1 0
2 2 3 2 4 4 3 3 4 3 4 3 3 5 5 6 6 7 7 7 5 5 2 -1 -1 0 -0 -1 -1 -1 -1 -1 -1 -1 -1 -0 -1 -0 -0 -0 0 1 1 0
2 2 2 2 2 3 3 3 4 3 4 3 5 5 6 4 6 6 6 7 4 2 -3 -3 -2 -1 -2 -2 -2 -1 -2 -2 -2 -2 -2 -2 -1 -0 -0 -1 -1 -1 -0 -1

GFSNW_925_temp_069.txt.gz
Temp
5 5 5 5 5 5 5 3 3 7 7 5 3 6 7 7 8 9 9 9 10 10 10 10 10 11 12 12 12 10 10 10 10 10 11 11 11 10 10 9 9 6 7 12
5 5 4 4 4 5 4 4 4 7 6 6 6 7 8 8 10 10 9 11 11 11 10 10 10 11 11 12 12 11 11 9 10 10 11 11 11 10 10 8 8 7 10 13
5 4 4 4 4 4 5 2 3 3 4 5 6 7 8 9 10 9 9 10 11 11 10 10 10 10 11 11 12 12 11 9 10 10 11 10 10 10 10 10 9 9 8 11
5 4 4 4 4 5 5 3 2 5 6 7 7 7 8 9 9 9 9 11 10 11 11 10 10 10 11 11 11 11 10 9 10 10 10 10 10 10 9 9 9 11 11 9
4 4 4 4 4 5 5 5 5 5 6 6 8 8 10 10 10 9 10 9 9 10 10 10 10 10 11 12 10 10 9 9 10 10 10 10 10 10 10 10 10 9 9 10
4 4 4 4 4 4 3 4 5 5 7 7 7 7 8 10 11 11 9 10 9 9 9 9 10 10 9 10 10 9 9 9 9 8 9 10 9 10 9 9 9 10 10 11
4 4 4 4 4 4 3 4 3 5 6 6 6 7 8 10 10 11 10 9 10 11 9 10 11 9 9 9 9 10 10 9 9 9 9 9 11 11 11 11 11 10 12 13
4 4 4 4 4 4 3 3 4 5 5 6 7 6 8 9 10 9 9 9 9 8 10 10 10 10 11 11 10 9 11 9 9 9 8 10 11 10 10 11 13 12 11 12
4 4 4 4 4 4 4 4 3 3 5 6 6 6 7 7 7 9 10 10 8 9 8 9 10 8 11 11 10 10 10 8 8 7 9 10 12 12 12 12 13 13 12 13
4 4 4 4 4 4 4 4 3 3 5 6 6 6 7 8 7 7 7 8 8 9 8 8 8 9 10 9 9 10 9 9 8 8 8 9 10 11 11 12 12 13 13 12
3 3 4 4 4 4 3 3 3 3 4 4 5 6 6 7 8 8 8 8 8 7 7 7 8 9 8 8 8 8 8 9 9 10 8 9 10 11 13 12 13 13 12 12
3 3 3 4 4 4 3 3 4 3 2 3 4 4 5 6 7 7 7 8 7 7 7 6 6 8 6 7 9 7 8 8 8 8 9 10 10 11 12 11 11 12 11 11
3 3 4 4 4 4 3 3 3 3 2 2 2 4 7 6 5 6 7 7 8 8 7 6 6 9 6 9 9 8 8 7 8 9 10 9 10 10 9 10 9 10 10 9
3 3 4 3 3 3 3 3 3 3 2 2 5 7 6 7 7 6 6 7 8 7 7 7 8 10 6 8 8 7 8 7 8 8 9 10 10 10 12 11 10 10 9 9
3 3 3 3 3 3 3 3 3 3 3 4 3 4 7 7 7 6 6 7 8 8 9 9 9 8 9 5 6 6 6 8 8 9 10 10 9 9 8 9 9 9 8 8
3 3 3 3 3 3 2 2 2 3 3 3 4 6 7 7 7 7 7 7 8 8 9 10 9 9 9 7 9 8 7 7 7 8 7 7 7 8 6 6 8 7 7 7
3 3 3 3 2 3 2 2 2 2 2 3 4 6 7 8 8 8 8 8 8 8 9 9 9 9 9 9 8 8 6 6 6 6 7 9 8 7 5 5 5 5 5 5
3 3 3 3 3 4 3 2 3 2 2 2 4 7 7 7 8 8 7 7 7 8 8 8 9 9 9 9 8 6 5 4 5 4 4 4 4 4 5 6 4 6 4 4
3 3 3 3 3 3 3 4 3 2 2 4 5 7 6 7 8 8 7 8 8 8 8 9 8 9 9 8 7 6 5 4 4 3 4 4 5 5 5 5 5 5 4 4
4 3 3 3 3 3 3 2 3 2 2 3 5 7 8 7 8 8 8 7 8 8 8 7 8 8 5 5 4 4 3 3 3 4 4 4 4 3 4 4 4 5 4 3
3 2 3 2 2 2 2 4 4 4 5 5 6 5 8 6 8 8 8 6 6 8 7 8 8 8 5 4 3 2 2 2 3 3 3 2 3 3 3 3 4 5 4 3
2 1 1 1 3 3 4 5 5 5 6 7 7 6 6 6 7 7 7 7 6 7 6 7 8 5 3 2 2 1 -0 2 2 2 3 3 3 3 4 3 4 5 5 4
2 1 2 3 3 5 6 7 7 7 6 5 5 6 7 6 6 6 6 7 7 6 7 7 6 3 2 1 1 1 2 1 1 1 1 1 2 3 3 3 3 3 3 3
3 3 4 4 5 6 6 5 5 4 4 5 6 6 6 6 6 6 7 7 6 7 6 7 3 2 1 0 0 0 0 -0 0 0 0 0 0 1 2 2 2 2 2 2
3 3 4 4 4 4 3 3 3 4 4 4 4 4 5 6 6 6 6 7 6 7 7 5 2 1 0 0 -0 -0 -1 -1 -1 -1 -1 -1 -1 -0 -0 -0 0 1 1 1
1 2 3 2 3 4 3 3 3 3 4 3 3 5 6 6 6 7 7 7 7 6 3 1 -0 0 -1 -1 -1 -1 -1 -1 -1 -1 -1 -1 -1 -1 -1 -1 -1 -1 -1 -0
-0 0 2 2 2 3 3 3 3 2 4 5 4 5 4 4 5 6 5 4 3 1 -1 -2 -1 -1 -2 -2 -2 -2 -2 -2 -2 -2 -2 -2 -2 -1 -1 -2 -2 -2 -2 -1

GFSNW_925_temp_072.txt.gz
Temp
5 5 5 5 5 5 5 5 9 7 7 9 8 8 7 8 10 10 10 10 13 13 13 13 14 13 12 13 14 14 13 15 12 12 13 14 14 14 14 15 13 11 13 17
5 5 5 4 4 5 4 5 6 8 7 8 8 9 9 9 11 11 11 13 13 13 13 13 14 13 13 13 14 15 14 14 12 12 13 13 13 13 13 13 12 12 15 17
5 5 4 4 4 4 4 6 7 8 8 6 7 8 9 10 11 12 12 12 13 14 14 14 13 13 13 13 13 12 14 13 14 15 14 13 12 13 13 13 13 14 15 16
5 4 4 4 4 6 5 6 6 6 7 8 7 8 9 10 10 12 13 14 13 13 13 13 13 12 13 14 13 13 15 13 13 12 13 13 12 12 12 11 14 15 15 16
5 4 4 4 4 6 6 5 5 5 6 8 8 8 9 11 12 12 12 12 12 14 13 12 13 13 13 14 14 14 13 13 13 12 12 12 12 12 12 12 13 13 13 14
4 4 4 4 4 4 4 4 5 5 8 8 8 7 7 10 12 12 11 12 13 12 11 11 12 13 13 13 13 13 13 13 14 12 12 12 12 13 12 12 13 14 13 15
4 4 4 4 4 4 3 3 3 5 7 7 6 6 7 9 11 12 11 12 13 12 11 12 14 14 13 13 13 13 13 13 13 13 13 13 13 12 13 13 14 13 14 15
4 4 4 4 4 4 4 3 4 5 5 7 7 6 7 9 11 11 11 11 11 11 12 13 13 13 13 13 12 13 14 13 12 13 13 13 13 12 13 13 14 14 14 15
4 4 4 4 4 4 4 3 3 4 5 7 6 6 6 8 10 12 11 11 11 11 12 12 12 12 13 12 12 12 13 13 13 11 12 13 14 13 13 13 13 15 14 15
4 4 4 4 4 4 4 4 3 3 4 7 6 6 6 7 9 10 10 10 11 10 12 12 12 12 12 12 12 12 11 11 12 12 11 13 14 13 12 14 14 14 15 15
3 3 3 3 4 4 3 4 3 3 4 5 6 7 6 6 8 8 10 11 10 11 12 12 12 12 12 11 11 11 11 11 11 11 11 12 13 13 13 15 15 15 15 14
3 3 3 4 4 4 3 3 3 3 3 5 4 5 5 6 6 6 8 9 10 10 11 10 11 12 10 11 13 10 12 13 13 13 14 13 13 13 14 13 14 14 13 13
3 3 4 3 3 3 3 3 3 3 3 4 4 5 6 5 5 6 7 9 9 10 9 10 10 11 11 12 13 11 11 11 12 11 13 13 14 14 13 13 13 12 13 12
3 3 3 3 3 3 3 3 3 3 3 3 6 7 6 6 6 5 6 7 8 8 9 10 10 11 10 12 11 12 12 11 12 12 13 14 13 12 12 12 12 12 11 11
3 3 3 3 3 3 3 3 3 3 3 4 5 5 6 6 7 5 5 6 7 8 10 10 11 10 10 9 10 11 11 13 13 14 13 12 13 11 10 11 11 10 10 10
3 3 3 3 3 3 2 3 2 2 2 3 4 6 6 6 6 6 6 6 7 9 10 11 11 10 11 11 11 13 11 11 11 12 10 10 11 10 9 9 9 9 9 8
3 3 3 3 3 3 1 2 3 2 2 3 4 5 7 7 7 7 8 8 8 9 10 10 11 11 11 11 11 13 11 10 9 9 8 10 9 9 8 8 8 7 7 7
3 3 3 3 3 3 2 2 3 2 2 2 4 5 7 7 8 9 9 8 8 9 9 9 9 9 9 9 10 9 8 8 8 7 6 7 6 7 8 7 7 8 8 8
3 3 3 3 3 3 2 3 2 2 2 3 4 7 8 8 8 8 8 9 8 9 9 9 9 9 9 10 10 9 6 6 6 5 5 6 7 6 6 6 6 6 8 7
4 3 3 3 2 2 3 2 2 2 2 2 4 6 8 8 9 9 9 8 8 8 8 8 8 8 7 6 5 5 4 5 4 4 5 5 4 5 5 5 6 6 7 7
3 2 3 1 2 2 2 3 3 3 4 4 5 6 7 7 8 8 8 7 7 8 8 8 8 9 6 5 4 3 3 2 3 3 3 4 4 5 5 5 6 6 6 6
2 1 1 0 2 3 4 5 5 5 6 6 7 7 7 7 7 7 7 7 6 8 7 7 8 6 4 4 3 2 2 3 3 3 3 3 3 4 4 4 5 5 5 5
1 1 2 3 3 5 5 7 7 7 6 5 6 6 7 7 7 6 6 7 8 6 8 8 8 4 3 3 2 2 2 2 2 2 1 1 2 2 2 3 3 3 4 3
2 3 4 4 5 5 6 6 5 4 3 4 6 6 6 6 6 6 7 7 6 8 8 9 6 4 3 2 1 1 1 0 0 0 0 -0 -0 0 0 0 1 2 2 1
2 3 4 5 4 3 3 2 3 3 2 4 5 5 6 5 6 6 7 8 8 8 9 7 4 3 2 1 1 0 -0 -0 -0 -1 -0 -1 -1 -1 -1 -1 -1 -1 -0 0
1 2 2 4 3 4 3 3 3 1 2 4 4 5 6 7 7 7 8 8 8 8 5 3 2 1 1 0 1 0 -0 -0 -0 -0 -1 -1 -1 -1 -1 -1 -2 -2 -1 -1
-1 1 2 2 2 3 3 3 2 1 3 5 5 6 6 5 7 7 7 8 7 4 1 1 1 0 0 -0 -0 -1 -1 -1 -1 -1 -1 -1 -2 -1 -1 -1 -2 -3 -2 -2

GFSNW_925_temp_075.txt.gz
Temp
5 5 5 5 5 5 6 8 10 9 8 10 10 10 9 9 11 11 11 12 15 15 16 16 15 14 15 15 16 16 16 16 13 13 14 14 14 15 15 15 15 14 15 17
5 5 5 5 5 5 5 9 9 10 11 9 9 12 12 11 12 13 14 15 15 16 16 15 15 15 15 15 16 16 17 15 13 13 15 15 15 15 16 15 14 13 17 17
5 5 5 4 4 5 6 8 6 10 11 7 7 8 11 12 13 14 14 15 16 16 16 16 15 15 14 15 15 13 16 16 16 16 15 16 14 15 15 15 15 15 17 16
5 5 4 4 4 6 7 8 7 6 8 9 9 9 11 12 13 15 15 15 15 15 15 16 15 15 15 16 14 16 17 15 15 15 15 15 14 14 15 12 16 16 17 17
5 4 4 4 4 6 7 6 5 6 6 9 10 9 10 10 13 13 14 14 15 16 14 14 15 15 16 16 16 16 16 15 15 14 14 14 13 14 14 15 15 15 16 16
4 4 4 4 4 5 7 5 5 5 8 10 9 7 7 9 12 14 13 13 15 13 12 13 14 15 15 15 16 15 16 15 15 13 14 13 13 14 14 15 15 16 15 17
4 4 4 4 4 4 5 5 4 6 7 8 8 7 7 9 11 13 13 14 14 13 14 14 16 16 15 15 15 15 15 15 15 15 14 14 14 14 15 15 15 16 16 16
4 4 4 4 4 4 5 4 5 5 6 8 9 7 7 8 12 13 13 13 13 13 14 14 14 14 15 14 15 15 16 15 14 14 16 15 14 13 14 14 15 16 15 16
4 4 4 4 4 4 5 4 3 6 4 8 8 7 6 8 9 13 13 14 13 14 14 14 14 14 14 13 13 15 15 15 15 13 14 15 15 14 15 14 14 16 16 15
4 4 4 4 4 4 4 5 3 5 6 9 8 7 6 6 8 10 12 12 13 13 14 14 14 15 14 14 14 14 14 14 14 14 14 15 15 15 14 14 14 16 16 15
4 3 3 4 4 4 4 5 3 4 5 6 7 8 7 7 8 8 9 11 12 13 13 13 14 14 14 14 14 13 14 14 13 14 13 13 15 14 14 15 16 16 16 15
4 3 4 4 4 4 4 4 4 3 3 5 6 6 6 7 8 6 7 8 11 12 13 13 13 14 13 14 15 13 14 14 15 14 15 14 15 15 15 15 15 15 15 15
3 3 4 3 3 3 3 4 4 3 3 6 7 8 8 6 6 7 7 10 10 11 11 12 13 13 13 14 14 14 14 13 14 13 15 15 15 15 15 14 14 14 14 13
3 4 3 3 3 3 3 3 4 3 4 4 7 8 8 7 7 6 7 9 7 8 10 11 12 12 12 13 13 13 14 13 14 14 15 15 15 14 13 13 13 13 13 12
3 3 3 3 3 3 3 3 3 3 4 5 6 6 8 8 7 7 7 7 8 7 9 11 12 12 12 12 12 13 13 14 14 15 14 14 15 13 12 13 12 12 11 12
3 3 3 3 3 3 3 3 3 3 3 3 4 8 8 8 8 7 7 6 7 7 10 10 12 12 12 12 12 15 14 14 15 14 12 12 12 12 11 11 11 11 11 11
3 3 3 3 3 3 2 3 3 3 2 3 4 6 8 8 8 7 7 7 8 8 10 11 12 12 11 12 11 14 14 14 12 11 11 12 10 10 9 10 10 10 10 10
3 3 3 3 3 3 2 3 2 2 2 3 3 6 6 8 8 9 8 8 8 8 9 10 11 11 10 9 11 13 12 11 10 10 9 9 9 9 9 9 9 9 10 10
3 3 3 3 3 4 3 2 2 2 2 4 4 5 8 8 8 9 8 9 8 9 9 10 11 11 9 10 11 12 10 8 8 6 6 7 8 8 8 8 7 8 8 9
3 3 4 4 2 2 2 2 2 2 2 3 3 6 5 7 8 8 8 8 9 8 9 9 8 9 11 8 7 6 6 5 5 6 7 6 6 6 6 7 7 7 7 8
3 3 4 1 2 2 2 3 3 4 4 3 4 6 6 7 8 8 9 7 7 8 9 9 9 10 7 6 5 4 4 4 4 4 4 5 5 5 6 6 7 6 7 7
2 2 1 1 2 3 3 5 5 4 6 6 6 7 6 7 7 7 6 7 6 9 7 8 9 8 5 5 4 4 4 4 4 4 4 4 4 4 4 4 4 4 4 6
1 2 2 3 3 4 5 6 6 6 5 4 5 6 8 7 7 6 6 8 8 7 8 9 9 6 5 5 4 3 3 3 3 3 2 2 2 2 2 2 2 2 3 4
3 3 4 4 5 5 6 5 5 4 3 3 4 4 6 6 6 6 7 7 6 8 9 9 6 5 5 4 2 2 2 1 1 1 1 1 0 0 0 -0 -1 0 1 1
2 2 4 5 5 4 3 3 3 3 2 2 4 4 5 5 6 6 7 7 9 9 9 7 4 4 4 2 2 1 1 0 0 -0 -0 -0 -1 -0 -0 -1 -2 -2 -1 -1
1 2 2 4 4 5 4 3 3 2 2 2 3 5 6 7 7 7 8 8 9 8 6 4 3 2 3 2 2 2 1 1 1 1 -0 0 0 0 -0 -1 -2 -2 -2 -2
-0 2 3 2 3 3 4 3 3 2 3 5 5 7 7 6 7 7 7 8 8 6 3 2 2 1 1 2 1 1 0 0 0 -0 -1 -1 -1 -0 0 -0 -1 -1 -2 -2

GFSNW_925_temp_078.txt.gz
Temp
5 5 5 5 5 5 6 8 9 11 10 8 10 9 11 10 11 11 11 12 15 15 16 15 14 13 14 15 15 14 13 12 12 11 12 13 14 12 13 13 13 12 12 12
5 5 5 5 5 5 5 8 9 11 11 8 8 10 12 13 13 13 14 15 15 16 16 14 15 14 15 16 14 14 16 13 12 11 11 12 13 13 13 14 12 13 13 13
5 5 5 5 5 6 6 8 6 8 10 7 8 8 11 11 13 14 15 15 16 16 16 16 15 14 14 15 15 13 14 15 14 13 14 13 13 14 13 13 12 14 14 14
5 4 4 4 5 7 8 7 6 5 7 9 7 9 10 10 12 14 15 15 15 15 15 15 15 15 15 16 16 16 15 13 13 14 14 15 14 14 14 10 13 13 16 15
5 4 4 4 5 7 7 5 5 6 6 9 9 8 9 8 11 12 14 13 15 14 13 13 14 14 14 14 16 16 15 13 14 13 14 14 13 14 14 14 14 15 15 15
5 4 4 4 4 5 7 6 6 5 8 9 8 7 7 8 9 12 14 13 14 13 12 12 14 15 15 15 14 14 14 13 14 10 14 13 11 13 14 14 15 14 13 15
5 5 4 4 4 5 5 5 5 5 7 8 7 7 6 8 8 10 13 13 14 13 13 13 14 15 15 14 14 15 14 14 14 10 13 11 13 13 14 14 15 15 15 15
5 5 4 4 4 4 5 5 5 5 4 7 8 7 6 7 9 12 13 13 12 12 12 13 14 13 14 14 14 14 14 14 12 10 12 13 13 13 13 13 14 15 15 15
5 4 4 4 4 4 4 5 4 5 5 8 8 7 6 7 7 9 13 13 13 13 12 13 12 11 14 13 14 15 14 14 11 10 12 13 13 14 15 14 13 15 15 14
5 4 4 4 4 4 4 5 4 4 5 7 7 6 6 6 6 7 10 10 11 13 12 12 12 13 14 13 14 14 12 12 11 12 10 13 13 14 14 13 13 14 15 14
4 4 4 4 4 4 4 4 5 4 4 5 6 8 6 7 5 7 7 9 10 11 11 11 12 12 12 12 13 13 12 11 11 11 12 11 14 13 13 14 14 15 15 14
4 4 3 4 4 4 4 4 4 4 3 4 5 5 5 5 7 6 7 8 9 10 10 10 11 12 12 12 12 12 12 12 11 12 12 13 13 13 13 13 13 13 14 13
4 4 4 4 4 4 3 3 3 4 4 5 6 7 8 7 6 6 6 9 8 10 9 9 10 11 11 11 11 12 13 13 11 12 13 14 14 12 13 13 12 12 12 12
3 3 4 3 3 4 3 3 3 3 3 3 6 8 8 8 7 6 6 7 7 7 8 9 10 11 11 11 11 11 11 12 13 12 14 13 12 11 11 12 11 11 12 11
3 3 3 3 3 3 3 3 3 3 3 4 4 5 6 7 7 7 7 7 6 7 8 9 10 11 10 11 10 10 11 12 11 11 11 12 11 10 10 10 10 10 10 10
3 3 3 3 3 3 3 3 3 3 3 3 3 7 7 8 8 7 7 7 6 7 8 9 9 12 11 9 11 13 13 13 12 11 11 10 10 10 8 9 9 9 8 9
3 3 3 3 3 3 3 3 3 2 2 3 3 4 7 7 8 7 7 7 7 7 9 9 10 11 10 10 9 13 13 12 10 9 10 10 8 8 7 8 8 9 9 9
3 3 3 3 4 3 3 3 3 2 2 2 3 3 6 7 7 8 7 7 7 8 8 9 9 10 10 9 10 10 10 9 10 8 7 7 8 8 8 8 7 7 7 7
3 3 4 3 4 4 3 2 2 2 2 3 4 4 5 4 8 8 8 8 7 8 8 9 9 10 9 10 10 10 9 8 7 6 7 7 7 7 6 6 6 6 6 6
3 4 4 4 2 3 2 2 2 2 2 2 3 5 5 4 7 7 7 8 8 8 8 8 7 8 9 6 5 4 4 4 5 6 7 6 5 5 5 6 6 5 5 5
3 3 2 2 2 2 3 3 3 4 3 3 4 4 5 6 6 7 8 7 7 8 8 8 8 8 7 5 4 4 4 4 4 4 4 5 5 5 5 5 5 5 5 5
2 1 2 1 2 2 3 4 4 4 5 5 5 5 4 5 6 6 6 7 6 8 7 8 8 7 5 5 4 4 4 4 4 4 4 4 3 3 3 3 3 3 3 3
2 2 2 2 3 3 4 6 6 5 4 3 3 4 5 6 6 6 6 7 8 7 7 8 8 4 4 4 3 2 3 3 3 2 2 2 1 1 1 1 1 1 1 2
2 1 0 4 5 5 5 4 4 4 3 3 3 3 4 6 6 5 7 7 6 7 8 7 4 4 4 3 2 3 1 1 1 0 0 0 0 0 -0 -1 -1 -1 -0 -0
0 1 0 3 5 3 3 3 3 3 2 2 3 3 4 5 6 5 6 7 8 8 8 6 4 2 2 2 2 1 1 -0 -1 -0 -0 -0 -1 -1 -1 -1 -1 -2 -2 -1
1 1 -0 2 1 1 1 2 3 2 2 2 2 4 6 7 6 7 8 7 7 7 5 3 2 2 2 1 2 2 1 1 1 0 0 -0 -0 -0 0 0 -1 -1 -2 -2
0 0 2 2 2 2 3 3 3 2 2 4 3 6 6 5 7 7 6 7 6 4 2 1 1 1 1 -0 0 1 0 0 -1 -1 -1 -2 -1 -1 -1 -2 -2 -2 -1 -1

GFSNW_925_temp_081.txt.gz
Temp
5 5 5 5 5 5 6 5 5 11 10 6 8 8 10 11 11 12 11 10 12 13 14 13 12 12 12 13 12 11 12 12 11 11 12 12 12 11 11 9 10 8 10 11
5 5 5 5 5 6 5 5 4 10 9 7 8 9 10 12 12 12 13 13 14 15 14 12 13 13 14 14 14 13 13 11 10 11 11 12 13 12 12 11 10 7 9 13
5 5 5 5 7 7 7 4 5 4 4 7 8 8 9 10 12 12 14 14 13 14 13 13 13 13 14 14 14 13 13 12 12 10 12 12 12 12 12 11 8 11 10 14
5 4 4 4 6 7 7 2 5 5 6 5 7 8 8 9 10 12 12 13 12 12 12 13 12 13 14 15 14 14 14 12 12 13 13 13 13 12 11 8 12 12 14 15
5 4 4 4 5 7 5 2 2 4 5 7 8 7 7 8 9 9 11 11 12 11 10 10 11 12 12 12 13 13 13 12 12 12 13 13 12 13 12 12 12 13 14 14
5 5 4 4 4 5 5 5 5 4 5 7 7 6 7 7 7 9 11 11 12 11 11 10 10 10 12 13 13 12 12 12 11 8 12 11 10 12 12 13 13 14 13 14
5 5 4 4 4 4 5 5 3 3 3 4 5 7 6 7 7 8 11 11 11 12 11 10 12 12 13 12 11 12 12 12 11 8 11 9 12 13 13 13 14 13 14 14
5 5 4 4 4 4 4 5 3 2 3 4 6 6 7 7 7 8 10 12 11 10 11 11 12 11 12 12 12 12 11 11 10 9 9 12 12 12 12 13 13 14 13 13
5 5 4 4 4 4 4 4 5 2 3 4 5 5 6 6 6 7 10 11 9 11 10 10 11 9 13 12 12 13 13 10 9 8 10 12 13 13 13 13 12 14 13 12
5 4 4 4 4 4 4 4 4 3 2 3 4 3 5 6 5 5 7 7 8 10 9 9 9 11 12 11 12 13 10 10 9 10 9 11 12 13 13 12 12 13 13 13
5 4 4 4 4 4 4 4 4 4 3 3 4 6 5 4 4 5 6 7 9 9 9 9 9 10 10 11 12 12 11 9 9 10 10 10 12 13 13 13 14 14 14 13
4 4 4 4 4 4 4 3 3 3 3 2 5 4 4 4 5 5 4 6 6 9 9 8 8 10 8 9 10 11 11 10 11 11 11 11 13 12 13 12 12 12 13 12
4 4 4 4 4 4 3 3 3 3 2 3 2 4 8 7 6 5 4 6 7 7 7 7 7 9 8 9 10 10 11 11 10 11 12 12 11 11 11 11 11 11 11 11
4 4 4 4 3 3 3 3 3 3 2 3 2 7 6 7 6 6 5 6 5 6 7 9 7 9 9 9 10 9 9 11 11 11 12 10 10 9 10 10 9 10 10 10
4 4 3 3 3 3 3 3 3 3 3 2 3 4 6 7 7 5 6 5 5 5 7 9 8 8 9 8 8 8 9 10 10 10 10 10 9 9 9 9 9 8 9 9
4 4 3 3 3 3 3 1 3 3 3 3 2 3 4 6 7 5 5 6 5 6 8 9 8 9 10 8 8 10 10 10 10 10 10 9 8 7 8 8 8 8 8 8
4 4 3 3 3 3 3 2 3 3 2 3 2 1 4 6 6 4 5 6 6 6 8 8 8 9 10 9 8 10 10 9 8 8 9 8 8 8 7 7 7 7 7 8
4 3 3 3 3 3 3 3 3 3 2 2 2 2 3 4 6 7 7 6 6 7 8 8 9 9 9 8 8 10 8 7 7 6 6 6 7 8 7 7 6 6 6 6
4 4 4 3 3 3 3 3 2 2 2 2 2 1 3 4 4 6 7 7 7 8 8 9 8 8 8 8 8 10 8 7 6 6 6 7 7 6 6 5 5 5 5 5
4 4 3 2 2 2 2 2 2 2 2 2 2 3 3 4 5 6 8 7 7 7 8 8 8 8 7 4 3 3 4 4 5 6 6 5 5 5 5 5 5 4 4 4
3 1 -0 2 2 2 3 3 2 2 3 2 3 3 3 4 5 6 7 6 6 7 7 7 7 8 5 3 2 3 4 4 4 4 4 4 4 4 4 4 4 4 4 4
2 1 1 2 2 1 2 -0 3 3 4 4 4 4 4 4 5 5 5 7 6 8 7 7 7 6 3 3 3 3 3 3 3 3 2 3 3 2 2 3 3 2 2 2
2 1 1 2 2 2 1 -0 2 2 3 3 3 3 4 5 5 5 5 7 7 7 7 8 7 3 2 2 1 2 2 2 2 2 1 1 1 1 1 1 -0 -0 0 1
-1 -1 -3 -0 -2 1 2 2 2 2 3 3 3 3 4 5 5 5 7 7 6 7 7 7 4 3 3 2 2 2 1 1 0 0 0 0 -0 -0 -0 -1 -1 -1 -1 -1
-3 -2 -3 -3 -0 -2 2 3 3 2 1 2 2 3 3 4 5 5 6 6 7 8 8 6 4 2 2 2 1 1 1 -0 -1 -0 -1 -0 -0 -0 -1 -1 -2 -2 -2 -2
-4 -1 -1 -2 -3 -4 -5 -4 2 2 2 1 2 3 5 6 6 7 7 7 6 7 5 3 2 2 1 1 1 1 1 1 -0 -1 -1 -1 -2 -2 -1 -1 -2 -2 -2 -2
0 0 0 -3 -2 -1 -3 -2 -1 2 0 1 2 4 5 4 6 6 6 7 5 3 1 1 1 1 1 -1 -1 -1 0 -0 -1 -2 -2 -2 -2 -2 -2 -4 -3 -2 -2 -2

GFSNW_925_temp_084.txt.gz
Temp
5 5 5 5 5 6 7 4 5 10 8 5 7 8 9 10 10 10 9 9 10 12 13 12 11 10 10 6 8 7 7 9 11 11 12 12 13 11 11 10 11 6 7 11
5 5 5 6 6 6 6 4 3 9 9 6 8 9 9 11 11 11 12 12 13 14 12 12 13 12 14 11 11 10 10 10 10 10 11 11 11 11 12 10 8 6 9 11
5 5 5 6 7 7 7 3 3 3 4 7 7 8 9 9 11 12 12 13 12 11 12 12 12 12 14 14 12 13 13 11 10 10 12 11 11 11 11 11 7 8 8 13
5 5 4 4 6 7 7 1 4 4 5 5 6 7 7 8 9 10 10 11 11 10 10 11 11 11 12 14 13 12 13 11 12 11 11 12 13 11 11 7 11 11 13 12
5 5 5 4 5 6 5 1 1 2 3 6 7 7 7 7 8 8 9 11 10 10 10 10 9 9 11 12 12 12 12 12 12 11 12 12 11 11 11 12 12 13 14 13
5 5 4 4 4 5 4 4 4 3 4 3 5 5 6 6 6 9 10 11 10 10 10 10 9 9 9 9 12 11 12 11 11 10 11 12 11 11 11 11 12 13 13 14
5 5 4 4 4 4 4 4 2 1 3 3 4 5 6 7 6 8 10 10 10 11 9 9 11 10 12 11 11 11 12 11 10 8 10 10 12 12 12 12 12 13 14 14
5 5 4 4 4 4 4 4 3 1 1 2 4 4 5 6 7 7 8 10 9 8 9 10 11 11 11 12 12 11 10 10 10 9 9 11 12 12 12 12 12 12 12 12
5 5 5 4 4 4 4 4 4 2 2 3 3 3 4 4 5 5 8 8 7 9 9 9 11 8 11 11 12 11 11 9 9 8 10 11 12 12 12 13 11 12 12 12
5 5 4 4 4 4 4 4 4 3 2 2 3 2 2 4 5 4 6 5 6 8 8 8 8 10 11 10 11 11 9 8 8 9 8 10 12 12 13 13 11 12 11 11
5 5 4 4 4 4 4 4 4 3 3 2 3 4 4 4 4 4 5 5 7 8 8 8 8 9 9 10 10 11 10 9 8 9 9 10 12 12 13 11 13 13 12 13
5 5 4 4 4 4 3 3 3 3 2 2 4 4 4 4 4 4 4 5 5 8 9 8 6 8 7 8 9 9 11 10 10 9 10 11 12 12 12 11 12 12 12 12
5 5 4 4 4 3 3 3 3 3 2 1 1 3 7 6 5 4 3 5 5 5 6 7 7 8 7 8 10 10 10 10 10 11 12 12 11 10 10 10 10 10 10 11
5 4 4 4 3 3 3 3 3 2 2 2 2 6 6 6 6 5 4 5 4 3 4 8 7 7 8 8 9 9 9 10 10 10 9 10 10 9 10 9 8 9 9 10
4 4 4 4 4 4 3 3 3 3 2 2 3 3 5 6 6 5 5 4 4 3 4 8 9 7 8 7 7 7 8 10 10 10 10 9 9 9 9 8 8 8 8 9
4 4 4 4 3 3 3 1 3 3 2 2 2 3 2 5 6 4 3 4 4 4 5 8 9 8 9 7 7 9 9 9 10 10 9 8 7 7 8 7 7 8 8 8
4 4 4 3 3 3 3 1 2 2 2 2 2 2 3 5 5 3 3 5 5 5 6 7 7 8 10 8 7 10 9 9 8 8 8 8 7 7 7 7 7 7 7 6
4 4 3 4 3 3 3 3 3 3 2 2 1 2 2 4 4 5 4 5 5 6 7 8 9 9 9 9 8 8 8 6 6 6 6 7 6 6 6 6 6 6 6 5
4 4 4 4 4 3 3 3 2 2 2 2 2 3 2 4 4 4 6 6 7 6 7 8 8 7 8 8 7 8 7 7 6 6 6 6 6 6 5 5 5 5 4 4
4 4 3 1 2 2 2 2 2 2 2 2 2 2 3 3 4 5 6 7 7 7 8 8 8 8 6 3 3 3 3 5 5 6 5 5 5 4 5 5 5 4 4 3
3 0 -0 2 2 2 2 3 2 1 1 2 1 2 3 3 4 5 6 6 6 8 6 8 6 6 4 2 2 3 4 4 4 4 4 4 4 4 4 4 3 3 3 3
2 1 1 2 2 2 2 -1 2 2 1 4 3 3 3 4 3 4 5 6 6 7 7 7 7 5 2 2 3 3 3 3 2 2 2 2 2 2 2 2 2 1 1 1
2 2 2 2 -0 1 -1 1 -1 -2 1 3 3 2 3 3 4 5 5 6 7 7 7 7 7 3 2 1 1 2 2 2 2 1 1 1 1 0 0 0 -1 -1 -0 -0
-1 -3 -2 -1 -2 2 2 1 3 2 2 2 2 2 2 4 4 5 7 7 6 7 7 7 2 2 3 1 1 2 1 1 1 0 0 -0 -0 -0 -1 -1 -2 -2 -2 -2
-4 -2 -2 -5 -2 -1 2 2 0 -0 3 2 2 2 2 3 4 5 6 7 7 7 7 6 4 3 2 1 1 1 0 -1 -1 -1 -1 -1 -1 -1 -2 -2 -2 -2 -2 -2
-5 -3 -1 -3 -4 -5 -6 -7 -5 -3 1 -0 1 2 4 5 5 6 7 7 6 6 5 3 2 2 1 1 1 1 1 0 -0 -1 -2 -2 -2 -2 -2 -2 -3 -3 -3 -3
-0 0 1 -1 -2 -1 -5 -5 -3 1 -0 1 0 2 4 2 5 6 6 6 5 3 1 0 1 1 1 -1 -1 -1 0 -1 -1 -1 -2 -2 -3 -3 -3 -5 -4 -3 -3 -3

GFSNW_925_temp_087.txt.gz
Temp
6 5 5 5 5 6 7 4 4 9 7 5 7 8 8 10 10 11 10 10 9 10 11 10 7 8 7 7 9 7 8 7 5 10 11 11 11 11 11 8 9 5 6 11
6 5 5 5 5 6 5 3 2 9 8 6 7 8 9 10 10 10 11 11 11 13 12 11 11 12 8 7 7 7 7 6 6 10 10 11 12 11 11 10 8 6 9 12
6 5 4 6 7 7 6 1 2 2 3 6 6 7 8 8 10 10 10 11 11 10 11 11 11 11 9 6 7 8 10 9 10 10 11 12 11 11 10 10 6 8 8 13
6 5 4 5 7 7 7 -0 3 2 3 4 6 7 8 8 9 9 9 10 10 9 9 9 10 10 11 11 11 10 9 10 11 11 12 12 12 11 11 9 11 10 12 11
6 5 5 4 6 7 4 1 0 2 2 3 5 6 6 7 7 7 9 9 10 9 9 9 9 9 10 11 11 11 12 10 11 10 11 11 11 12 11 11 11 12 13 13
5 5 5 4 5 6 4 3 2 3 3 2 3 3 5 6 7 8 9 8 8 10 9 8 9 8 9 9 9 11 11 10 10 8 11 11 11 10 10 10 11 12 12 13
5 5 5 4 4 5 4 3 1 0 3 2 3 3 4 6 6 6 8 8 9 9 7 8 8 8 9 10 11 9 11 10 10 8 11 9 11 11 11 11 12 12 14 14
5 5 5 4 4 5 4 4 3 1 1 2 3 3 3 4 6 7 7 8 9 7 6 9 11 11 11 12 11 10 10 9 9 9 10 11 12 12 11 11 12 12 13 13
5 5 5 4 4 4 4 4 4 1 2 2 3 2 2 2 3 4 7 7 7 7 8 8 10 7 11 11 10 11 10 8 9 8 10 11 11 12 12 13 11 11 12 11
5 4 4 4 4 4 4 3 4 3 1 1 3 1 2 3 3 2 5 4 5 7 7 8 7 9 10 9 10 10 9 8 8 9 8 10 11 12 12 11 11 12 11 11
5 4 5 4 4 4 4 3 3 3 0 1 3 3 3 2 2 2 4 5 6 7 8 8 7 8 8 9 9 10 9 8 8 8 9 10 11 12 12 11 12 11 11 12
5 4 4 4 4 3 3 4 4 3 2 1 4 3 4 4 4 3 3 4 3 6 7 8 8 7 6 7 9 8 9 9 9 9 9 9 10 11 11 10 12 11 12 11
4 4 4 4 4 4 3 3 4 2 2 1 1 3 5 5 5 4 3 3 4 4 3 5 8 7 6 8 9 9 9 8 9 10 10 10 10 9 9 9 10 9 10 10
4 4 4 4 4 4 3 3 3 3 2 2 1 5 5 5 5 5 4 4 3 3 3 5 8 7 6 7 7 8 8 9 9 9 10 9 9 9 9 8 8 8 8 9
4 4 4 4 4 3 3 3 3 3 2 2 2 3 4 5 5 4 4 3 3 3 4 6 8 7 7 6 6 6 7 9 9 9 9 9 9 8 9 8 8 7 8 8
4 4 3 3 3 3 3 0 2 2 2 2 2 2 3 5 5 3 2 2 2 3 4 6 7 8 8 7 7 8 8 8 9 10 9 8 7 7 8 7 7 7 7 7
4 3 3 3 3 3 3 2 2 2 2 2 2 1 2 4 4 3 2 3 4 4 4 6 7 7 9 9 7 9 8 8 7 7 8 8 8 8 6 6 6 7 6 5
4 3 4 4 3 3 3 2 3 3 2 1 -0 1 1 4 3 5 2 3 4 5 6 8 8 8 9 9 9 8 7 6 6 5 5 6 5 5 5 5 5 5 5 5
4 4 3 3 3 3 2 2 2 2 2 -0 -0 -0 -1 2 3 3 5 5 6 6 7 8 7 7 8 8 7 8 7 7 6 5 5 5 5 5 5 5 5 5 4 4
4 3 3 0 3 2 2 2 1 2 2 2 2 0 1 2 3 4 6 5 7 7 7 6 7 6 6 3 2 2 3 4 5 6 6 5 5 4 4 4 4 4 3 3
3 1 -0 2 2 2 2 2 2 2 2 2 2 2 3 2 3 3 5 6 6 7 7 8 6 7 3 2 2 2 3 4 4 4 3 3 3 3 3 3 3 2 2 2
3 2 2 2 1 -1 1 -1 2 3 -0 4 3 3 3 3 3 4 4 6 5 7 7 7 6 6 2 2 3 2 2 2 2 2 1 2 2 1 2 2 1 1 0 1
2 2 0 -1 1 -2 -1 -0 -3 -3 -0 2 2 2 3 3 3 4 5 6 6 6 7 7 6 3 1 1 2 2 2 2 2 1 1 1 0 -0 -0 -0 -1 -1 -1 -1
-1 -4 -1 -3 -4 2 2 -0 -3 -2 -3 -0 2 1 0 2 4 4 6 7 6 6 6 6 3 3 2 2 1 2 1 1 0 0 0 -0 -0 -0 -1 -1 -2 -2 -2 -2
-4 -4 -0 -4 -2 -2 2 2 0 -2 -3 1 1 1 1 1 4 4 6 7 5 6 6 5 3 3 2 1 1 1 0 -2 -3 -2 -2 -2 -1 -2 -2 -3 -3 -3 -3 -3
-5 -3 -4 -4 -5 -7 -6 -2 -4 -5 -3 -3 1 1 2 2 4 6 6 7 5 5 4 2 1 2 1 1 1 0 0 -0 -1 -1 -2 -2 -2 -2 -3 -3 -3 -3 -3 -3
-0 -1 -0 -2 -1 -1 -6 -5 -4 -1 -0 0 -0 1 0 1 3 6 4 5 3 2 2 0 1 1 1 -0 -1 -1 -1 -1 -1 -1 -2 -2 -3 -3 -3 -4 -4 -4 -4 -4

GFSNW_925_temp_090.txt.gz
Temp
6 6 7 7 5 6 7 4 4 8 6 5 7 7 7 9 10 10 10 10 10 10 10 8 7 7 6 7 8 6 6 5 7 9 10 10 11 10 9 7 10 5 5 11
7 6 7 7 5 6 6 3 2 8 8 3 6 8 9 9 9 9 10 10 10 11 10 10 9 9 7 7 8 7 7 4 6 9 9 10 11 10 10 8 8 5 8 12
7 6 6 7 7 7 6 1 2 1 2 4 6 7 8 8 10 9 9 9 11 9 9 9 10 10 7 7 8 10 10 6 8 8 10 11 10 11 10 10 6 8 8 11
6 5 6 7 7 7 7 -0 2 2 1 3 3 6 7 7 7 8 9 9 9 9 9 10 9 10 9 6 6 7 7 9 8 10 11 12 12 11 10 6 10 10 12 11
6 5 5 6 7 7 4 1 1 1 1 2 4 4 4 5 6 7 8 8 8 9 9 9 9 9 9 10 8 6 6 10 10 10 11 11 11 11 10 11 11 11 12 11
6 5 5 5 6 7 3 1 1 1 2 2 3 2 3 4 5 7 7 7 7 9 8 6 7 7 8 8 9 8 10 9 10 9 11 11 11 10 10 10 10 12 11 13
6 5 4 5 5 6 4 2 1 1 3 3 3 3 3 3 4 5 7 7 8 8 7 6 6 6 6 7 9 9 10 10 9 9 10 10 12 11 11 11 11 11 13 13
5 5 4 5 5 5 4 3 2 0 1 2 3 2 2 2 3 5 6 7 7 6 5 8 10 11 11 11 10 9 9 9 9 8 8 10 11 11 10 10 11 11 11 13
5 5 4 4 4 4 4 4 3 1 1 2 3 2 2 1 2 2 5 7 6 6 6 8 10 8 9 10 9 10 10 8 10 8 10 11 11 11 11 12 11 12 11 11
5 5 4 4 4 4 4 3 3 2 0 1 2 2 2 2 2 2 2 4 5 6 6 8 7 9 9 9 9 9 8 8 8 9 8 10 10 11 11 12 12 11 11 10
5 4 4 4 4 4 4 3 3 3 -0 0 2 2 2 2 1 3 2 4 5 6 7 8 7 7 7 7 9 9 8 8 8 8 9 10 10 12 12 11 11 11 10 10
5 4 4 4 4 3 4 3 3 3 1 1 3 3 3 4 3 2 2 3 3 5 5 6 8 8 5 5 8 8 9 8 8 9 9 9 9 10 10 9 11 11 11 11
5 5 4 4 4 3 3 3 3 2 2 0 2 4 4 4 4 4 2 2 4 4 3 4 6 8 5 7 8 8 8 7 8 9 10 10 9 9 9 9 9 9 9 9
5 4 4 4 3 3 3 3 3 3 1 0 2 4 4 4 4 3 4 4 3 3 3 5 7 7 6 6 6 6 7 8 9 8 9 9 9 9 8 7 7 7 7 7
4 4 4 4 3 3 3 3 2 2 2 1 1 3 4 5 4 4 3 2 2 2 2 5 8 8 7 6 5 5 6 8 8 9 8 9 9 8 8 8 7 7 8 8
4 4 4 3 3 3 3 0 2 2 2 1 2 2 2 4 4 3 1 2 1 1 3 5 7 8 8 8 6 7 7 7 8 8 8 7 7 7 7 7 7 7 6 6
4 4 4 3 3 3 2 1 2 2 1 2 1 0 2 3 4 2 1 2 2 2 2 5 5 6 8 8 8 8 7 6 7 6 7 8 8 7 5 5 5 6 5 5
3 4 4 3 3 3 2 2 2 2 1 1 -0 0 1 3 2 4 1 1 3 4 5 7 7 7 8 8 8 8 7 6 6 5 5 6 4 4 5 4 4 4 4 3
4 3 3 3 3 2 2 2 2 2 1 -2 1 1 1 1 1 3 4 3 5 5 6 7 6 7 7 8 7 7 6 6 7 5 5 5 5 4 4 4 3 4 3 4
3 4 3 1 2 2 2 2 -0 0 1 2 2 -1 0 2 2 4 4 5 6 6 6 6 6 6 6 3 2 3 3 4 5 6 6 5 5 4 4 3 3 3 3 3
4 1 0 2 2 2 1 3 2 2 2 2 3 0 2 2 3 2 4 5 6 7 6 7 7 6 3 1 1 1 2 3 3 3 3 3 3 3 3 3 2 2 1 1
4 3 2 2 0 -1 -1 1 2 3 1 4 3 0 0 2 2 4 4 5 5 5 6 7 7 5 2 1 2 2 2 2 2 1 2 2 2 1 2 1 1 -0 -0 -0
3 2 -1 -1 -0 -1 -1 -2 -4 -4 -1 -1 -2 -0 1 3 2 3 4 5 6 6 7 6 5 2 1 1 2 2 2 2 2 1 1 1 0 -0 -0 -1 -2 -1 -1 -2
1 -1 -1 -1 -2 -0 -1 -3 -4 -3 -4 -4 -3 -3 -1 2 2 3 5 6 6 4 5 4 4 3 3 2 2 2 1 1 1 0 -0 -0 0 -1 -1 -2 -3 -3 -3 -3
-1 -1 2 -3 -2 -0 -1 0 -1 -3 -5 -3 -3 -2 -0 1 1 3 5 6 5 5 5 4 3 2 2 1 1 1 1 -1 -5 -3 -3 -3 -2 -2 -3 -3 -3 -3 -3 -3
-3 -4 -3 -3 -4 -6 -3 -0 -0 -5 -4 -4 0 0 2 -1 2 4 6 6 4 3 2 2 1 1 1 1 1 1 -0 -1 -1 -1 -2 -2 -2 -3 -3 -3 -4 -4 -4 -4
-1 -3 -2 -4 -5 -6 -7 -6 -5 -1 0 -3 -0 -0 2 -2 -1 4 3 3 2 0 0 1 -0 0 0 0 -0 -1 -1 -1 -1 -1 -2 -2 -3 -3 -3 -4 -4 -4 -4 -4

GFSNW_925_temp_093.txt.gz
Temp
7 8 8 6 5 7 7 4 4 7 6 4 4 5 7 10 10 10 10 9 10 10 9 8 7 7 6 7 7 5 5 6 6 9 9 10 11 10 9 8 10 7 8 13
7 8 8 7 5 6 6 3 2 8 6 3 6 9 9 9 9 9 9 9 10 10 9 9 9 8 6 7 8 6 6 5 6 8 9 9 9 9 10 9 9 7 10 14
7 7 7 7 5 7 6 1 2 2 2 2 6 6 6 6 8 9 9 8 10 9 10 9 9 9 6 7 9 9 9 6 8 8 9 9 9 9 9 10 9 10 10 12
7 7 7 7 6 7 6 -1 0 1 -0 3 3 5 5 5 6 7 8 9 8 8 9 9 9 9 6 5 6 7 8 6 7 8 10 10 10 10 9 8 10 12 12 12
7 7 6 7 7 7 4 2 1 -0 1 1 4 3 4 4 5 5 7 8 7 8 9 8 8 8 9 8 5 6 6 8 9 10 10 11 11 11 10 11 10 11 12 12
6 7 6 6 7 7 3 1 1 1 2 2 3 2 3 4 4 6 7 7 6 9 8 6 6 6 7 8 7 7 7 8 8 10 11 10 11 10 10 10 10 11 11 12
6 6 5 5 6 6 5 2 1 1 4 3 3 3 3 3 3 4 5 7 7 8 7 5 5 5 5 6 7 8 8 8 9 10 9 9 11 10 10 11 11 11 12 13
6 6 5 4 5 5 4 3 1 0 2 2 3 3 2 2 2 3 5 7 6 7 5 7 9 9 10 10 10 9 8 9 9 10 10 10 11 10 9 11 11 10 11 12
6 5 5 4 4 4 4 3 3 0 1 3 3 2 2 1 1 1 3 5 6 6 6 7 9 7 9 9 9 10 9 8 8 8 10 11 11 11 11 11 11 11 10 11
6 5 5 4 4 4 4 3 3 2 1 1 1 1 2 2 1 1 1 3 4 6 6 7 6 8 8 8 8 8 8 8 8 9 8 9 10 10 10 11 11 10 10 10
5 5 5 4 4 4 4 3 3 2 -1 0 2 2 2 1 1 1 2 4 3 6 7 8 8 8 6 6 8 8 8 8 8 8 10 10 9 11 12 10 10 10 10 10
5 5 4 4 4 3 3 3 3 3 1 1 2 3 3 3 3 1 1 2 3 4 4 5 7 9 5 5 7 7 9 8 8 9 9 8 8 9 9 9 10 10 10 10
5 4 4 4 4 4 3 3 3 3 1 1 2 3 3 3 3 4 2 1 4 3 3 4 5 7 7 6 7 7 8 6 7 8 9 9 9 9 8 8 9 8 8 8
5 4 4 4 4 4 3 3 2 2 -0 0 3 4 3 4 4 3 3 3 3 2 2 4 5 7 6 6 6 6 6 7 8 7 8 8 9 8 8 7 7 7 6 6
4 4 4 4 4 3 3 3 2 2 2 1 1 3 4 4 4 3 2 2 1 1 2 4 6 7 7 6 5 4 5 7 7 8 8 8 8 8 8 7 7 6 7 6
4 4 4 3 3 3 3 0 2 2 2 -1 0 2 2 3 4 3 1 2 2 1 3 4 5 7 6 8 8 6 6 6 6 8 8 7 7 6 7 6 6 5 5 5
4 4 4 3 3 3 2 1 2 2 2 1 -0 1 2 2 2 2 0 1 1 1 2 3 6 5 6 8 8 7 7 6 7 6 7 7 7 6 5 5 5 5 4 4
4 3 3 3 3 2 2 2 2 1 1 0 -4 0 1 2 2 2 2 2 3 3 2 5 6 8 7 8 7 7 7 6 6 5 5 5 4 4 4 4 5 4 3 3
3 3 3 3 3 2 1 2 2 2 2 -1 -0 -0 -2 0 1 1 4 2 4 4 5 6 6 6 6 7 6 7 6 6 6 5 4 4 4 4 4 4 3 3 3 3
3 3 3 1 1 2 2 2 -1 -1 -0 2 2 -1 -1 1 1 1 4 5 6 6 5 6 6 7 6 2 2 2 3 4 5 6 5 5 5 4 4 3 3 3 2 2
4 2 1 1 1 2 -0 2 1 1 2 2 0 -1 2 0 2 -1 2 4 5 6 5 6 7 7 4 1 1 1 2 3 3 3 3 3 3 3 3 3 2 1 1 1
4 2 2 2 1 -2 -2 1 2 -0 1 -0 -1 -1 -1 -0 1 3 3 4 5 6 6 6 7 3 2 1 2 2 2 2 1 1 1 1 1 1 1 1 -0 -0 -1 -1
3 2 -0 1 -1 -1 -1 -1 -4 -5 -4 -4 -3 -2 -0 1 2 3 3 5 4 6 7 7 4 3 2 1 1 2 2 2 2 1 1 1 0 -0 -1 -2 -2 -2 -2 -3
2 1 1 1 -1 -1 -3 -3 -4 -3 -5 -4 -5 -5 -2 -0 1 3 2 5 5 6 3 3 3 2 2 2 1 1 1 0 1 0 -0 0 0 -2 -3 -3 -3 -3 -3 -3
-0 1 3 -1 -1 -2 -5 -5 -3 -4 -5 -4 -3 -2 -3 -4 1 0 2 5 6 5 4 1 1 1 1 1 1 1 1 -1 -2 -3 -4 -3 -3 -3 -3 -3 -3 -3 -4 -4
-2 -3 -1 -2 -2 -2 -0 0 0 -3 -4 -4 0 0 -1 -2 -2 0 2 4 3 3 1 -0 -1 -1 0 0 1 1 0 -1 -1 -2 -2 -2 -3 -3 -3 -4 -4 -4 -4 -4
-2 -2 -1 -3 -5 -5 -5 -1 -3 -2 -1 -4 -0 -1 -1 -1 -4 -2 -1 -1 -1 -0 -1 -2 -1 -0 -0 -0 0 -0 -1 -2 -2 -1 -2 -2 -3 -3 -3 -4 -4 -4 -4 -4

GFSNW_925_temp_096.txt.gz
Temp
8 8 7 6 6 8 8 7 10 7 6 9 8 9 9 10 10 11 10 9 10 10 11 9 8 7 7 7 9 8 9 9 9 10 11 10 10 13 13 12 12 12 12 16
8 8 7 7 7 8 7 9 9 7 6 9 9 10 10 9 10 10 10 9 10 9 10 10 10 8 6 8 9 10 10 9 9 9 11 11 10 12 13 13 12 12 15 16
8 8 7 7 7 8 7 8 8 9 8 6 8 7 8 8 9 9 9 9 11 9 11 12 9 8 6 8 10 10 11 10 11 11 12 12 11 12 12 13 13 14 16 16
8 8 8 7 7 7 7 7 6 5 7 8 7 7 7 7 8 8 9 10 9 8 9 10 9 8 6 6 7 9 10 9 11 11 11 11 12 12 12 11 14 15 16 16
8 8 8 7 8 8 5 8 6 4 6 5 7 6 7 7 7 7 9 9 9 9 9 8 8 8 8 7 6 6 7 10 10 11 12 12 11 13 13 13 14 14 14 15
8 8 7 7 8 7 5 1 2 6 5 6 7 7 6 7 6 8 8 8 7 9 8 8 8 8 7 7 7 7 7 9 11 11 11 12 11 13 13 13 14 14 14 16
8 8 7 7 7 8 5 2 3 7 8 7 7 5 5 6 5 5 7 8 8 9 8 8 7 7 7 7 7 7 7 8 11 12 12 13 13 12 14 13 14 14 14 15
8 8 6 6 6 6 5 3 4 6 8 7 5 5 5 5 5 5 6 7 8 7 7 11 12 12 11 11 11 8 9 11 13 13 13 13 12 12 12 12 13 14 14 15
8 7 6 5 5 5 5 3 3 5 8 7 5 5 4 5 5 6 6 7 6 7 9 11 11 11 11 12 12 11 11 11 12 12 12 13 13 12 12 12 13 13 14 15
8 7 6 5 5 5 4 3 3 4 6 5 4 5 5 4 5 5 5 5 6 8 10 10 10 11 10 11 11 11 12 12 12 13 13 13 12 12 11 12 13 12 12 14
7 6 5 5 4 4 4 3 3 3 5 4 3 4 4 4 4 5 6 6 7 7 8 9 9 10 10 10 10 10 11 11 12 12 12 12 12 12 13 12 13 12 12 13
7 6 5 4 4 4 4 3 3 3 4 5 2 3 3 3 4 4 5 5 4 4 6 7 7 9 9 9 12 10 11 11 11 11 13 11 11 11 10 11 12 12 13 12
7 6 5 4 4 4 4 3 3 2 4 4 5 5 3 3 3 3 5 5 5 4 4 5 5 7 8 10 11 10 11 9 11 11 10 11 11 10 10 10 11 10 10 11
6 5 4 4 4 4 3 3 3 3 3 7 6 3 3 3 3 3 3 4 4 4 4 5 5 7 8 10 9 9 11 10 11 12 11 11 10 10 10 9 10 9 8 9
5 4 4 3 4 4 3 2 2 2 4 7 6 3 3 4 3 2 2 3 4 4 5 5 6 7 8 9 7 9 10 11 12 13 11 11 11 10 9 10 9 9 9 8
4 4 3 3 3 3 3 3 2 2 2 4 6 3 4 3 3 2 2 3 3 4 4 5 6 7 8 8 10 11 10 9 9 11 9 10 9 9 9 9 8 8 8 8
4 3 3 3 3 3 2 4 2 2 2 4 5 6 4 2 3 3 3 2 4 4 4 3 6 7 8 8 9 11 10 9 9 8 9 9 9 9 7 8 7 6 6 6
3 3 3 2 3 2 2 1 2 2 2 3 4 5 5 2 5 5 3 4 4 4 5 6 6 9 8 8 10 9 9 8 8 8 7 7 7 7 6 6 6 6 6 6
3 3 2 2 2 2 1 2 2 2 3 3 3 5 6 3 4 4 4 3 4 5 5 6 7 7 7 8 7 7 6 6 7 6 6 6 7 6 6 6 5 5 5 5
3 3 3 2 1 2 2 2 3 3 3 3 4 1 4 3 4 4 4 4 5 6 6 7 7 8 5 3 3 4 4 5 5 6 7 6 6 6 5 5 5 4 3 3
4 3 1 0 1 2 2 3 3 3 3 3 3 3 3 3 3 3 3 4 5 6 7 7 8 7 4 3 2 3 3 4 4 4 4 4 4 5 4 3 2 2 2 1
4 2 2 1 2 1 2 2 3 2 4 3 3 3 2 3 3 3 4 4 4 6 6 7 8 4 3 2 2 2 3 2 2 2 2 2 2 2 2 2 1 1 0 -0
3 2 1 3 0 3 4 3 1 0 1 2 2 2 2 3 3 3 3 5 6 6 7 8 5 4 3 3 2 2 2 2 2 1 1 1 1 0 0 -0 -1 -1 -1 -2
4 3 3 4 2 3 3 4 2 1 1 1 1 1 2 2 2 4 3 6 5 7 6 5 5 4 3 3 2 2 2 1 1 -0 0 1 1 -1 -2 -2 -3 -2 -2 -3
2 4 5 1 1 -1 -1 -1 0 -1 -0 1 1 1 1 0 2 2 3 4 6 5 6 5 4 3 2 1 1 1 1 1 -0 -2 -2 -2 -3 -2 -3 -4 -4 -4 -3 -3
0 -0 0 -0 1 1 1 0 1 -1 -0 1 1 1 1 2 1 2 3 4 5 5 4 3 2 1 0 0 1 0 0 -0 -1 -1 -2 -2 -2 -2 -3 -4 -4 -4 -4 -4
1 -0 0 -0 1 1 1 1 0 -1 1 0 0 -1 1 1 0 1 2 4 5 4 3 3 1 0 -0 -1 -0 -0 -0 -1 -2 -3 -3 -2 -4 -3 -3 -3 -4 -4 -4 -4

GFSNW_925_temp_102.txt.gz
Temp
9 9 8 9 9 9 8 11 10 8 7 9 11 9 12 11 12 12 12 11 12 11 12 9 8 8 7 9 11 10 11 9 8 10 11 10 9 10 12 12 12 10 10 13
9 9 8 9 9 9 10 11 10 9 8 9 10 12 12 12 11 11 11 11 12 12 10 10 9 8 8 10 11 10 11 9 7 8 10 11 10 12 13 12 11 11 11 13
9 9 9 9 9 9 9 10 7 9 10 10 11 11 11 11 11 11 10 10 12 11 11 10 9 8 8 9 11 10 10 10 10 9 11 12 11 12 14 13 11 11 12 14
8 8 9 10 10 9 9 10 10 9 8 10 11 10 10 10 11 11 11 10 11 10 9 10 9 7 8 9 9 10 10 9 11 12 13 12 13 13 13 11 10 10 14 14
8 7 9 10 10 9 9 10 9 8 10 10 11 8 10 10 10 10 10 10 10 10 10 9 8 8 7 8 8 6 8 7 11 10 12 12 11 13 14 14 11 12 14 15
9 8 9 10 10 9 10 8 8 9 9 10 10 9 9 9 9 10 10 9 9 11 9 9 9 10 8 7 8 7 8 8 10 10 11 13 10 12 13 14 14 14 14 15
8 9 8 9 10 9 10 9 10 10 10 10 10 9 8 8 8 8 9 9 10 9 9 9 10 10 11 7 7 7 9 9 10 11 12 11 12 13 13 14 15 15 15 16
8 8 7 8 10 9 8 8 9 10 10 10 9 8 8 9 8 7 8 10 9 8 8 10 11 10 9 9 9 7 7 9 10 10 11 13 13 12 12 13 14 14 14 15
9 8 7 7 9 8 8 7 8 8 9 8 9 8 8 8 9 7 9 10 9 8 9 11 11 11 12 11 10 8 8 8 9 9 11 12 12 12 13 13 11 12 13 14
9 8 7 7 8 8 9 6 7 8 7 6 7 7 7 7 7 7 8 7 8 10 10 11 10 11 12 11 11 10 10 10 9 11 11 11 11 12 12 12 11 12 13 12
8 7 6 7 7 8 8 5 6 6 6 5 7 7 6 6 6 6 6 7 7 7 10 11 11 11 11 10 12 12 11 10 10 11 11 10 12 12 11 10 12 12 12 13
8 7 6 6 7 7 7 5 5 7 5 4 6 5 5 5 5 5 5 6 5 6 7 9 9 10 11 10 10 12 10 10 9 11 11 12 12 11 11 11 11 10 11 12
8 7 6 6 6 7 6 5 7 8 5 5 5 5 4 4 4 4 5 5 6 6 5 6 7 8 10 11 9 10 12 11 10 11 12 11 11 11 10 9 10 10 10 11
7 7 6 6 6 6 6 5 5 6 7 7 5 5 5 4 4 4 4 6 5 6 5 6 6 7 8 9 9 8 9 10 11 10 10 12 10 9 10 9 10 10 9 9
6 5 4 5 5 6 6 5 5 5 6 7 5 6 5 5 4 5 4 5 5 5 4 6 7 7 8 9 8 8 11 10 10 10 9 9 9 9 8 9 8 9 9 8
5 4 4 4 5 6 6 4 4 5 5 5 4 5 5 5 5 5 5 5 5 4 3 4 5 8 8 8 9 10 9 9 9 9 9 9 10 9 9 9 8 8 8 8
5 4 3 4 4 5 4 4 3 4 5 6 4 4 5 5 5 5 4 5 4 5 4 4 5 7 8 8 9 8 7 7 8 8 8 9 8 8 8 8 8 8 7 7
4 4 3 3 4 3 3 2 3 3 5 5 3 4 4 5 5 4 4 4 4 5 5 6 6 8 7 8 6 7 6 6 8 6 7 7 7 8 7 7 7 8 7 6
3 3 3 4 4 3 2 3 4 3 4 4 4 4 3 4 4 5 4 4 4 5 5 6 7 8 6 5 5 4 4 4 4 5 6 8 8 7 7 7 7 6 5 5
3 4 4 2 1 3 3 3 3 3 3 4 4 4 2 3 4 5 5 4 5 5 6 7 5 7 4 4 4 4 3 4 4 4 5 5 5 5 7 6 5 4 4 4
4 3 1 1 2 3 3 3 4 4 4 4 4 2 2 3 2 4 5 4 5 5 6 6 6 7 4 4 4 4 3 3 4 3 3 3 3 3 3 4 4 3 3 3
4 2 1 2 2 2 4 4 3 4 5 3 2 2 2 2 4 5 3 5 5 5 6 6 5 3 4 4 4 3 3 2 2 3 2 2 3 3 3 3 3 2 2 1
3 3 2 3 2 4 6 5 3 3 3 2 1 1 2 2 4 4 4 4 5 7 5 6 4 3 4 3 3 2 3 3 2 2 2 2 2 1 1 1 1 0 1 -0
3 4 4 5 2 4 5 5 4 3 3 3 1 -0 1 2 1 2 3 5 4 4 6 7 2 3 4 3 2 1 1 2 1 1 1 1 0 0 0 -1 -1 -1 -1 -1
4 5 6 3 1 1 1 1 2 2 2 1 0 -1 0 1 -1 2 3 4 5 5 4 2 1 3 2 1 0 -1 -2 -1 1 0 0 -1 -1 -1 -1 -1 -2 -2 -2 -2
2 2 1 2 1 1 1 1 1 1 1 0 0 -1 -2 -1 -0 2 3 5 4 2 1 -0 -1 -1 -1 -2 -1 -1 -0 -1 0 -0 -0 -1 -2 -2 -2 -2 -3 -3 -3 -3
2 1 2 2 3 2 2 2 1 2 2 -0 -1 -1 -1 0 0 1 0 4 1 0 -0 -1 -1 -2 -3 -5 -3 -2 -1 -1 0 -0 -0 -1 -2 -2 -3 -4 -3 -4 -4 -4

GFSNW_925_temp_105.txt.gz
Temp
8 9 9 10 8 8 7 7 6 8 7 5 7 4 10 11 12 12 11 10 11 10 11 8 7 7 6 7 9 9 10 8 5 9 10 9 9 10 11 10 10 10 9 10
8 9 9 10 8 9 8 6 6 7 7 6 5 10 11 11 11 11 11 10 11 12 9 9 8 8 8 8 9 8 8 7 4 6 9 10 10 11 12 11 9 10 10 11
8 8 9 9 8 9 7 5 5 5 5 6 9 10 10 9 10 11 10 10 12 11 10 10 8 8 8 8 8 11 9 8 8 7 9 10 10 11 12 11 10 10 10 12
8 9 9 9 8 9 8 6 6 6 3 6 8 9 10 10 9 10 11 10 11 10 9 9 8 7 8 8 8 8 8 7 9 10 10 12 12 12 12 8 9 8 10 12
8 8 9 8 8 9 8 6 5 5 6 9 8 8 8 9 9 9 10 10 9 10 9 9 8 7 7 7 7 3 5 6 8 9 11 11 11 12 12 11 10 10 11 13
9 9 9 8 10 9 7 7 7 6 7 7 6 6 8 8 8 9 9 8 8 11 8 7 8 9 8 7 8 5 6 6 9 9 10 11 10 11 12 10 10 12 11 14
8 9 9 7 11 9 9 8 6 6 7 6 7 7 8 7 8 7 8 8 8 8 7 7 8 8 9 7 6 7 8 9 9 10 10 9 11 12 13 12 9 12 13 14
9 9 8 8 10 9 9 9 7 5 6 5 6 7 7 7 7 6 7 8 8 7 7 9 9 9 8 9 8 7 7 9 9 10 10 11 12 11 11 12 11 11 13 14
9 9 8 8 10 8 8 8 8 5 5 5 7 6 7 4 5 6 7 8 7 8 9 9 10 9 10 9 9 8 7 7 8 8 11 11 11 11 11 12 11 11 12 12
8 8 8 9 8 7 9 7 8 7 2 3 5 4 4 5 5 4 5 6 6 8 8 9 9 9 11 9 10 8 9 8 8 7 10 10 11 10 12 11 11 11 11 11
8 7 8 8 8 7 9 6 7 7 1 2 5 5 4 4 3 4 4 5 5 5 10 10 10 10 9 9 10 10 9 8 8 8 9 9 10 11 11 10 11 10 10 11
8 8 7 10 8 7 9 6 7 8 2 2 5 4 4 4 4 3 3 4 5 5 5 8 8 10 9 8 8 8 9 8 8 8 9 10 10 10 9 9 9 9 9 10
7 7 7 9 6 7 8 7 7 7 2 1 2 3 4 5 4 5 3 4 5 5 4 5 7 8 8 10 7 7 9 9 8 10 9 10 9 8 9 9 10 9 9 10
7 6 8 7 6 7 8 7 7 7 3 2 3 4 4 4 4 5 4 4 5 4 3 7 6 7 8 8 8 7 7 8 8 8 8 9 8 8 8 9 9 9 8 8
5 6 6 6 7 7 8 7 7 7 6 3 2 4 4 4 4 4 5 5 3 2 2 6 7 7 7 8 7 7 9 8 7 9 8 8 8 8 8 8 8 8 8 7
5 5 5 7 6 6 9 5 7 7 7 1 2 3 4 4 4 4 4 4 2 2 1 2 3 7 7 8 8 7 6 6 7 7 6 7 8 8 8 8 7 7 7 7
4 4 6 5 5 6 4 4 4 5 7 2 2 2 3 4 5 4 4 5 4 3 2 2 2 4 7 8 6 6 6 4 7 5 5 8 6 7 6 7 7 7 6 6
4 5 4 4 5 4 3 3 4 6 5 3 0 1 2 4 2 4 4 4 4 4 5 4 4 6 5 4 6 5 5 4 6 5 5 6 6 7 7 7 6 7 5 5
4 4 4 4 4 2 2 4 5 6 4 2 1 0 1 2 2 5 4 4 4 4 5 6 6 7 5 6 4 4 3 4 4 4 3 6 7 7 7 6 6 6 5 4
4 4 3 2 2 3 4 4 2 2 2 3 2 1 1 2 2 5 5 4 3 5 4 6 4 5 4 3 2 3 4 3 3 4 4 4 4 4 4 5 5 4 3 3
4 1 1 1 2 3 3 3 4 2 3 3 2 -0 -0 2 1 3 5 4 5 4 5 6 3 7 3 2 2 2 3 3 3 3 2 2 2 2 2 2 3 3 3 2
4 2 2 2 2 1 3 3 3 3 4 2 1 0 -0 1 3 4 3 5 4 5 6 6 6 2 2 2 3 3 2 2 3 2 2 2 1 2 2 2 2 2 2 1
4 2 1 2 1 2 4 4 3 2 2 1 1 -0 0 1 2 3 4 3 1 5 5 6 2 2 2 2 2 2 2 2 2 2 2 2 2 1 1 1 0 -0 -1 -1
3 3 2 3 -1 2 4 5 3 3 2 2 0 -2 0 1 -1 3 -2 2 2 6 5 2 -1 2 2 1 1 0 0 -1 -0 1 1 1 1 0 0 -0 -1 -2 -1 -1
3 4 5 0 1 0 1 1 2 1 2 1 -1 -1 -1 -1 -1 -0 2 4 0 2 2 -0 -2 1 1 -0 -0 -2 -3 -4 -7 -1 -0 0 -0 -1 -1 -1 -1 -2 -2 -2
1 -1 -0 1 1 1 1 1 2 1 1 -0 -1 -2 -2 -2 -2 1 -2 -2 -1 0 -2 -3 -4 -3 -4 -4 -2 -2 -2 -2 -3 -2 -0 -0 -1 -1 -2 -2 -2 -3 -3 -4
-2 -1 0 1 2 2 1 1 1 1 1 -1 -2 -0 0 -1 -2 -2 -4 -1 -1 -2 -2 -4 -3 -4 -5 -7 -5 -3 -3 -3 -2 -1 -0 -0 -1 -2 -3 -4 -3 -4 -4 -4

GFSNW_925_temp_108.txt.gz
Temp
10 9 9 7 7 8 7 6 5 7 7 4 3 3 9 11 11 11 11 10 10 10 9 6 7 6 6 7 7 8 9 6 5 8 9 9 9 10 9 6 7 5 7 10
9 9 9 7 6 8 7 5 4 6 7 5 3 8 10 10 11 11 11 10 11 11 9 8 9 7 7 7 8 8 8 6 4 6 8 9 9 10 11 9 7 8 10 10
9 9 8 8 8 8 9 5 4 3 5 4 7 8 9 8 10 11 11 10 11 10 10 10 7 9 8 8 8 10 8 7 7 5 8 9 10 11 11 10 10 10 10 10
9 8 9 9 9 8 9 5 5 5 3 6 7 7 9 8 8 10 11 10 11 10 9 9 8 8 7 8 7 7 7 6 8 9 9 11 11 11 11 7 9 9 11 10
9 8 8 9 8 7 7 6 4 4 5 6 6 8 8 8 8 9 10 11 9 11 9 9 8 7 7 7 6 2 4 6 7 8 10 11 11 11 11 10 9 9 10 12
8 8 8 8 9 7 6 5 6 5 6 5 5 5 6 7 7 8 9 8 8 10 9 8 8 8 8 7 7 5 5 5 7 9 10 10 10 11 11 9 9 9 10 10
8 8 8 8 9 8 10 7 5 5 6 5 6 6 7 6 7 7 8 8 8 7 7 7 7 8 8 7 7 6 6 9 8 6 9 8 10 11 11 9 8 10 11 11
8 7 8 8 7 7 10 8 7 4 4 4 6 6 6 5 5 6 7 8 8 6 7 9 8 9 8 8 9 7 7 8 8 8 6 9 12 10 10 11 10 11 10 11
7 7 8 6 5 6 9 8 8 4 4 5 5 5 5 3 4 5 7 8 6 7 7 9 9 7 9 8 8 8 7 7 8 7 10 10 10 11 10 11 10 10 10 11
7 7 7 8 7 7 8 7 7 5 2 3 5 4 4 3 3 3 5 6 6 7 6 7 8 8 10 9 9 8 9 8 9 6 8 9 10 10 11 10 10 10 10 10
7 7 8 8 9 7 8 6 6 6 1 2 3 4 4 3 3 4 4 5 5 6 8 7 8 8 7 8 9 9 8 7 6 8 8 8 9 10 10 9 10 10 8 9
8 7 7 8 8 7 8 6 6 7 1 2 4 3 4 4 4 2 2 4 4 3 5 6 9 8 7 7 7 7 8 8 7 8 8 8 9 9 9 8 9 9 8 9
7 7 6 8 8 7 8 7 6 6 2 2 2 3 4 4 5 5 3 3 4 4 3 3 5 9 6 6 6 7 8 8 8 9 9 8 8 9 9 8 8 9 8 10
6 5 5 7 7 8 8 7 7 7 3 3 2 4 3 4 4 5 4 4 4 3 2 6 7 7 7 7 7 6 7 8 8 8 8 8 9 8 8 8 8 8 8 8
6 5 6 7 8 8 7 7 7 7 6 3 2 3 4 4 4 4 5 4 2 1 2 6 6 7 7 8 6 7 7 7 6 9 7 6 7 7 8 8 8 8 8 7
5 5 6 7 7 7 9 5 7 7 7 1 2 2 3 3 4 4 4 3 1 0 1 2 2 5 7 6 6 7 6 6 5 6 6 6 6 7 7 8 7 7 7 7
5 6 6 6 6 8 5 5 5 6 7 2 1 2 2 4 5 4 3 4 2 1 1 2 2 3 6 7 5 7 6 5 6 4 5 7 7 6 6 7 7 7 6 6
4 4 5 5 6 6 4 4 5 6 5 2 -1 1 1 3 2 3 4 4 3 2 3 2 3 4 4 4 5 5 4 4 4 3 4 4 4 5 6 6 6 6 5 5
4 4 5 5 5 3 3 5 6 6 6 1 -0 -0 -0 1 2 5 4 4 2 4 4 4 4 5 5 5 4 4 3 3 3 3 2 4 5 5 5 5 6 6 5 5
4 5 3 2 2 4 5 5 2 1 1 2 1 0 1 1 1 5 5 4 2 3 3 4 6 3 4 3 2 2 2 4 3 3 4 4 3 3 3 3 4 4 3 3
4 1 2 1 2 3 3 2 2 1 2 2 0 -0 1 1 0 3 4 1 3 4 3 5 4 4 2 1 1 1 2 3 3 3 3 3 2 2 1 1 2 2 2 2
4 2 2 2 2 1 1 1 1 1 3 0 0 -0 -0 0 1 0 3 2 4 0 5 5 5 2 1 1 2 1 1 2 2 3 2 2 2 2 2 2 2 2 2 1
3 2 1 3 1 1 1 2 1 1 0 -1 -1 -1 0 1 1 0 3 1 0 5 5 6 3 1 1 1 1 1 1 1 1 1 1 2 1 1 1 1 1 0 -1 -1
3 3 2 3 -0 1 2 4 4 3 -0 1 -0 -1 0 1 -1 4 -1 1 2 4 3 2 -1 1 1 -0 -0 -0 1 -0 -1 -1 -1 -0 0 1 1 0 -0 -1 -2 -1
3 3 4 0 0 0 1 1 2 1 2 0 -0 -2 -1 -4 -1 -1 2 3 -1 2 1 -0 -3 0 -0 -1 -1 -3 -4 -6 -8 -3 -3 -3 -1 -0 -0 -0 -1 -2 -2 -2
0 -1 -1 1 1 1 0 2 1 1 -0 -1 -1 -2 -3 -2 -2 -1 -3 -1 -2 0 -2 -3 -5 -4 -5 -4 -2 -2 -2 -3 -3 -3 -3 -2 -1 -0 -1 -1 -2 -2 -3 -3
-2 -1 -1 -1 0 1 1 2 1 1 1 0 -1 0 -1 -2 -3 -2 -4 -2 -2 -2 -3 -5 -4 -4 -6 -7 -5 -4 -3 -3 -3 -3 -2 -1 -1 -1 -2 -3 -3 -3 -4 -4

GFSNW_925_temp_111.txt.gz
Temp
6 9 9 8 6 8 8 6 6 6 7 6 2 3 8 11 12 10 10 10 9 9 8 8 2 3 3 7 7 7 8 7 7 8 8 8 9 9 9 8 8 8 5 10
7 9 8 7 6 9 8 4 4 6 6 3 3 7 9 10 11 11 11 9 11 11 9 7 7 6 7 7 7 7 8 6 4 6 8 9 9 10 10 8 6 9 6 10
10 9 8 7 7 9 10 4 3 4 6 4 6 7 8 8 9 11 11 10 11 10 9 9 7 8 7 7 7 9 8 6 7 5 8 9 10 11 11 9 6 9 9 10
9 8 7 6 9 9 10 4 3 4 5 5 5 7 8 8 8 9 11 10 10 10 9 9 8 8 6 7 6 6 6 6 7 8 8 9 10 11 11 7 9 7 9 9
8 7 7 7 7 8 8 5 4 3 4 5 6 8 7 7 8 8 9 10 10 11 8 9 8 8 8 7 7 1 3 5 6 8 9 10 10 10 9 9 9 9 10 10
8 7 6 8 7 8 6 5 5 5 5 4 5 5 6 7 7 7 8 8 8 10 8 8 8 8 8 7 7 5 4 4 7 7 9 10 9 9 10 9 9 10 9 10
7 6 6 7 8 9 8 6 5 5 6 5 6 5 7 6 7 7 7 7 8 7 7 7 7 8 8 7 5 6 7 8 8 8 8 8 10 9 10 9 9 9 10 10
7 6 6 6 7 8 8 7 6 4 4 4 5 5 5 4 5 6 7 7 6 6 7 8 8 9 8 8 8 7 7 8 8 7 5 9 10 9 9 9 10 10 10 10
6 6 6 6 6 7 7 7 7 3 4 5 5 4 4 3 3 5 7 7 6 7 7 9 9 6 8 8 8 8 7 7 7 7 9 9 10 11 10 10 10 10 10 10
6 6 5 5 6 6 6 7 7 5 2 2 4 3 4 2 3 3 5 6 6 6 6 7 8 7 9 8 8 9 9 9 9 8 8 9 10 9 10 10 9 9 9 8
6 6 5 6 6 6 7 6 6 5 1 2 3 3 3 2 2 4 4 5 5 5 6 7 7 7 7 7 8 8 7 6 6 7 9 9 8 9 10 9 9 9 8 8
7 6 6 5 6 7 7 6 5 6 1 1 3 3 3 4 4 2 2 4 3 4 5 5 6 7 5 5 6 7 8 7 8 7 7 8 8 9 9 8 9 9 8 8
6 6 5 6 7 7 7 6 6 6 1 1 2 2 4 4 4 4 3 2 3 3 2 3 4 7 4 6 6 7 7 6 7 8 8 8 8 9 8 8 8 8 8 9
6 6 5 5 6 7 8 6 6 6 2 3 2 3 3 4 4 4 4 3 3 2 2 4 4 6 5 5 6 5 6 7 7 7 8 8 8 8 8 8 8 8 8 8
6 6 5 5 6 7 7 7 6 6 6 3 2 2 3 3 4 4 5 4 1 1 3 4 5 5 5 5 5 5 5 6 6 7 6 6 6 6 7 8 8 8 8 8
5 6 5 6 6 7 8 5 6 6 6 1 2 1 2 3 4 4 3 2 -0 -0 1 2 2 4 6 5 5 6 5 5 5 6 5 5 5 5 6 7 7 7 7 7
5 5 5 5 6 7 6 5 5 6 6 1 1 1 3 4 5 4 2 2 0 1 1 2 2 3 5 5 4 6 5 5 5 3 4 6 7 6 5 6 6 6 6 6
4 4 4 5 6 6 5 5 5 6 5 1 -2 1 2 4 3 4 3 2 1 2 2 1 2 3 4 4 4 4 4 4 4 3 3 3 3 4 6 6 6 6 5 5
4 4 4 5 6 4 5 5 6 6 5 1 -1 -0 -0 2 4 3 4 2 1 2 3 3 3 4 3 5 4 3 3 4 3 2 2 3 4 4 4 4 4 4 5 5
3 3 3 2 2 4 5 5 2 1 1 1 1 -0 1 2 1 3 2 2 1 1 3 3 3 4 4 3 2 2 1 2 3 3 3 3 2 2 2 3 3 3 3 3
2 1 2 1 2 3 3 2 2 1 2 1 -0 -1 1 0 0 0 2 -0 -1 -0 2 2 3 3 2 1 1 0 1 2 2 3 3 3 2 2 2 2 1 1 2 2
3 2 2 2 2 2 3 1 1 1 3 -0 -0 -0 0 -0 0 -0 -1 -0 -1 0 3 3 1 2 1 -0 1 0 -0 1 1 2 1 1 2 2 2 2 2 2 2 1
3 2 2 3 2 2 1 1 -1 -1 0 -1 -1 -0 0 0 1 -1 -2 -3 -1 2 5 5 2 1 0 -0 0 0 0 1 1 0 0 0 0 1 0 1 1 1 0 -0
3 2 2 3 2 1 0 1 3 2 -0 0 -1 -1 0 1 -1 -0 -1 1 1 5 2 1 -1 0 0 -1 -1 -0 1 0 -1 -2 -2 -2 -2 -2 -1 -0 0 -0 -1 -1
2 3 5 1 1 -0 1 0 2 1 2 0 -1 -2 -1 -5 -0 -1 2 3 -1 1 1 -0 -3 -0 -1 -2 -1 -3 -4 -6 -9 -4 -4 -4 -3 -3 -2 -0 -0 -1 -2 -2
0 -1 -0 1 1 1 1 1 1 1 2 -1 -2 -4 -3 -2 -2 -3 -2 -1 -1 0 -2 -4 -5 -4 -5 -5 -3 -2 -2 -3 -4 -4 -4 -4 -3 -3 -2 -1 -1 -2 -3 -3
-0 -1 -1 -2 -1 1 1 2 1 2 3 1 -2 -0 0 -3 -4 -3 -5 -2 -1 -3 -2 -5 -5 -4 -5 -8 -6 -4 -3 -3 -4 -4 -3 -3 -2 -2 -2 -3 -2 -3 -3 -4

GFSNW_925_temp_114.txt.gz
Temp
6 7 7 8 6 6 8 6 6 5 6 6 2 3 7 11 11 10 9 9 9 9 8 8 0 2 2 6 6 6 8 5 4 7 9 8 8 9 9 6 8 8 5 11
7 9 8 6 6 7 8 5 5 5 6 3 2 6 9 10 11 11 9 10 10 11 9 8 6 5 6 7 7 7 7 5 3 6 8 8 9 9 9 8 6 9 7 10
8 8 7 6 6 7 9 4 5 5 6 5 6 7 8 8 9 11 10 10 10 10 9 8 8 7 7 7 6 9 7 6 6 6 8 8 9 9 9 8 8 6 9 9
8 8 7 6 7 8 8 4 3 6 6 6 5 7 7 7 8 9 10 10 10 10 9 9 8 9 6 6 6 5 5 6 6 8 8 8 10 9 8 9 9 7 9 10
8 7 6 6 7 8 8 6 4 2 3 3 5 7 7 7 7 8 9 9 10 10 7 8 8 8 7 7 6 0 3 5 7 7 9 9 9 10 9 9 9 9 9 9
7 7 6 6 6 7 7 4 5 4 4 4 5 5 6 7 7 7 7 8 8 8 8 8 8 8 7 7 6 4 4 4 6 5 8 10 9 8 8 9 9 9 9 10
7 6 6 6 7 7 8 5 4 5 5 5 6 5 7 6 7 7 7 7 8 7 7 7 8 8 8 6 5 5 7 8 7 6 7 7 9 8 9 9 9 9 9 9
6 6 6 6 7 6 8 6 5 3 4 4 5 5 4 4 4 5 7 7 5 5 7 8 8 9 8 8 8 8 7 7 8 6 9 9 9 10 9 9 9 9 9 9
6 6 6 6 6 6 8 6 5 3 3 4 4 4 4 3 3 5 6 6 5 6 6 9 8 6 8 8 8 8 8 7 7 7 7 8 10 11 9 9 9 10 9 9
6 6 5 6 6 6 7 6 6 4 2 1 3 3 4 2 3 3 5 6 6 6 6 7 6 7 8 8 8 9 9 8 9 9 7 8 9 8 8 10 9 9 8 7
6 5 5 7 6 6 6 6 6 5 0 1 2 2 2 2 2 4 3 5 5 4 6 6 6 7 6 7 8 8 7 6 7 6 8 8 7 9 10 8 9 9 7 7
6 6 6 7 7 6 7 6 5 5 1 1 2 2 3 3 3 1 2 3 3 4 5 5 5 7 4 5 6 6 7 6 7 7 7 7 7 8 8 8 9 8 7 7
5 6 6 6 6 6 6 6 5 5 1 1 1 2 3 4 4 4 3 2 3 3 2 3 4 7 4 5 5 7 7 5 6 7 8 8 8 8 8 8 8 8 8 8
6 6 6 6 6 6 7 7 6 5 2 2 2 3 3 3 4 4 4 3 2 2 1 3 4 6 4 4 5 5 5 6 6 6 7 8 8 7 6 8 8 8 8 7
5 6 6 6 6 6 7 7 6 6 5 2 2 2 3 3 4 4 4 3 1 1 3 3 4 3 4 4 4 4 4 6 6 6 5 6 6 6 6 7 8 7 7 7
5 5 6 6 6 6 7 5 6 6 6 1 2 1 3 3 4 3 2 2 -0 -0 2 2 2 3 4 4 4 5 4 4 4 5 5 4 5 5 6 6 7 7 7 6
5 5 5 5 5 5 5 5 5 5 5 2 2 2 3 3 4 2 1 1 -0 0 0 2 1 3 4 4 4 6 4 3 3 3 4 6 6 6 5 6 6 6 6 6
5 5 4 4 5 5 6 5 5 5 5 1 -0 1 2 4 3 2 1 1 0 1 1 1 2 3 3 3 4 4 3 3 2 3 3 3 3 3 4 5 5 5 5 5
5 4 3 3 4 4 5 5 6 5 5 1 1 1 1 2 2 1 2 1 1 1 2 2 3 3 3 4 3 2 2 3 3 2 3 3 3 3 2 2 2 3 3 3
3 2 2 2 2 4 5 5 1 0 0 1 1 0 2 3 2 2 0 1 0 -1 2 2 2 3 4 3 2 2 1 2 1 3 3 3 2 2 2 2 2 2 2 2
2 0 1 1 2 3 2 2 1 1 2 1 -0 -1 1 0 0 -0 1 -1 -2 -1 2 1 1 3 1 1 0 0 0 1 2 3 2 2 2 1 0 1 2 2 2 2
2 2 1 2 2 2 3 1 0 0 3 -1 -0 -0 0 -0 0 -0 -1 -1 -2 -0 1 1 0 1 1 -1 -0 -1 -1 0 1 2 1 1 1 0 -0 -0 -0 0 1 1
2 1 1 2 2 2 3 2 -2 -3 -0 -0 -0 0 0 -0 1 -1 -2 -3 -1 2 4 4 2 1 -1 -1 -1 -1 -1 0 0 0 -0 -0 -1 -0 -1 -1 -0 -0 -0 0
2 2 3 4 3 2 0 1 2 1 1 1 1 -1 0 1 -0 -0 -1 1 0 4 0 1 -1 -0 -1 -1 -1 -1 -1 -1 -1 -1 -2 -2 -3 -3 -2 -2 -2 -2 -1 -0
2 2 4 3 1 -2 -2 -1 0 -0 2 0 -1 -2 -1 -4 -1 0 1 2 1 1 1 -0 -3 -1 -1 -2 -2 -3 -4 -6 -8 -5 -5 -4 -4 -4 -4 -2 -2 -1 -2 -2
1 0 -1 0 -1 1 1 -1 1 1 2 -1 -1 -2 -2 -2 -1 -1 -0 -0 -1 1 -2 -4 -5 -3 -4 -4 -2 -3 -3 -3 -4 -4 -4 -4 -4 -4 -3 -2 -2 -2 -3 -3
0 -0 -1 -0 -3 0 1 2 2 3 4 1 -1 2 2 -3 -4 -2 -4 -2 -2 -3 -4 -5 -5 -3 -5 -7 -6 -5 -4 -4 -4 -4 -4 -4 -4 -3 -3 -4 -3 -3 -3 -4

GFSNW_925_temp_117.txt.gz
Temp
9 9 7 6 7 8 8 6 6 5 6 6 3 2 7 11 10 10 9 9 9 8 8 3 -1 0 1 6 6 6 6 5 5 8 9 8 7 8 9 7 9 8 9 10
8 8 7 6 7 8 7 5 5 5 6 5 3 6 8 10 11 10 10 9 10 10 9 5 5 4 6 6 6 6 7 5 4 7 10 9 8 10 8 8 8 8 10 11
9 8 7 6 7 8 8 4 6 5 6 5 6 7 8 9 9 11 10 10 9 10 9 8 7 6 7 6 6 8 7 6 6 7 8 8 9 9 10 8 10 10 10 10
9 7 6 6 7 8 9 4 3 5 6 6 5 6 7 8 8 9 9 9 9 10 9 9 8 8 5 6 6 5 5 6 6 7 8 8 8 8 10 9 9 11 10 10
8 8 6 7 8 9 7 5 4 2 2 3 5 6 7 7 7 8 8 9 8 8 7 8 8 8 6 8 6 0 3 5 6 8 8 9 9 8 8 9 9 9 10 10
7 7 6 6 7 8 6 3 4 4 3 3 4 5 6 7 6 7 7 8 7 7 8 8 8 8 7 6 6 4 4 5 6 5 7 9 9 8 8 9 9 9 9 9
6 6 6 6 7 7 6 5 4 4 5 5 5 6 6 6 7 7 6 7 8 7 7 7 8 8 7 6 6 5 6 7 7 5 7 7 9 8 8 9 10 8 8 8
6 6 6 6 7 7 7 5 5 3 4 4 5 5 4 5 4 5 6 6 5 5 7 9 9 9 8 9 8 8 7 6 7 8 9 9 10 10 9 8 9 8 8 8
6 6 6 6 6 7 8 5 5 3 4 4 4 3 4 3 3 4 5 6 5 6 6 9 8 6 8 8 9 8 8 8 7 7 7 7 9 10 8 9 9 9 8 8
6 6 6 6 6 7 7 5 6 4 2 1 3 3 3 2 3 3 5 6 6 5 5 7 6 7 7 7 7 9 10 8 9 11 7 7 9 8 8 9 9 9 7 7
6 6 6 6 6 7 7 5 6 5 1 1 1 2 2 2 2 4 3 5 5 4 6 6 6 6 6 6 7 6 6 6 7 6 8 8 7 8 10 9 9 9 8 7
6 6 6 6 6 6 7 6 5 5 1 1 2 2 2 2 3 1 1 4 3 4 5 4 4 6 3 4 5 5 7 6 6 7 7 6 7 8 8 8 8 8 7 7
6 6 5 5 6 6 7 7 5 5 1 1 2 2 3 3 3 3 4 1 3 3 1 2 4 7 4 5 5 6 6 4 6 7 7 7 8 8 8 8 8 8 8 8
5 6 5 6 6 7 7 6 6 6 2 2 2 3 3 3 4 4 4 3 2 1 1 3 4 6 3 4 5 5 5 4 5 6 6 7 8 6 6 7 8 8 8 7
6 6 5 5 5 6 6 6 6 6 6 3 1 2 3 3 3 3 3 3 1 1 3 3 5 3 4 2 3 3 3 5 5 6 5 6 6 6 6 7 7 7 7 7
5 5 5 5 5 5 6 4 6 6 6 1 2 1 3 3 3 3 2 1 -1 -0 2 2 1 2 4 4 4 5 3 3 4 5 4 5 5 5 6 7 7 7 7 6
5 5 5 5 5 5 4 4 6 5 6 1 2 2 3 3 3 1 0 1 -0 0 0 2 1 2 3 3 3 5 3 3 3 3 4 5 5 5 4 4 6 6 6 6
5 5 5 4 4 4 4 4 5 5 5 1 -1 1 1 3 2 2 0 1 0 1 1 0 2 2 2 3 3 4 2 2 2 2 3 3 3 3 3 4 4 5 4 4
5 5 4 3 3 3 5 4 5 5 4 1 0 0 0 1 1 1 1 1 1 1 2 2 2 3 3 4 3 2 1 2 3 2 2 3 3 2 2 2 2 2 2 2
4 4 3 1 2 4 3 3 1 0 0 1 2 1 1 1 1 1 0 0 -0 -2 2 1 2 3 3 3 2 2 1 1 1 2 2 2 2 1 2 2 1 1 1 1
4 1 1 1 2 2 2 2 1 1 2 1 -0 -1 1 0 0 1 1 -1 -1 0 2 1 0 1 1 1 1 -0 0 0 1 2 1 1 2 1 0 -0 0 0 0 0
2 2 1 1 1 2 3 2 0 0 3 -1 -1 -0 0 -0 -0 0 -1 -0 -2 -0 1 1 0 1 0 -1 -1 -1 -1 -1 -0 1 0 0 1 -0 -1 -1 -1 -1 -0 -0
2 1 1 2 2 3 2 1 -2 -4 -1 -1 -0 1 0 -1 0 -1 -2 -2 -0 1 3 3 2 0 -1 -1 -2 -2 -1 -0 -1 -1 -0 -0 -1 -1 -2 -2 -2 -2 -2 -1
2 2 3 3 2 2 1 -0 -0 -0 -1 1 2 0 1 1 -0 -1 -0 1 1 4 2 1 -1 -0 -1 -2 -2 -2 -2 -2 -2 -1 -1 -2 -2 -3 -3 -3 -3 -3 -3 -2
2 2 4 3 1 -2 -4 -3 -2 -1 2 1 -0 -1 -1 -2 -2 0 0 1 2 2 2 1 -3 -1 -1 -2 -2 -3 -4 -6 -8 -5 -5 -4 -4 -4 -4 -3 -3 -3 -3 -3
2 2 2 -1 -1 1 1 -3 -2 -0 3 -0 -1 -2 -2 -2 -1 -1 0 0 1 2 -1 -3 -4 -1 -3 -3 -3 -3 -3 -4 -4 -4 -4 -4 -4 -5 -4 -4 -3 -3 -3 -4
1 0 -1 -1 -3 0 0 -0 1 2 3 2 -1 1 2 -3 -4 -2 -2 0 1 -2 -4 -5 -3 -2 -4 -5 -6 -5 -4 -5 -4 -4 -4 -4 -3 -3 -4 -5 -3 -3 -3 -4

GFSNW_925_temp_123.txt.gz
Temp
8 8 7 7 8 8 8 8 7 6 7 9 11 11 11 11 12 13 13 13 12 12 12 9 8 7 7 10 10 9 11 9 10 12 12 11 8 12 13 12 12 12 12 11
7 7 7 7 7 7 8 7 7 7 7 9 11 11 12 12 13 12 12 12 13 13 12 11 11 10 11 10 10 10 11 12 12 13 13 14 10 12 13 12 11 11 13 11
7 8 8 7 7 8 10 11 7 9 10 11 12 12 12 11 12 12 13 13 13 13 12 12 11 11 10 10 10 9 10 13 12 11 10 9 10 11 12 12 12 12 11 10
8 8 8 8 9 9 9 11 9 10 8 10 11 11 12 11 11 12 13 12 13 13 12 13 12 12 11 10 10 11 11 12 13 13 12 11 12 11 12 10 11 11 10 10
7 8 8 8 9 9 9 11 10 10 10 11 11 9 11 11 11 11 12 12 12 13 12 12 11 11 12 11 11 9 11 13 13 13 14 13 12 11 12 10 11 12 13 11
7 7 7 8 8 9 10 8 9 12 8 11 12 12 11 11 11 11 11 12 12 12 11 12 12 12 12 11 11 11 11 12 13 13 14 14 13 11 9 10 11 10 11 11
7 7 7 8 8 7 7 7 9 12 11 12 11 10 11 11 11 11 11 12 12 11 11 11 12 12 12 12 12 12 12 13 13 13 15 13 13 13 11 11 11 12 13 14
7 7 7 7 7 7 6 6 7 12 12 12 10 10 10 10 10 10 11 10 10 10 11 11 12 13 13 13 13 13 13 13 13 13 13 13 13 13 12 12 11 13 13 14
7 6 6 7 7 7 7 5 5 9 12 11 11 10 11 11 12 10 10 9 9 10 10 11 12 13 13 13 13 13 13 13 13 13 13 14 14 13 12 13 12 12 13 13
6 6 6 6 7 7 7 6 6 7 10 8 9 11 10 11 11 12 10 10 10 10 11 11 13 14 12 13 13 13 13 13 13 14 13 14 13 12 12 13 11 12 12 12
6 6 6 6 6 6 7 6 6 6 9 7 5 7 8 8 10 12 10 10 10 10 11 12 13 13 13 12 13 13 13 13 14 13 13 13 12 12 13 12 11 11 10 11
5 6 6 6 6 5 6 7 6 6 6 6 3 4 3 4 5 10 9 10 10 12 12 13 13 13 12 13 14 12 12 13 14 13 14 12 12 13 12 13 12 11 11 10
5 5 6 6 6 5 5 6 6 6 7 7 5 6 4 3 4 4 10 10 9 9 9 12 13 12 13 13 14 13 12 12 12 12 13 12 12 12 12 12 12 12 11 11
4 5 5 6 5 5 6 6 6 6 7 7 7 4 4 3 3 3 5 6 6 7 9 11 12 12 11 13 12 12 14 11 13 13 12 12 12 13 12 11 11 11 11 11
4 5 6 7 6 5 6 6 6 6 8 8 8 4 4 3 3 4 4 6 7 9 10 10 11 11 10 11 10 11 12 13 13 15 15 14 14 12 12 11 11 11 11 10
5 5 6 6 5 5 5 6 4 4 6 7 7 5 5 4 4 4 5 6 7 8 10 11 11 8 9 11 12 14 14 14 15 14 13 13 13 12 11 11 11 10 10 10
4 5 6 5 5 5 6 7 5 4 6 7 7 6 5 4 5 5 5 4 6 7 9 8 9 8 8 10 11 15 13 12 12 11 10 10 10 10 10 10 9 8 9 8
4 5 5 5 4 4 4 5 5 5 6 6 6 6 5 5 5 6 5 6 6 6 8 7 7 8 8 8 12 13 12 11 10 10 10 12 11 10 9 8 8 9 8 8
4 4 5 4 4 4 4 4 5 4 5 6 5 6 6 5 6 6 5 6 6 6 6 7 8 9 8 10 12 12 10 9 9 10 8 9 8 8 8 8 7 7 7 7
4 4 4 3 2 3 3 2 4 5 5 5 6 7 5 5 5 6 6 5 7 6 7 7 6 8 10 11 12 12 10 9 9 7 6 7 8 7 7 7 7 6 6 5
4 3 3 2 2 2 3 4 4 6 5 6 7 7 3 3 5 6 6 5 6 5 8 6 8 8 9 11 11 10 10 9 8 9 9 8 8 7 7 6 5 4 4 4
4 3 2 2 2 2 4 5 5 5 7 7 4 4 5 3 5 6 3 5 3 5 6 5 6 10 10 8 10 9 9 8 8 8 8 7 7 6 6 5 4 3 2 2
3 2 1 3 3 4 4 5 5 6 6 4 3 3 3 2 3 5 4 3 4 6 5 7 9 9 6 7 7 7 8 7 7 6 5 5 4 3 3 3 1 1 1 1
3 3 4 4 5 5 7 7 8 7 5 3 5 3 4 3 2 3 3 6 4 5 5 7 9 9 6 6 5 6 5 5 4 4 3 3 2 1 0 0 -0 -0 -0 -1
3 3 5 5 7 6 5 6 5 4 4 5 4 3 4 3 3 3 4 3 4 6 8 7 7 6 5 4 4 4 3 2 1 1 0 0 -0 -0 -1 -2 -2 -2 -2 -2
2 3 5 5 5 4 2 3 4 4 5 5 5 3 3 4 4 3 3 5 6 8 6 5 3 3 3 3 3 3 2 1 0 -0 -1 -2 -2 -2 -2 -3 -3 -3 -3 -3
3 4 4 6 5 6 4 4 4 5 5 6 4 4 7 3 4 4 6 6 9 7 5 2 3 2 2 2 1 0 0 -0 0 -0 -0 -1 -1 -2 -2 -2 -3 -3 -3 -4

GFSNW_925_temp_126.txt.gz
Temp
8 7 7 7 8 7 8 7 7 8 8 8 11 10 12 11 13 13 13 13 13 13 12 8 7 7 6 10 10 9 10 8 8 11 12 12 9 10 11 10 11 11 11 11
7 7 6 7 7 8 7 8 8 9 8 9 10 12 12 13 13 13 13 13 13 13 13 10 11 9 11 11 10 9 10 8 9 11 12 13 10 10 11 11 11 10 10 11
8 8 8 8 9 9 9 9 8 9 10 11 12 12 12 11 13 12 13 13 13 13 13 13 12 12 11 10 10 10 9 10 11 9 10 10 10 10 10 11 10 11 10 10
8 8 8 9 10 10 10 10 10 10 8 10 11 12 12 12 12 12 13 13 13 12 12 13 12 12 12 10 11 9 10 10 12 13 13 12 11 11 11 10 10 10 10 10
7 7 8 9 9 9 10 8 9 10 10 11 12 10 11 12 11 11 12 12 12 13 11 11 10 11 11 10 10 7 10 10 12 12 14 14 11 11 11 11 11 11 11 11
7 7 7 8 9 10 10 9 10 9 9 11 11 11 11 11 11 11 11 11 12 12 11 11 11 12 12 11 11 10 10 9 11 9 13 14 11 10 10 11 11 10 10 12
7 7 7 7 8 9 8 7 7 9 10 10 11 11 11 11 11 11 11 11 11 10 11 11 10 11 12 12 12 11 10 11 12 8 11 10 12 12 12 12 12 12 12 13
6 7 7 6 6 8 9 7 7 8 9 11 10 10 11 10 10 10 11 10 9 10 10 10 11 12 12 12 12 12 12 11 10 9 8 11 12 12 12 12 11 12 12 11
6 6 7 7 6 7 7 7 7 7 7 8 9 10 11 9 9 9 10 9 10 10 10 11 10 10 12 13 13 12 12 11 10 11 11 11 12 12 12 12 10 11 12 10
6 6 6 6 6 7 6 6 7 8 7 6 7 8 8 10 10 9 9 9 9 10 10 11 10 11 12 11 12 13 12 12 11 12 10 12 12 12 12 10 11 10 10 11
5 6 6 6 6 6 6 6 6 7 7 6 6 7 7 7 8 9 9 9 9 8 9 10 11 11 11 10 13 13 11 10 9 11 12 10 12 11 11 10 10 10 10 10
5 5 6 6 6 6 6 7 7 6 6 5 5 5 5 5 5 4 8 8 9 9 9 10 10 10 11 11 10 12 9 10 11 11 10 11 12 11 12 11 10 10 9 10
4 5 6 6 6 6 5 6 6 6 6 5 4 5 4 4 4 4 5 8 7 8 7 7 8 9 10 9 10 12 11 10 9 10 10 9 10 11 11 11 10 10 10 10
4 4 5 5 5 5 5 6 6 6 7 6 5 4 4 4 4 4 5 5 6 6 6 7 8 9 10 9 9 9 10 9 10 10 10 11 10 10 10 11 10 10 10 10
5 5 5 6 6 5 5 5 6 6 5 6 6 5 4 4 4 4 4 5 5 6 6 6 7 9 8 8 7 7 9 9 9 9 10 10 10 10 10 9 10 10 9 9
5 5 6 6 6 5 5 5 5 6 6 4 5 4 4 4 4 4 5 5 5 5 6 6 7 7 7 6 7 10 10 11 11 11 11 11 10 9 10 9 9 9 9 9
5 5 5 6 6 5 5 6 5 5 5 5 5 5 4 4 5 4 3 4 4 4 5 5 6 6 6 6 7 11 11 10 10 9 9 9 9 8 8 9 9 9 9 8
5 5 5 5 5 4 4 5 5 5 5 5 3 4 3 4 4 4 4 4 3 4 4 5 4 5 5 5 8 10 11 9 8 8 10 9 8 7 7 8 7 7 6 6
4 4 5 4 4 4 4 4 4 4 4 4 3 4 3 4 4 4 3 4 3 4 4 4 5 5 5 7 8 8 8 8 7 7 7 8 7 6 6 6 6 6 6 5
4 4 4 3 3 3 4 3 3 2 3 3 3 5 2 3 4 4 5 4 3 2 5 4 4 5 8 7 8 8 8 7 7 5 5 6 6 5 5 5 5 5 4 4
3 3 3 2 2 3 3 3 3 4 4 3 3 4 1 2 4 4 5 4 2 2 5 3 4 5 5 8 9 7 7 7 8 7 6 6 6 5 4 4 4 4 3 2
4 3 2 2 2 2 4 4 4 4 4 4 3 2 2 1 3 4 3 4 2 2 4 2 3 6 6 8 8 7 7 6 6 6 5 5 5 5 4 3 2 2 2 1
3 2 2 2 3 3 4 4 4 2 3 2 1 1 1 1 2 3 3 3 3 4 3 4 5 7 5 5 5 6 5 5 5 5 5 5 4 5 3 2 2 1 1 0
3 3 3 3 3 4 4 5 3 3 2 2 2 -0 1 2 1 3 3 4 3 0 2 3 5 7 4 4 4 4 4 3 2 2 2 1 1 1 2 1 1 0 -0 -1
2 2 4 4 4 3 3 2 2 1 3 3 1 -0 1 1 0 2 3 2 1 2 4 4 3 5 4 2 3 3 2 1 -0 -1 -1 -1 -1 -1 -1 -1 -1 -1 -1 -2
2 2 3 4 4 2 1 1 1 1 3 1 1 0 -1 0 1 0 1 1 2 3 3 2 1 2 2 1 2 1 0 -1 -1 -2 -2 -2 -2 -3 -3 -2 -2 -2 -2 -3
2 3 3 2 3 3 2 1 1 3 3 1 1 2 2 0 -0 0 1 1 4 4 2 1 1 2 1 1 0 -1 -1 -2 -2 -2 -2 -2 -1 -2 -3 -5 -3 -3 -3 -3

GFSNW_925_temp_129.txt.gz
Temp
7 7 7 8 8 9 9 8 4 10 9 5 5 5 11 12 11 12 12 12 12 12 9 6 3 4 5 9 9 7 8 6 6 9 11 10 8 10 10 11 11 10 10 11
7 8 8 8 9 9 9 5 5 10 8 4 5 10 11 11 12 11 12 12 12 13 11 9 9 7 9 9 9 8 8 6 6 8 11 11 10 9 10 11 10 11 11 11
7 8 8 9 10 9 9 6 6 4 5 6 9 10 10 10 11 12 12 12 12 12 12 11 11 11 10 9 9 10 8 7 9 8 10 9 10 9 9 10 10 10 11 10
7 8 8 9 9 9 9 5 5 7 4 6 8 8 10 11 10 11 12 12 11 11 11 10 10 10 10 9 10 9 7 7 11 11 11 11 10 10 10 10 10 10 10 10
7 7 7 8 9 9 9 5 5 5 5 7 8 8 10 10 10 10 11 11 11 10 10 9 9 9 9 10 9 4 7 8 10 10 12 11 10 10 10 11 10 10 10 10
7 7 7 7 8 9 8 7 7 5 6 6 7 7 10 10 10 10 11 10 9 9 9 9 9 8 8 10 10 8 8 7 8 6 11 11 9 10 10 11 11 10 10 10
7 7 6 7 7 8 7 7 5 4 7 6 8 9 9 9 9 9 10 9 9 9 8 8 8 8 8 9 9 9 9 9 9 7 9 8 10 11 12 11 11 11 11 11
7 6 6 6 7 7 7 6 5 4 6 6 7 9 9 8 9 9 9 9 8 7 8 8 8 9 10 10 10 9 8 9 7 7 4 10 11 11 11 11 11 11 9 9
6 6 6 6 6 7 7 7 6 4 4 6 7 8 9 6 6 6 9 9 9 8 8 8 9 8 11 11 11 10 10 9 7 9 9 10 12 11 11 11 9 10 10 8
6 6 7 6 6 6 7 7 6 5 4 4 6 6 6 7 6 6 7 8 8 8 7 7 7 8 11 9 10 10 9 8 8 8 7 9 11 11 11 10 10 9 9 8
6 6 6 6 6 6 6 6 7 6 3 4 5 6 6 6 4 5 6 6 6 6 7 7 8 8 8 9 9 11 9 7 6 8 10 9 10 10 10 9 9 8 9 8
5 6 6 6 6 6 6 6 6 6 4 4 5 5 5 6 5 3 5 6 6 6 6 6 6 8 7 8 8 10 9 9 9 9 9 9 9 11 10 9 8 9 8 9
5 5 6 6 6 6 6 6 6 6 3 3 3 3 5 5 5 6 5 4 5 6 4 5 5 7 6 7 7 10 9 8 9 9 10 9 9 10 10 9 9 8 8 9
5 5 5 6 6 6 6 5 6 6 4 3 4 4 4 5 4 4 5 5 5 5 4 5 5 6 7 6 7 7 8 8 8 8 9 10 9 8 9 9 8 9 9 9
6 5 5 6 6 6 5 5 5 6 5 3 3 4 4 4 4 4 4 4 4 3 4 4 5 5 6 5 5 4 6 7 8 8 8 9 8 7 8 8 8 8 8 8
6 5 5 6 6 6 5 4 5 5 5 1 2 3 3 4 4 4 3 3 3 3 3 4 4 6 6 5 5 7 6 7 8 10 9 9 10 8 8 8 8 8 7 7
5 5 5 6 6 5 5 4 5 5 5 3 2 3 3 4 4 3 3 3 2 2 3 3 4 5 5 4 6 8 8 8 8 9 8 9 8 7 7 8 8 8 7 7
5 5 5 5 5 5 5 5 5 5 5 4 -1 2 1 4 2 2 3 3 2 2 3 3 3 4 4 4 6 7 8 9 7 6 8 8 7 6 6 6 6 5 5 4
4 4 4 4 4 4 4 4 5 5 5 4 1 1 1 2 2 2 2 2 3 3 3 3 3 4 4 6 6 6 6 6 6 6 7 6 6 6 5 5 5 5 4 4
4 4 4 3 3 3 3 3 2 2 2 2 2 1 1 1 1 2 2 2 3 0 4 3 3 4 6 7 7 8 6 6 5 5 5 5 5 5 5 5 4 4 3 2
4 3 3 2 2 3 2 4 4 3 3 3 2 1 0 0 1 1 2 0 1 0 3 4 1 3 5 5 6 7 6 5 6 7 7 6 6 5 4 3 3 3 2 1
4 3 2 2 2 2 4 4 3 3 4 1 0 0 0 0 1 0 0 0 1 1 3 2 1 5 6 5 5 6 5 5 5 4 5 4 5 5 4 3 2 2 2 2
4 2 2 2 2 3 4 3 2 2 1 -1 -1 -1 -0 0 1 0 -1 1 2 2 2 3 2 6 6 5 4 5 4 5 5 3 4 4 4 4 3 1 2 2 1 1
2 3 3 3 2 3 3 2 1 1 -1 -1 -2 -3 -1 1 1 -0 1 1 1 2 2 2 5 6 6 4 3 4 3 3 3 3 2 2 2 1 2 1 1 0 -1 -1
3 2 3 3 2 -1 0 0 0 -1 0 0 -1 -2 -1 -1 -2 2 -0 2 1 0 1 2 1 4 4 3 3 2 1 1 0 0 0 -1 -0 -0 -1 0 0 0 -1 -2
2 2 2 2 2 -1 -2 -2 -1 -3 0 -2 -2 -3 -0 -1 -1 1 0 -2 -1 1 0 -1 -1 1 1 1 2 1 -0 -1 -1 -1 -1 -1 -2 -2 -3 -1 -1 -1 -1 -2
2 2 3 1 -0 2 1 -1 -1 0 1 -1 -2 -0 1 -2 -2 0 -3 -2 0 0 -1 -2 -1 0 1 1 -0 -1 -2 -3 -2 -2 -2 -2 -2 -2 -4 -5 -3 -2 -2 -2

GFSNW_925_temp_132.txt.gz
Temp
7 7 8 9 10 10 10 6 4 10 10 5 3 4 10 12 11 12 12 12 11 10 8 5 2 3 4 7 9 7 8 5 5 9 10 9 8 9 10 10 11 10 10 10
8 8 8 9 9 9 8 4 4 9 9 4 4 9 10 10 11 11 11 11 11 12 11 8 7 7 8 8 8 8 8 5 6 8 10 11 9 9 9 10 10 10 11 10
7 8 8 8 8 9 8 4 3 4 4 4 8 9 10 10 11 11 11 11 11 11 11 11 10 10 10 9 9 10 8 6 8 9 10 9 8 10 9 10 10 10 10 10
7 7 8 8 9 9 8 3 4 6 4 6 8 8 9 10 9 10 11 11 10 10 10 9 9 9 9 9 10 9 7 7 9 9 9 10 10 10 10 9 9 10 10 10
7 7 7 8 8 9 9 5 5 4 5 6 8 6 9 9 10 10 9 9 8 9 9 9 8 8 9 9 9 3 6 7 8 9 11 10 10 10 10 10 10 10 10 10
7 7 7 7 8 9 7 6 6 4 5 6 6 6 9 9 10 10 10 9 9 9 9 8 7 7 7 7 8 7 7 5 7 6 9 10 9 10 10 11 10 9 10 10
7 7 7 7 7 8 7 6 5 4 7 5 7 8 9 9 9 8 9 9 9 9 7 7 7 7 7 7 7 7 8 7 8 6 8 8 10 10 11 11 11 10 10 10
6 6 7 7 7 7 7 6 5 3 6 5 7 8 9 8 8 8 8 9 8 6 7 7 7 7 9 10 8 8 7 8 7 6 3 9 10 10 10 10 10 10 9 8
6 5 6 6 6 7 7 6 6 4 4 6 7 7 8 5 6 6 8 8 8 8 6 7 8 7 10 10 9 9 8 7 7 7 8 9 11 10 11 11 9 10 9 8
7 6 6 6 6 6 7 6 6 5 4 3 6 5 6 5 5 5 5 8 8 7 6 7 6 8 9 9 9 9 8 7 7 7 7 8 10 10 10 10 11 9 9 8
7 6 6 6 6 6 6 6 6 6 2 3 5 6 6 5 4 5 6 6 6 5 7 6 7 7 7 8 8 10 8 6 5 7 8 8 9 9 10 9 8 8 8 8
7 6 6 6 6 6 6 6 6 6 4 4 5 6 6 6 6 4 4 5 5 5 5 5 5 7 5 6 7 8 8 8 8 8 8 9 8 10 9 7 8 8 8 8
7 6 6 6 6 6 6 6 6 5 2 2 3 4 5 5 5 5 5 3 5 5 4 4 5 6 5 6 6 8 8 7 7 9 9 8 8 9 8 8 8 7 8 7
7 6 6 5 5 5 5 5 6 5 4 3 3 4 4 5 4 4 4 4 4 4 3 4 4 6 6 5 7 6 7 8 7 6 7 7 7 7 8 8 7 7 7 7
6 6 6 6 5 5 5 5 5 5 5 4 3 3 4 4 4 4 4 4 3 2 3 3 4 4 5 4 4 3 5 7 8 10 8 8 8 7 7 7 7 7 7 6
6 6 6 5 6 6 5 4 5 5 5 2 2 3 3 3 3 3 3 2 2 2 3 3 3 4 6 4 4 6 5 5 7 9 9 7 8 6 7 7 7 6 6 6
6 6 5 5 6 6 5 4 5 5 5 2 2 2 2 3 3 2 1 2 1 1 2 2 3 4 5 4 4 7 6 6 6 5 8 8 7 8 6 7 7 8 7 6
6 5 5 5 5 5 5 5 5 5 5 3 -1 2 1 3 1 1 1 1 0 1 2 2 3 3 3 5 6 8 8 7 6 5 6 8 7 6 5 6 5 4 4 3
5 5 4 4 5 4 4 4 4 4 4 2 0 0 1 1 1 1 1 1 2 1 2 2 3 3 4 7 7 7 6 6 7 5 5 5 6 5 5 5 4 4 3 3
4 4 4 3 3 3 4 3 3 2 2 2 2 1 1 1 1 1 0 1 1 -1 2 1 3 3 6 7 8 8 5 5 5 5 5 4 5 5 5 5 5 5 3 2
4 3 2 2 2 3 2 3 4 4 3 3 3 1 -0 -0 1 0 1 -1 -1 1 1 1 0 2 5 7 6 6 6 6 5 6 8 6 6 5 5 3 3 3 2 2
4 3 2 2 2 2 4 4 4 3 4 1 -0 -1 0 -0 0 -0 0 1 1 2 1 0 1 3 5 5 6 5 4 4 5 5 5 4 4 5 5 4 2 2 3 3
3 2 1 2 2 3 3 3 4 1 0 -1 -1 -1 -0 -0 1 -0 1 1 2 1 0 2 2 3 6 5 5 4 3 3 3 3 4 4 4 4 4 2 2 2 1 1
1 3 2 2 3 3 3 3 3 2 -2 -1 -2 -3 -1 0 1 -0 0 1 -0 2 1 -0 0 4 4 3 3 2 3 2 2 2 2 2 2 2 3 2 2 1 -1 -0
2 2 3 2 3 1 1 1 1 -0 -0 -1 -1 -3 -2 -3 -2 1 -0 1 1 0 1 0 -0 2 1 2 2 2 1 -1 -2 -3 -2 -1 0 0 -1 0 1 1 -0 -1
2 2 2 2 2 1 0 0 3 -1 0 -3 -2 -2 0 -1 -2 0 1 -2 -1 1 -1 -2 -4 -2 -1 -2 1 1 1 0 -1 -1 -1 -1 -1 -1 -2 -1 -0 -0 -0 -2
2 2 3 3 1 3 3 1 1 1 1 -0 -3 -1 0 -3 -1 0 -3 -3 -0 -1 -2 -4 -3 -3 -2 -2 -3 -3 -2 -2 -2 -2 -1 -2 -2 -2 -2 -3 -3 -1 -1 -1

GFSNW_925_temp_135.txt.gz
Temp
8 8 8 9 9 10 9 6 4 10 9 5 2 4 9 11 11 10 11 11 10 9 9 4 2 3 3 7 8 7 7 6 6 8 10 8 9 9 10 10 10 10 10 10
8 8 8 8 8 9 8 4 4 9 9 4 4 8 10 10 10 10 10 10 11 11 10 8 8 6 8 7 8 7 7 5 6 8 9 10 8 9 9 9 9 10 11 10
8 8 8 8 8 9 9 3 3 4 3 3 7 9 9 10 10 11 10 10 10 10 10 9 9 9 9 9 8 10 7 6 8 8 8 10 9 10 10 9 10 10 10 10
7 7 8 8 8 9 9 2 4 4 3 6 7 8 9 9 9 10 9 10 9 9 9 8 9 8 7 8 9 8 6 6 6 8 8 8 9 9 10 9 9 10 10 10
7 7 8 8 9 9 8 4 5 3 3 5 7 6 9 9 9 9 9 9 9 9 9 8 8 8 8 8 7 3 5 6 6 7 9 9 9 10 10 10 10 10 10 10
7 7 7 8 8 9 7 4 4 4 5 5 6 6 8 8 9 9 9 9 8 8 8 8 7 7 7 7 8 7 6 5 6 5 8 9 9 10 10 10 10 9 10 10
6 7 7 7 7 8 8 6 5 4 7 5 6 8 8 8 8 8 9 8 8 9 7 6 6 5 5 5 5 6 7 6 7 5 7 9 11 10 11 10 10 10 10 10
6 6 6 7 7 7 7 6 5 3 6 5 6 7 7 7 7 7 8 8 8 6 7 7 7 8 9 9 7 5 6 7 6 5 3 8 11 10 10 10 10 10 9 9
6 6 5 6 6 6 7 6 6 4 4 5 7 7 7 5 5 5 7 8 7 7 5 7 8 7 9 10 9 7 6 6 6 7 7 8 12 10 10 11 9 9 9 8
6 6 6 6 6 6 6 6 6 5 4 3 5 5 6 4 4 4 4 6 7 6 5 7 6 7 8 8 9 9 7 6 6 6 7 8 9 10 10 11 11 9 9 7
6 6 6 6 6 6 6 6 6 5 2 2 4 5 5 4 3 5 5 5 5 5 6 6 6 6 6 7 7 7 7 6 5 6 7 7 8 9 10 9 8 8 8 7
7 6 6 6 6 6 6 6 6 5 4 3 5 6 6 6 6 3 3 4 5 5 5 5 4 6 4 5 7 6 7 7 8 7 8 9 7 8 9 7 8 7 7 7
7 6 6 5 6 6 6 6 5 5 1 2 3 3 5 5 5 6 4 3 4 4 3 4 4 5 4 6 5 7 7 5 7 9 9 6 7 7 7 7 7 7 7 7
7 6 6 5 5 5 5 5 5 5 4 2 3 4 4 4 4 4 5 4 4 3 2 4 4 5 5 5 5 4 6 5 6 5 6 6 7 6 7 7 7 7 7 7
7 6 6 5 5 5 5 5 5 5 5 3 2 3 3 4 4 4 4 3 2 2 3 3 4 3 4 3 2 2 4 6 7 8 7 8 9 8 6 7 7 6 6 6
7 6 6 6 5 5 5 5 5 5 5 3 2 3 2 3 3 3 2 2 1 1 2 2 2 3 5 5 4 5 4 5 7 8 7 7 9 7 6 7 6 6 6 6
7 6 6 6 6 6 6 4 6 5 5 1 2 3 1 2 2 1 0 1 0 1 1 1 2 3 4 4 4 7 6 5 5 5 7 7 6 8 5 6 6 7 6 6
7 5 5 5 5 5 5 5 6 5 5 2 -1 2 1 2 1 1 -0 0 -0 0 1 1 2 2 2 4 7 8 7 6 5 4 4 6 7 6 5 5 5 5 4 3
6 4 4 5 5 4 4 5 5 4 4 2 0 -0 1 0 0 0 0 0 2 0 1 1 2 3 3 6 7 7 6 6 6 6 5 3 5 6 4 5 4 5 4 3
4 4 4 3 3 4 4 3 2 2 2 2 3 -0 0 0 0 1 0 0 1 1 1 1 2 3 5 6 6 7 7 4 4 4 5 4 3 4 4 5 5 6 4 3
3 3 3 2 3 3 3 3 4 4 4 3 3 3 -0 -0 1 1 1 -1 -1 0 1 0 0 0 1 4 4 4 4 4 3 5 6 5 5 5 5 4 4 4 3 3
3 3 2 2 2 2 3 4 3 4 4 2 2 -0 2 -0 -0 1 1 -0 1 1 1 -0 1 1 2 3 3 3 3 3 2 3 3 4 4 4 4 5 3 3 3 3
3 1 1 2 2 3 3 4 4 4 3 1 -0 -0 0 -1 0 0 1 1 -0 0 1 3 1 2 2 2 2 2 2 2 2 2 2 3 3 4 4 2 4 3 2 2
2 2 3 2 2 3 3 4 4 2 1 0 -1 -2 -1 0 0 0 0 1 -0 1 1 -1 -0 2 3 2 1 1 1 1 0 -0 1 1 2 2 3 3 2 1 -0 -0
2 2 3 3 2 -0 2 2 2 0 1 0 -1 -3 -2 -3 -2 0 0 1 1 1 0 -0 -2 2 2 1 1 -0 -0 -1 -1 -5 -4 -2 0 0 -0 1 2 1 -0 -1
2 2 3 1 2 -1 0 2 2 0 1 -0 -0 -0 -2 -2 -2 1 1 -2 0 1 -2 -2 -6 -4 -3 -2 -0 -1 -2 -2 -2 -1 -1 -1 -1 -1 -1 -1 -0 -0 -0 -1
2 3 2 2 1 4 3 2 3 2 3 3 1 -1 1 -3 -3 -0 -2 -3 -1 -1 -2 -3 -3 -2 -2 -4 -5 -4 -3 -3 -2 -1 -1 -1 -1 -1 -2 -3 -3 -1 -1 -0

GFSNW_925_temp_138.txt.gz
Temp
8 8 8 8 9 9 9 6 4 9 9 5 2 3 9 10 10 10 10 10 9 9 8 4 1 3 3 7 8 7 6 7 6 7 9 8 8 9 9 10 10 9 9 10
8 8 8 8 8 9 8 4 4 9 9 3 4 8 9 10 10 10 10 10 10 10 9 8 7 6 7 6 7 7 6 4 6 8 10 9 9 8 9 9 9 10 10 11
8 8 8 8 8 9 8 3 3 4 3 2 7 9 9 9 10 10 10 10 10 9 9 8 8 9 8 6 7 9 7 5 7 7 8 8 9 9 10 9 9 10 10 10
7 7 7 8 8 9 8 2 3 4 3 5 6 7 8 9 9 9 9 9 9 9 8 8 8 8 7 8 9 7 6 5 5 7 7 8 8 8 10 8 9 9 10 9
7 7 7 7 8 9 8 4 4 2 3 4 7 6 9 9 9 9 9 9 9 8 8 8 8 8 7 7 7 3 4 6 6 6 9 9 9 9 9 9 10 10 10 10
7 7 7 7 8 9 7 4 4 4 4 4 6 6 8 8 9 9 9 9 8 7 7 7 7 6 6 7 7 6 5 4 6 7 7 8 9 10 9 10 10 10 9 10
7 6 6 7 7 8 8 6 4 4 6 4 6 7 7 8 8 8 8 8 8 8 6 5 6 4 4 4 4 5 5 6 7 7 6 9 11 10 10 10 10 10 10 10
7 6 6 6 6 7 7 6 5 3 6 4 6 6 7 7 6 7 7 8 7 5 6 6 6 7 8 7 5 4 5 6 6 6 3 8 11 10 10 10 10 10 10 9
7 7 7 6 6 6 6 6 6 4 4 5 7 6 7 5 5 5 6 7 7 6 5 6 8 5 8 9 8 4 5 5 5 6 6 8 11 10 10 10 10 9 9 8
7 7 7 6 6 6 6 6 6 5 3 3 5 5 6 4 4 4 3 5 7 6 5 6 5 6 7 7 8 6 6 5 6 5 7 7 8 9 9 11 11 9 9 8
7 7 7 7 6 5 6 6 6 5 2 2 4 5 4 3 3 5 5 5 4 4 6 6 6 5 5 6 6 7 6 5 4 5 6 6 8 8 9 9 8 8 7 7
6 7 7 7 6 6 6 6 5 5 4 3 5 6 7 7 6 3 2 4 4 4 5 4 4 6 3 4 6 5 6 7 7 6 7 8 6 8 8 7 8 7 7 6
7 6 6 6 6 6 6 6 5 4 1 2 2 3 5 5 5 7 4 2 3 3 2 3 4 5 4 5 4 6 6 4 6 8 9 6 7 7 6 6 7 7 6 6
7 6 6 6 6 5 5 5 5 5 3 3 3 4 4 4 4 4 5 4 3 2 1 3 4 5 4 4 5 4 6 5 6 5 6 6 7 6 6 6 6 6 6 6
7 7 6 6 6 5 4 4 4 5 5 3 2 3 3 3 3 3 3 3 2 1 3 3 3 3 3 3 2 2 3 4 7 7 7 8 8 7 6 6 6 6 6 5
7 7 6 6 6 5 5 4 4 5 5 2 2 2 2 2 2 2 2 2 0 0 2 2 1 2 4 3 4 5 3 4 6 7 7 5 5 5 7 6 6 6 5 6
7 7 6 5 6 4 5 4 6 5 4 2 2 3 1 2 2 0 -0 1 -0 0 1 1 1 2 3 3 3 7 6 5 4 4 5 5 6 7 7 5 5 7 6 6
7 7 5 5 5 5 5 6 6 5 4 2 0 3 1 2 1 1 -1 -0 -1 0 1 0 1 2 2 3 5 5 5 4 4 4 3 5 5 5 5 5 4 5 4 4
7 6 4 4 5 4 5 4 4 4 4 1 1 3 2 -0 -0 -0 -0 -0 2 0 1 1 1 2 3 5 5 5 4 5 6 5 4 3 3 4 4 4 4 4 4 3
6 4 4 3 4 4 3 3 2 2 2 2 3 2 1 0 0 1 0 1 2 1 2 0 1 2 4 5 4 4 5 3 3 3 4 5 3 3 3 3 5 5 5 4
4 3 3 2 2 3 3 3 3 3 4 3 3 3 1 -0 1 1 1 -1 -1 -0 1 1 0 0 1 2 3 3 2 2 2 2 3 3 4 4 3 3 3 4 4 3
4 3 2 1 2 2 3 3 4 4 5 2 3 2 3 0 0 0 1 0 1 1 0 1 1 1 2 2 3 3 1 1 2 2 1 1 1 2 2 3 3 4 4 4
3 1 1 2 2 3 4 3 4 4 3 1 0 1 1 -1 0 0 1 1 0 -0 1 3 1 2 2 1 1 1 1 1 0 0 1 1 1 2 2 2 3 4 3 2
2 3 3 4 3 3 3 3 4 3 1 1 1 0 2 1 1 1 0 1 -0 1 2 -0 -1 0 2 2 1 0 2 1 -0 -1 -1 -1 -0 0 2 2 3 2 1 1
2 2 5 3 2 -1 1 1 1 0 2 1 0 -0 1 0 0 1 0 -0 1 1 2 0 -2 1 2 2 2 1 -0 -2 -4 -6 -5 -3 -2 -2 -1 1 2 2 1 -0
1 2 4 1 2 -2 0 2 1 1 2 1 1 1 1 2 1 1 1 0 2 4 -1 -2 -5 -3 -3 -2 1 1 -1 -2 -2 -1 -1 -1 -1 -2 -1 -0 -0 0 0 -1
2 3 2 1 1 3 2 3 2 2 4 3 1 2 3 -1 -3 -1 -1 0 3 1 -2 -2 -3 -1 -1 -2 -5 -4 -3 -4 -3 -2 -1 -1 -0 -1 -2 -4 -1 -1 -1 -1